[[{"header":{"parameterUnit":"m.s-1","parameterCategory":1,"la1":31.0,"la2":29.5877,"lo1":-88.7671,"lo2":-86.6584,"dy":0.0162,"dx":0.0185,"nx":115,"ny":88,"refTime":"2024-07-16T18:00:00:Z","depth":0,"parameterNumber":2,"parameterNumberName":"U-component_of_WINDS"},"data":[0.0,0.0,0.0,0.0,0.0,0.0,0.0,0.0,0.0,0.0,0.0,0.0,0.0,0.0,0.0,0.0,0.0,0.0,0.0,0.0,0.0,0.0,0.0,0.0,0.0,0.0,0.0,0.0,0.0,0.0,0.0,0.0,0.0,0.0,0.0,0.0,0.0,0.0,0.0,0.0,0.0,0.0,0.0,0.0,0.0,0.0,0.0,0.0,0.0,0.0,0.0,0.0,0.0,0.0,0.0,0.0,0.0,0.0,0.0,0.0,0.0,0.0,0.0,0.0,0.0,0.0,0.0,0.0,0.0,0.0,0.0,0.0,0.0,0.0,0.0,0.0,0.0,0.0,0.0,0.0,0.0,0.0,0.0,0.0,0.0,0.0,0.0,0.0,0.0,0.0,0.0,0.0,0.0,0.0,0.0,0.0,0.0,0.0,0.0,0.0,0.0,0.0,0.0,0.0,0.0,0.0,0.0,0.0,0.0,0.0,0.0,0.0,0.0,0.0,0.0,0.0,0.0,0.0,0.0,0.0,0.0,0.0,0.0,0.0,0.0,0.0,0.0,0.0,0.0,0.0,0.0,0.0,0.0,0.0,0.0,0.0,0.0,0.0,0.0,0.0,0.0,0.0,0.0,0.0,0.0,0.0,0.0,0.0,0.0,0.0,0.0,0.0,0.0,0.0,0.0,0.0,0.0,0.0,0.0,0.0,0.0,0.0,0.0,0.0,0.0,0.0,0.0,0.0,0.0,0.0,0.0,0.0,0.0,0.0,0.0,0.0,0.0,0.0,0.0,0.0,0.0,0.0,0.0,0.0,0.0,0.0,0.0,0.0,0.0,0.0,0.0,0.0,0.0,0.0,0.0,0.0,0.0,0.0,0.0,0.0,0.0,0.0,0.0,0.0,0.0,0.0,0.0,0.0,0.0,0.0,0.0,0.0,0.0,0.0,0.0,0.0,0.0,0.0,0.0,0.0,0.0,0.0,0.0,0.0,0.0,0.0,0.0,0.0,0.0,0.0,0.0,0.0,0.0,0.0,0.0,0.0,0.0,0.0,0.0,0.0,0.0,0.0,0.0,0.0,0.0,0.0,0.0,0.0,0.0,0.0,0.0,0.0,0.0,0.0,0.0,0.0,0.0,0.0,0.0,0.0,0.0,0.0,0.0,0.0,0.0,0.0,0.0,0.0,0.0,0.0,0.0,0.0,0.0,0.0,0.0,0.0,0.0,0.0,0.0,0.0,0.0,0.0,0.0,0.0,0.0,0.0,0.0,0.0,0.0,0.0,0.0,0.0,0.0,0.0,0.0,0.0,0.0,0.0,0.0,0.0,0.0,0.0,0.0,0.0,0.0,0.0,0.0,0.0,0.0,0.0,0.0,0.0,0.0,0.0,0.0,0.0,0.0,0.0,0.0,0.0,0.0,0.0,0.0,0.0,0.0,0.0,0.0,0.0,0.0,0.0,0.0,0.0,0.0,0.0,0.0,0.0,0.0,0.0,0.0,0.0,0.0,0.0,0.0,0.0,0.0,0.0,0.0,0.0,0.0,0.0,0.0,0.0,0.0,0.0,0.0,0.0,0.0,0.0,0.0,0.0,0.0,0.0,0.0,0.0,0.0,0.0,0.0,0.0,0.0,0.0,0.0,0.0,0.0,0.0,0.0,0.0,0.0,0.0,0.0,0.0,0.0,0.0,0.0,0.0,0.0,0.0,0.0,0.0,0.0,0.0,0.0,0.0,0.0,0.0,0.0,0.0,0.0,0.0,0.0,0.0,0.0,0.0,0.0,0.0,0.0,0.0,0.0,0.0,0.0,0.0,0.0,0.0,0.0,0.0,0.0,0.0,0.0,0.0,0.0,0.0,0.0,0.0,0.0,0.0,0.0,0.0,0.0,0.0,0.0,0.0,0.0,0.0,0.0,0.0,0.0,0.0,0.0,0.0,0.0,0.0,0.0,0.0,0.0,0.0,0.0,0.0,0.0,0.0,0.0,0.0,0.0,0.0,0.0,0.0,0.0,0.0,0.0,0.0,0.0,0.0,0.0,0.0,0.0,0.0,0.0,0.0,0.0,0.0,0.0,0.0,0.0,0.0,0.0,0.0,0.0,0.0,0.0,0.0,0.0,0.0,0.0,0.0,0.0,0.0,0.0,0.0,0.0,0.0,0.0,0.0,0.0,0.0,0.0,0.0,0.0,0.0,0.0,0.0,0.0,0.0,0.0,0.0,0.0,0.0,0.0,0.0,0.0,0.0,0.0,0.0,0.0,0.0,0.0,0.0,0.0,0.0,0.0,0.0,0.0,0.0,0.0,0.0,0.0,0.0,0.0,0.0,0.0,0.0,0.0,0.0,0.0,0.0,0.0,0.0,0.0,0.0,0.0,0.0,0.0,0.0,0.0,0.0,0.0,0.0,0.0,0.0,0.0,0.0,0.0,0.0,0.0,0.0,0.0,0.0,0.0,0.0,0.0,0.0,0.0,0.0,0.0,0.0,0.0,0.0,0.0,0.0,0.0,0.0,0.0,0.0,0.0,0.0,0.0,0.0,0.0,0.0,0.0,0.0,0.0,0.0,0.0,0.0,0.0,0.0,0.0,0.0,0.0,0.0,0.0,0.0,0.0,0.0,0.0,0.0,0.0,0.0,0.0,0.0,0.0,0.0,0.0,0.0,0.0,0.0,0.0,0.0,0.0,0.0,0.0,0.0,0.0,0.0,0.0,0.0,0.0,0.0,0.0,0.0,0.0,0.0,0.0,0.0,0.0,0.0,0.0,0.0,0.0,0.0,0.0,0.0,0.0,0.0,0.0,0.0,0.0,0.0,0.0,0.0,0.0,0.0,0.0,0.0,0.0,0.0,0.0,0.0,0.0,0.0,0.0,0.0,0.0,0.0,0.0,0.0,0.0,0.0,0.0,0.0,0.0,0.0,0.0,0.0,0.0,0.0,0.0,0.0,0.0,0.0,0.0,0.0,0.0,0.0,0.0,0.0,0.0,0.0,0.0,0.0,0.0,0.0,0.0,0.0,0.0,0.0,0.0,0.0,0.0,0.0,0.0,0.0,0.0,0.0,0.0,0.0,0.0,0.0,0.0,0.0,0.0,0.0,0.0,0.0,0.0,0.0,0.0,0.0,0.0,0.0,0.0,0.0,0.0,0.0,0.0,0.0,0.0,0.0,0.0,0.0,0.0,0.0,0.0,0.0,0.0,0.0,0.0,0.0,0.0,0.0,0.0,0.0,0.0,0.0,0.0,0.0,0.0,0.0,0.0,0.0,0.0,0.0,0.0,0.0,0.0,0.0,0.0,0.0,0.0,0.0,0.0,0.0,0.0,0.0,0.0,0.0,0.0,0.0,0.0,0.0,0.0,0.0,0.0,0.0,0.0,0.0,0.0,0.0,0.0,0.0,0.0,0.0,0.0,0.0,0.0,0.0,0.0,0.0,0.0,0.0,0.0,0.0,0.0,0.0,0.0,0.0,0.0,0.0,0.0,0.0,0.0,0.0,0.0,0.0,0.0,0.0,0.0,0.0,0.0,0.0,0.0,0.0,0.0,0.0,0.0,0.0,0.0,0.0,0.0,0.0,0.0,0.0,0.0,0.0,0.0,0.0,0.0,0.0,0.0,0.0,0.0,0.0,0.0,0.0,0.0,0.0,0.0,0.0,0.0,0.0,0.0,0.0,0.0,0.0,0.0,0.0,0.0,0.0,0.0,0.0,0.0,0.0,0.0,0.0,0.0,0.0,0.0,0.0,0.0,0.0,0.0,0.0,0.0,0.0,0.0,0.0,0.0,0.0,0.0,0.0,0.0,0.0,0.0,0.0,0.0,0.0,0.0,0.0,0.0,0.0,0.0,0.0,0.0,0.0,0.0,0.0,0.0,0.0,0.0,0.0,0.0,0.0,0.0,0.0,0.0,0.0,0.0,0.0,0.0,0.0,0.0,0.0,0.0,0.0,0.0,0.0,0.0,0.0,0.0,0.0,0.0,0.0,0.0,0.0,0.0,0.0,0.0,0.0,0.0,0.0,0.0,0.0,0.0,0.0,0.0,0.0,0.0,0.0,0.0,0.0,0.0,0.0,0.0,0.0,0.0,0.0,0.0,0.0,0.0,0.0,0.0,0.0,0.0,0.0,0.0,0.0,0.0,0.0,0.0,0.0,0.0,0.0,0.0,0.0,0.0,0.0,0.0,0.0,0.0,0.0,0.0,0.0,0.0,0.0,0.0,0.0,0.0,0.0,0.0,0.0,0.0,0.0,0.0,0.0,0.0,0.0,0.0,0.0,-0.8029,0.0,0.0,0.0,0.0,0.0,0.0,0.0,0.0,0.0,0.0,0.0,0.0,0.0,0.0,0.0,0.0,0.0,0.0,0.0,0.0,0.0,0.0,0.0,0.0,0.0,0.0,0.0,0.0,0.0,0.0,0.0,0.0,0.0,0.0,0.0,0.0,0.0,0.0,0.0,0.0,0.0,0.0,0.0,0.0,0.0,0.0,0.0,0.0,0.0,0.0,0.0,0.0,0.0,0.0,0.0,0.0,0.0,0.0,0.0,0.0,0.0,0.0,0.0,0.0,0.0,0.0,0.0,0.0,0.0,0.0,0.0,0.0,0.0,0.0,0.0,0.0,0.0,0.0,0.0,0.0,0.0,0.0,0.0,0.0,0.0,0.0,0.0,0.0,0.0,0.0,0.0,0.0,0.0,0.0,0.0,0.0,0.0,0.0,0.0,0.0,0.0,0.0,0.0,0.0,0.0,0.0,0.0,0.0,0.0,0.0,-0.7376,-0.7773,-0.7736,-0.7715,-0.765,0.0,0.0,0.0,0.0,0.0,0.0,0.0,0.0,0.0,0.0,0.0,0.0,0.0,0.0,0.0,0.0,0.0,0.0,0.0,0.0,0.0,0.0,0.0,0.0,0.0,0.0,0.0,0.0,0.0,0.0,0.0,0.0,0.0,0.0,0.0,0.0,0.0,0.0,0.0,0.0,0.0,0.0,0.0,0.0,0.0,0.0,0.0,0.0,0.0,0.0,0.0,0.0,0.0,0.0,0.0,0.0,0.0,0.0,0.0,0.0,0.0,0.0,0.0,0.0,0.0,0.0,0.0,0.0,0.0,0.0,0.0,0.0,0.0,0.0,0.0,0.0,0.0,0.0,0.0,0.0,0.0,0.0,0.0,0.0,0.0,0.0,0.0,0.0,0.0,0.0,0.0,0.0,0.0,0.0,0.0,0.0,0.0,0.0,0.0,0.0,0.0,0.0,0.0,0.0,0.0,0.0,0.0,0.0,0.0,0.0,0.0,0.0,-0.7482,-0.7397,-0.7289,0.0,0.0,0.0,0.0,0.0,0.0,0.0,0.0,0.0,0.0,0.0,0.0,0.0,0.0,0.0,0.0,0.0,0.0,0.0,0.0,0.0,0.0,0.0,0.0,0.0,0.0,0.0,0.0,0.0,0.0,0.0,0.0,0.0,0.0,0.0,0.0,0.0,0.0,0.0,0.0,0.0,0.0,0.0,0.0,0.0,0.0,0.0,0.0,0.0,0.0,0.0,0.0,0.0,0.0,0.0,0.0,0.0,0.0,0.0,0.0,0.0,0.0,0.0,0.0,0.0,0.0,0.0,0.0,0.0,0.0,0.0,0.0,0.0,0.0,0.0,0.0,0.0,0.0,0.0,0.0,0.0,0.0,0.0,0.0,0.0,0.0,0.0,0.0,0.0,0.0,0.0,0.0,0.0,0.0,0.0,0.0,0.0,0.0,0.0,0.0,0.0,0.0,0.0,0.0,0.0,0.0,0.0,0.0,0.0,0.0,-0.705,-0.758,-0.7585,0.0,-0.7218,0.0,0.0,0.0,0.0,0.0,0.0,0.0,0.0,0.0,0.0,0.0,0.0,0.0,0.0,0.0,0.0,0.0,0.0,0.0,0.0,0.0,0.0,0.0,0.0,0.0,0.0,0.0,0.0,0.0,0.0,0.0,0.0,0.0,0.0,0.0,0.0,0.0,0.0,0.0,0.0,0.0,0.0,0.0,0.0,0.0,0.0,0.0,0.0,0.0,0.0,0.0,0.0,0.0,0.0,0.0,0.0,0.0,0.0,0.0,0.0,0.0,0.0,0.0,0.0,0.0,0.0,0.0,0.0,0.0,0.0,0.0,0.0,0.0,0.0,0.0,0.0,0.0,0.0,0.0,0.0,0.0,0.0,0.0,0.0,0.0,0.0,0.0,0.0,0.0,0.0,0.0,0.0,0.0,0.0,0.0,0.0,0.0,0.0,0.0,0.0,0.0,0.0,0.0,0.0,0.0,0.0,0.0,0.0,0.0,0.0,-0.6896,-0.7336,-0.7059,-0.6839,0.0,0.0,0.0,0.0,0.0,0.0,0.0,0.0,0.0,0.0,0.0,0.0,0.0,0.0,0.0,0.0,0.0,0.0,0.0,0.0,0.0,0.0,0.0,0.0,0.0,0.0,0.0,0.0,0.0,0.0,0.0,0.0,0.0,0.0,0.0,0.0,0.0,0.0,0.0,0.0,0.0,0.0,0.0,0.0,0.0,0.0,0.0,0.0,0.0,0.0,0.0,0.0,0.0,0.0,0.0,0.0,0.0,0.0,0.0,0.0,0.0,0.0,0.0,0.0,0.0,0.0,0.0,0.0,0.0,0.0,0.0,0.0,0.0,0.0,0.0,0.0,0.0,0.0,0.0,0.0,0.0,0.0,0.0,0.0,0.0,0.0,0.0,0.0,0.0,0.0,0.0,0.0,0.0,0.0,0.0,0.0,0.0,0.0,0.0,0.0,0.0,0.0,0.0,0.0,0.0,0.0,0.0,0.0,0.0,0.0,-0.6616,-0.6843,-0.719,-0.6717,-0.6386,-0.6273,0.0,0.0,0.0,0.0,0.0,0.0,0.0,0.0,0.0,0.0,0.0,0.0,0.0,0.0,0.0,0.0,0.0,0.0,0.0,0.0,0.0,0.0,0.0,0.0,0.0,0.0,0.0,0.0,0.0,0.0,0.0,0.0,0.0,0.0,0.0,0.0,0.0,0.0,0.0,0.0,0.0,0.0,0.0,0.0,0.0,0.0,0.0,0.0,0.0,0.0,0.0,0.0,0.0,0.0,0.0,0.0,0.0,0.0,0.0,0.0,0.0,0.0,0.0,0.0,0.0,0.0,0.0,0.0,0.0,0.0,0.0,0.0,0.0,0.0,0.0,0.0,0.0,0.0,0.0,0.0,0.0,0.0,0.0,0.0,0.0,0.0,0.0,0.0,0.0,0.0,0.0,0.0,0.0,0.0,0.0,0.0,0.0,0.0,0.0,0.0,0.0,0.0,0.0,0.0,0.0,0.0,0.0,0.0,-0.7162,-0.6927,-0.6935,-0.7272,-0.6851,-0.6403,0.0,0.0,0.0,0.0,0.0,0.0,0.0,0.0,0.0,0.0,0.0,0.0,0.0,0.0,0.0,0.0,0.0,0.0,0.0,0.0,0.0,0.0,0.0,0.0,0.0,0.0,0.0,0.0,0.0,0.0,0.0,0.0,0.0,0.0,0.0,0.0,0.0,0.0,0.0,0.0,0.0,0.0,0.0,0.0,0.0,0.0,0.0,0.0,0.0,0.0,0.0,0.0,0.0,0.0,0.0,0.0,0.0,0.0,0.0,0.0,0.0,0.0,0.0,0.0,0.0,0.0,0.0,0.0,0.0,0.0,0.0,0.0,0.0,0.0,0.0,0.0,0.0,0.0,0.0,0.0,0.0,0.0,0.0,0.0,0.0,0.0,0.0,0.0,0.0,0.0,0.0,0.0,0.0,0.0,0.0,0.0,0.0,0.0,0.0,0.0,0.0,0.0,0.0,0.0,0.0,0.0,0.0,0.0,0.0,-0.6067,-0.6348,-0.6633,-0.6943,-0.6166,-0.5743,0.0,0.0,0.0,0.0,0.0,0.0,0.0,0.0,0.0,0.0,0.0,0.0,0.0,0.0,0.0,0.0,0.0,0.0,0.0,0.0,0.0,0.0,0.0,0.0,0.0,0.0,0.0,0.0,0.0,0.0,0.0,0.0,0.0,0.0,0.0,0.0,0.0,0.0,0.0,0.0,0.0,0.0,0.0,0.0,0.0,0.0,0.0,0.0,0.0,0.0,0.0,0.0,0.0,0.0,0.0,0.0,0.0,0.0,0.0,0.0,0.0,0.0,0.0,0.0,0.0,0.0,0.0,0.0,0.0,0.0,0.0,0.0,0.0,0.0,0.0,0.0,0.0,0.0,0.0,0.0,0.0,0.0,0.0,0.0,0.0,0.0,0.0,0.0,0.0,0.0,0.0,0.0,0.0,0.0,0.0,0.0,0.0,0.0,0.0,0.0,0.0,0.0,0.0,0.0,0.0,0.0,0.0,0.0,0.0,-0.5748,0.0,-0.6729,0.0,-0.5876,-0.5335,0.0,0.0,0.0,0.0,0.0,0.0,0.0,0.0,0.0,0.0,0.0,0.0,0.0,0.0,0.0,0.0,0.0,0.0,0.0,0.0,0.0,0.0,0.0,0.0,0.0,0.0,0.0,0.0,0.0,0.0,0.0,0.0,0.0,0.0,0.0,0.0,0.0,0.0,0.0,0.0,0.0,0.0,0.0,0.0,0.0,0.0,0.0,0.0,0.0,0.0,0.0,0.0,0.0,0.0,0.0,0.0,0.0,0.0,0.0,0.0,0.0,0.0,0.0,0.0,0.0,0.0,0.0,0.0,0.0,0.0,0.0,0.0,0.0,0.0,0.0,0.0,0.0,0.0,0.0,0.0,0.0,0.0,0.0,0.0,0.0,0.0,0.0,0.0,0.0,0.0,0.0,0.0,0.0,0.0,0.0,0.0,0.0,0.0,0.0,0.0,0.0,0.0,0.0,0.0,0.0,0.0,0.0,0.0,-0.5073,-0.6397,-0.6958,-0.7178,-0.7261,-0.6021,-0.5232,0.0,0.0,0.0,0.0,0.0,0.0,0.0,0.0,0.0,0.0,0.0,0.0,0.0,0.0,0.0,0.0,0.0,0.0,0.0,0.0,0.0,0.0,0.0,0.0,0.0,0.0,0.0,0.0,0.0,0.0,0.0,0.0,0.0,0.0,0.0,0.0,0.0,0.0,0.0,0.0,0.0,0.0,0.0,0.0,0.0,0.0,0.0,0.0,0.0,0.0,0.0,0.0,0.0,0.0,0.0,0.0,0.0,0.0,0.0,0.0,0.0,0.0,0.0,0.0,0.0,0.0,0.0,0.0,0.0,0.0,0.0,0.0,0.0,0.0,0.0,0.0,0.0,0.0,0.0,0.0,0.0,0.0,0.0,0.0,0.0,0.0,0.0,0.0,0.0,0.0,0.0,0.0,0.0,0.0,0.0,0.0,0.0,0.0,0.0,0.0,0.0,0.0,0.0,0.0,0.0,0.0,0.0,0.0,0.0,-0.4792,-0.5663,-0.6286,-0.6578,-0.5579,-0.5204,0.0,0.0,0.0,0.0,0.0,0.0,0.0,0.0,0.0,0.0,0.0,0.0,0.0,0.0,0.0,0.0,0.0,0.0,0.0,0.0,0.0,0.0,0.0,0.0,0.0,0.0,0.0,0.0,0.0,0.0,0.0,0.0,0.0,0.0,0.0,0.0,0.0,0.0,0.0,0.0,0.0,0.0,0.0,0.0,0.0,0.0,0.0,0.0,0.0,0.0,0.0,0.0,0.0,0.0,0.0,0.0,0.0,0.0,0.0,0.0,0.0,0.0,0.0,0.0,0.0,0.0,0.0,0.0,0.0,0.0,0.0,0.0,0.0,0.0,0.0,0.0,0.0,0.0,0.0,0.0,0.0,0.0,0.0,0.0,0.0,0.0,0.0,0.0,0.0,0.0,0.0,0.0,0.0,0.0,0.0,0.0,0.0,0.0,0.0,0.0,0.0,0.0,0.0,0.0,0.0,0.0,0.0,0.0,0.0,-0.4557,-0.5664,-0.6328,-0.6382,-0.5569,-0.5164,-0.5236,0.0,0.0,0.0,0.0,0.0,0.0,0.0,0.0,0.0,0.0,0.0,0.0,0.0,0.0,0.0,0.0,0.0,0.0,0.0,0.0,0.0,0.0,0.0,0.0,0.0,0.0,0.0,0.0,0.0,0.0,0.0,0.0,0.0,0.0,0.0,0.0,0.0,0.0,0.0,0.0,0.0,0.0,0.0,0.0,0.0,0.0,0.0,0.0,0.0,0.0,0.0,0.0,0.0,0.0,0.0,0.0,0.0,0.0,0.0,0.0,0.0,0.0,0.0,0.0,0.0,0.0,0.0,0.0,0.0,0.0,0.0,0.0,0.0,0.0,0.0,0.0,0.0,0.0,0.0,0.0,0.0,0.0,0.0,0.0,0.0,0.0,0.0,0.0,0.0,0.0,0.0,0.0,0.0,0.0,0.0,0.0,0.0,0.0,0.0,0.0,0.0,0.0,0.0,0.0,0.0,0.0,0.0,0.0,-0.5326,-0.678,-0.7211,-0.66,-0.5864,-0.5221,0.0,0.0,0.0,0.0,0.0,0.0,0.0,0.0,0.0,0.0,0.0,0.0,0.0,0.0,0.0,0.0,0.0,0.0,0.0,0.0,0.0,0.0,0.0,0.0,0.0,0.0,0.0,0.0,0.0,0.0,0.0,0.0,0.0,0.0,0.0,0.0,0.0,0.0,0.0,0.0,0.0,0.0,0.0,0.0,0.0,0.0,0.0,0.0,0.0,0.0,0.0,0.0,0.0,0.0,0.0,0.0,0.0,0.0,0.0,0.0,0.0,0.0,0.0,0.0,0.0,0.0,0.0,0.0,0.0,0.0,0.0,0.0,0.0,0.0,0.0,0.0,0.0,0.0,0.0,0.0,0.0,0.0,0.0,0.0,0.0,0.0,0.0,0.0,0.0,0.0,0.0,0.0,0.0,0.0,0.0,0.0,0.0,0.0,0.0,0.0,0.0,0.0,0.0,0.0,0.0,0.0,0.0,0.0,0.0,-0.5867,-0.7273,-0.7779,-0.7311,-0.6259,-0.5737,0.0,0.0,0.0,0.0,0.0,0.0,0.0,0.0,0.0,0.0,0.0,0.0,0.0,0.0,0.0,0.0,0.0,0.0,0.0,0.0,0.0,0.0,0.0,0.0,0.0,0.0,0.0,0.0,0.0,0.0,0.0,0.0,0.0,0.0,0.0,0.0,0.0,0.0,0.0,0.0,0.0,0.0,0.0,0.0,0.0,0.0,0.0,0.0,0.0,0.0,0.0,0.0,0.0,0.0,0.0,0.0,0.0,0.0,0.0,0.0,0.0,0.0,0.0,0.0,0.0,0.0,0.0,0.0,0.0,0.0,0.0,0.0,0.0,0.0,0.0,0.0,0.0,0.0,0.0,0.0,0.0,0.0,0.0,0.0,0.0,0.0,0.0,0.0,0.0,0.0,0.0,0.0,0.0,0.0,0.0,0.0,0.0,0.0,0.0,0.0,0.0,0.0,0.0,0.0,0.0,0.0,0.0,0.0,-0.597,-0.6384,-0.7776,-0.8329,-0.7968,-0.6991,-0.6138,0.0,0.0,0.0,0.0,0.0,0.0,0.0,0.0,0.0,0.0,0.0,0.0,0.0,0.0,0.0,0.0,0.0,0.0,0.0,0.0,0.0,0.0,0.0,0.0,0.0,0.0,0.0,0.0,0.0,0.0,0.0,0.0,0.0,0.0,0.0,0.0,0.0,0.0,0.0,0.0,0.0,0.0,0.0,0.0,0.0,0.0,0.0,0.0,0.0,0.0,0.0,0.0,0.0,0.0,0.0,0.0,0.0,0.0,0.0,0.0,0.0,0.0,0.0,0.0,0.0,0.0,0.0,0.0,0.0,0.0,0.0,0.0,0.0,0.0,0.0,0.0,0.0,0.0,0.0,0.0,0.0,0.0,0.0,0.0,0.0,0.0,0.0,0.0,0.0,0.0,0.0,0.0,0.0,0.0,0.0,0.0,0.0,0.0,0.0,0.0,0.0,0.0,0.0,0.0,0.0,0.0,0.0,0.0,-0.6667,-0.704,-0.8269,-0.878,-0.854,-0.7693,-0.6458,0.0,0.0,0.0,0.0,0.0,0.0,0.0,0.0,0.0,0.0,0.0,0.0,0.0,0.0,0.0,0.0,0.0,0.0,0.0,0.0,0.0,0.0,0.0,0.0,0.0,0.0,0.0,0.0,0.0,0.0,0.0,0.0,0.0,0.0,0.0,0.0,0.0,0.0,0.0,0.0,0.0,0.0,0.0,0.0,0.0,0.0,0.0,0.0,0.0,0.0,0.0,0.0,0.0,0.0,0.0,0.0,0.0,0.0,0.0,0.0,0.0,0.0,0.0,0.0,0.0,0.0,0.0,0.0,0.0,0.0,0.0,0.0,0.0,0.0,0.0,0.0,0.0,0.0,0.0,0.0,0.0,0.0,0.0,0.0,0.0,0.0,0.0,0.0,0.0,0.0,0.0,0.0,0.0,0.0,0.0,0.0,0.0,0.0,0.0,0.0,0.0,0.0,0.0,0.0,0.0,0.0,0.0,0.0,-0.6737,-0.7901,-0.8534,-0.8807,-0.8694,-0.7399,-0.6465,0.0,0.0,0.0,0.0,0.0,0.0,0.0,0.0,0.0,0.0,0.0,0.0,0.0,0.0,0.0,0.0,0.0,0.0,0.0,0.0,0.0,0.0,0.0,0.0,0.0,0.0,0.0,0.0,0.0,0.0,0.0,0.0,0.0,0.0,0.0,0.0,0.0,0.0,0.0,0.0,0.0,0.0,0.0,0.0,0.0,0.0,0.0,0.0,-0.4673,0.0,0.0,0.0,0.0,0.0,0.0,0.0,0.0,0.0,0.0,0.0,0.0,0.0,0.0,0.0,0.0,0.0,0.0,0.0,0.0,0.0,0.0,0.0,0.0,0.0,0.0,0.0,0.0,0.0,0.0,0.0,0.0,0.0,0.0,0.0,0.0,0.0,0.0,0.0,0.0,0.0,0.0,0.0,0.0,0.0,0.0,0.0,0.0,0.0,0.0,0.0,0.0,0.0,0.0,0.0,0.0,0.0,0.0,0.0,-0.6978,-0.7925,-0.8563,-0.8828,-0.8731,-0.7616,-0.6668,0.0,0.0,0.0,0.0,0.0,0.0,0.0,0.0,0.0,0.0,0.0,0.0,0.0,0.0,0.0,0.0,0.0,0.0,0.0,0.0,0.0,0.0,0.0,0.0,0.0,0.0,0.0,0.0,0.0,0.0,0.0,0.0,0.0,0.0,0.0,0.0,0.0,0.0,0.0,0.0,0.0,0.0,0.0,0.0,0.0,0.0,0.0,0.0,0.0,0.0,0.0,0.0,0.0,0.0,0.0,0.0,0.0,0.0,0.0,0.0,0.0,0.0,0.0,0.0,0.0,0.0,0.0,0.0,0.0,0.0,0.0,0.0,0.0,0.0,0.0,0.0,0.0,0.0,0.0,0.0,0.0,0.0,0.0,0.0,0.0,0.0,0.0,0.0,0.0,0.0,0.0,0.0,0.0,0.0,0.0,0.0,0.0,0.0,0.0,0.0,0.0,0.0,0.0,0.0,0.0,0.0,0.0,-0.6163,-0.7153,-0.7829,-0.846,-0.8731,-0.8759,-0.7887,-0.6871,-0.5841,0.0,0.0,0.0,0.0,0.0,0.0,0.0,0.0,0.0,0.0,0.0,0.0,0.0,0.0,0.0,0.0,0.0,0.0,0.0,0.0,0.0,0.0,0.0,0.0,0.0,0.0,0.0,0.0,0.0,0.0,0.0,0.0,0.0,0.0,0.0,0.0,0.0,0.0,-0.3223,-0.3394,0.0,0.0,0.0,0.0,0.0,0.0,0.0,0.0,-0.4498,0.0,0.0,0.0,0.0,0.0,0.0,0.0,0.0,0.0,0.0,0.0,0.0,0.0,0.0,0.0,0.0,0.0,0.0,0.0,0.0,0.0,0.0,0.0,0.0,0.0,0.0,0.0,0.0,0.0,0.0,0.0,0.0,0.0,0.0,0.0,0.0,0.0,0.0,0.0,0.0,0.0,0.0,0.0,0.0,0.0,0.0,0.0,0.0,0.0,0.0,0.0,0.0,0.0,0.0,0.0,0.0,-0.581,-0.6008,-0.6856,-0.8491,-0.8466,-0.8565,-0.8742,-0.7882,-0.7025,-0.6288,0.0,0.0,0.0,0.0,0.0,0.0,0.0,0.0,0.0,0.0,0.0,0.0,0.0,0.0,0.0,0.0,0.0,0.0,0.0,0.0,0.0,0.0,0.0,0.0,0.0,0.0,0.0,0.0,0.0,0.0,0.0,0.0,0.0,0.0,0.0,0.0,0.0,0.0,0.0,-0.3986,-0.4158,0.0,0.0,0.0,0.0,0.0,0.0,0.0,0.0,-0.495,0.0,0.0,0.0,0.0,0.0,0.0,0.0,0.0,0.0,0.0,0.0,0.0,0.0,0.0,0.0,0.0,0.0,0.0,0.0,0.0,0.0,0.0,0.0,0.0,0.0,0.0,0.0,0.0,0.0,0.0,0.0,0.0,0.0,0.0,0.0,0.0,0.0,0.0,0.0,0.0,0.0,0.0,0.0,0.0,0.0,0.0,0.0,0.0,0.0,0.0,0.0,0.0,0.0,0.0,0.0,-0.538,-0.601,-0.6943,-0.8165,-0.8276,-0.8335,-0.8491,-0.7573,-0.6753,0.0,0.0,0.0,0.0,0.0,0.0,0.0,0.0,0.0,0.0,0.0,0.0,0.0,0.0,0.0,0.0,0.0,0.0,0.0,0.0,0.0,0.0,0.0,0.0,0.0,0.0,0.0,0.0,0.0,0.0,0.0,0.0,0.0,0.0,0.0,0.0,0.0,0.0,0.0,0.0,-0.399,-0.4311,-0.4796,0.0,0.0,0.0,0.0,0.0,0.0,-0.4984,-0.4839,0.0,0.0,0.0,0.0,0.0,0.0,0.0,0.0,0.0,0.0,0.0,0.0,0.0,0.0,0.0,0.0,0.0,0.0,0.0,0.0,0.0,0.0,0.0,0.0,0.0,0.0,0.0,0.0,0.0,0.0,0.0,0.0,0.0,0.0,0.0,0.0,0.0,0.0,0.0,0.0,0.0,0.0,0.0,0.0,0.0,0.0,0.0,0.0,0.0,0.0,0.0,0.0,0.0,0.0,0.0,-0.4818,-0.5946,-0.6939,-0.7763,-0.7984,-0.8164,-0.8191,-0.7279,-0.6536,0.0,0.0,0.0,0.0,0.0,0.0,0.0,0.0,0.0,0.0,0.0,0.0,0.0,0.0,0.0,0.0,0.0,0.0,0.0,0.0,0.0,0.0,0.0,0.0,0.0,0.0,0.0,0.0,0.0,0.0,0.0,0.0,0.0,0.0,0.0,0.0,0.0,0.0,0.0,0.0,0.0,-0.4459,-0.5273,-0.4953,0.0,0.0,0.0,0.0,-0.5327,-0.5068,0.0,0.0,0.0,0.0,0.0,0.0,0.0,0.0,0.0,0.0,0.0,0.0,0.0,0.0,0.0,0.0,0.0,0.0,0.0,0.0,0.0,0.0,0.0,0.0,0.0,0.0,0.0,0.0,0.0,0.0,0.0,0.0,0.0,0.0,0.0,0.0,0.0,0.0,0.0,0.0,0.0,0.0,0.0,0.0,0.0,0.0,0.0,0.0,0.0,0.0,0.0,0.0,0.0,0.0,0.0,0.0,-0.4764,-0.5476,-0.6449,-0.772,-0.7828,-0.7941,-0.8191,-0.7429,-0.6627,0.0,0.0,0.0,0.0,0.0,0.0,0.0,0.0,0.0,0.0,0.0,0.0,0.0,0.0,0.0,0.0,0.0,0.0,0.0,0.0,0.0,0.0,0.0,0.0,0.0,0.0,0.0,0.0,0.0,0.0,0.0,0.0,0.0,0.0,0.0,0.0,0.0,0.0,0.0,0.0,0.0,-0.4784,-0.4929,-0.4966,-0.5072,0.0,0.0,-0.5584,-0.6316,-0.6381,0.0,0.0,0.0,0.0,0.0,0.0,0.0,0.0,0.0,0.0,0.0,0.0,0.0,0.0,0.0,0.0,0.0,0.0,0.0,0.0,0.0,0.0,0.0,0.0,0.0,0.0,0.0,0.0,0.0,0.0,0.0,0.0,0.0,0.0,0.0,0.0,0.0,0.0,0.0,0.0,0.0,0.0,0.0,0.0,0.0,0.0,0.0,0.0,0.0,0.0,0.0,0.0,0.0,0.0,0.0,-0.4155,-0.478,-0.5742,-0.6767,-0.7752,-0.7801,-0.7844,-0.7946,-0.7231,-0.6437,0.0,0.0,0.0,0.0,0.0,0.0,0.0,0.0,0.0,0.0,0.0,0.0,0.0,0.0,0.0,0.0,0.0,0.0,0.0,0.0,0.0,0.0,0.0,0.0,0.0,0.0,0.0,0.0,0.0,0.0,0.0,0.0,0.0,0.0,0.0,0.0,0.0,0.0,0.0,0.0,0.0,0.0,-0.555,-0.5679,0.0,0.0,0.0,-0.6006,-0.6337,0.0,0.0,0.0,0.0,0.0,0.0,0.0,0.0,0.0,0.0,0.0,0.0,0.0,0.0,0.0,0.0,0.0,0.0,0.0,0.0,0.0,0.0,0.0,0.0,0.0,0.0,0.0,0.0,0.0,0.0,0.0,0.0,0.0,0.0,0.0,0.0,0.0,0.0,0.0,0.0,0.0,0.0,0.0,0.0,0.0,0.0,0.0,0.0,0.0,0.0,0.0,0.0,0.0,0.0,0.0,0.0,0.0,-0.4855,-0.6139,-0.7139,-0.7774,-0.792,-0.7979,-0.7908,-0.7416,0.0,0.0,0.0,0.0,0.0,0.0,0.0,0.0,0.0,0.0,0.0,0.0,0.0,0.0,0.0,0.0,0.0,0.0,0.0,0.0,0.0,0.0,0.0,0.0,0.0,0.0,0.0,-0.1958,0.0,0.0,0.0,0.0,0.0,0.0,0.0,0.0,0.0,0.0,0.0,0.0,0.0,0.0,-0.531,-0.6072,-0.6277,-0.658,0.0,0.0,-0.6561,-0.673,-0.6936,-0.6872,0.0,0.0,0.0,0.0,0.0,0.0,0.0,0.0,0.0,0.0,0.0,0.0,0.0,0.0,0.0,0.0,0.0,0.0,0.0,0.0,0.0,0.0,0.0,0.0,0.0,0.0,0.0,0.0,0.0,0.0,0.0,0.0,0.0,0.0,0.0,0.0,0.0,0.0,0.0,0.0,0.0,0.0,0.0,0.0,0.0,0.0,0.0,0.0,0.0,0.0,0.0,0.0,0.0,0.0,-0.4583,-0.5039,-0.6347,-0.73,-0.7785,-0.8326,-0.8514,-0.8162,-0.8211,-0.7424,0.0,0.0,0.0,0.0,0.0,0.0,0.0,0.0,0.0,0.0,0.0,0.0,0.0,0.0,0.0,0.0,0.0,0.0,0.0,0.0,0.0,0.0,0.0,0.0,0.0,0.0,0.0,0.0,0.0,0.0,0.0,0.0,0.0,0.0,0.0,0.0,0.0,0.0,0.0,0.0,0.0,-0.5616,-0.5968,-0.6547,-0.7127,0.0,-0.7459,-0.751,-0.8075,-0.7973,-0.7572,-0.6854,0.0,0.0,0.0,0.0,0.0,0.0,0.0,0.0,0.0,0.0,0.0,0.0,0.0,0.0,0.0,0.0,0.0,0.0,0.0,0.0,0.0,0.0,0.0,0.0,0.0,0.0,0.0,0.0,0.0,0.0,0.0,0.0,0.0,0.0,0.0,0.0,0.0,0.0,0.0,0.0,0.0,0.0,0.0,0.0,0.0,0.0,0.0,0.0,0.0,0.0,0.0,0.0,0.0,-0.4649,-0.4877,-0.6464,-0.7467,-0.7795,-0.821,-0.8348,-0.8227,-0.8258,-0.7494,0.0,0.0,0.0,0.0,0.0,0.0,0.0,0.0,0.0,0.0,0.0,0.0,0.0,0.0,0.0,0.0,0.0,0.0,0.0,0.0,0.0,0.0,0.0,0.0,0.0,0.0,0.0,0.0,-0.3286,-0.3183,-0.3032,0.0,0.0,0.0,0.0,0.0,0.0,0.0,0.0,0.0,0.0,-0.6175,-0.6868,-0.7252,0.0,0.0,-0.7942,-0.7943,-0.8039,-0.7967,-0.7632,-0.6939,-0.6592,0.0,0.0,0.0,0.0,0.0,0.0,0.0,0.0,0.0,0.0,0.0,0.0,0.0,0.0,0.0,0.0,0.0,0.0,0.0,0.0,0.0,0.0,0.0,0.0,0.0,0.0,0.0,0.0,0.0,0.0,0.0,0.0,0.0,0.0,0.0,0.0,0.0,0.0,0.0,0.0,0.0,0.0,0.0,0.0,0.0,0.0,0.0,0.0,0.0,0.0,0.0,0.0,-0.4836,-0.5071,-0.6769,-0.7742,-0.7903,-0.8253,-0.8354,-0.8227,-0.8386,-0.7802,0.0,0.0,0.0,0.0,0.0,0.0,0.0,0.0,0.0,0.0,0.0,0.0,0.0,0.0,0.0,0.0,0.0,0.0,0.0,0.0,0.0,0.0,0.0,0.0,0.0,0.0,0.0,0.0,-0.3499,-0.3381,-0.3116,0.0,0.0,0.0,0.0,0.0,0.0,0.0,0.0,0.0,0.0,-0.6662,-0.7477,-0.7682,-0.7877,-0.8143,-0.8108,-0.8104,-0.8135,-0.8003,-0.7686,-0.7145,0.0,0.0,0.0,0.0,0.0,0.0,0.0,0.0,0.0,0.0,0.0,0.0,0.0,0.0,0.0,0.0,0.0,0.0,0.0,0.0,0.0,0.0,0.0,0.0,0.0,0.0,0.0,-0.2108,0.0,0.0,-0.2104,0.0,0.0,0.0,0.0,0.0,0.0,0.0,0.0,0.0,0.0,0.0,0.0,0.0,0.0,0.0,0.0,0.0,0.0,0.0,0.0,0.0,0.0,-0.5251,-0.5674,-0.7273,-0.8191,-0.8207,-0.8689,-0.8709,-0.8238,-0.8863,-0.8377,-0.6618,0.0,0.0,0.0,0.0,0.0,0.0,0.0,0.0,0.0,0.0,0.0,0.0,0.0,0.0,0.0,0.0,0.0,0.0,0.0,0.0,0.0,0.0,0.0,0.0,0.0,0.0,-0.3012,-0.322,-0.3385,0.0,0.0,0.0,0.0,0.0,0.0,0.0,0.0,0.0,-0.5522,-0.627,-0.6993,-0.7532,-0.7675,-0.7883,-0.8261,-0.8087,-0.8093,-0.8567,-0.8231,-0.7805,0.0,0.0,0.0,0.0,0.0,0.0,0.0,0.0,0.0,0.0,0.0,0.0,0.0,0.0,0.0,0.0,0.0,0.0,0.0,0.0,0.0,0.0,0.0,0.0,0.0,0.0,0.0,-0.3194,-0.2847,0.0,0.0,0.0,0.0,0.0,0.0,0.0,0.0,0.0,0.0,0.0,-0.5132,-0.556,0.0,0.0,0.0,0.0,0.0,0.0,0.0,0.0,0.0,0.0,0.0,0.0,-0.5266,-0.5597,-0.7305,-0.8213,-0.8218,-0.8701,-0.8839,-0.8587,-0.8986,-0.8559,-0.7108,0.0,0.0,0.0,0.0,0.0,0.0,0.0,0.0,0.0,0.0,0.0,0.0,0.0,0.0,0.0,0.0,0.0,0.0,0.0,0.0,0.0,0.0,0.0,0.0,0.0,-0.3578,0.0,0.0,0.0,0.0,0.0,0.0,0.0,0.0,0.0,0.0,0.0,-0.6093,-0.6609,-0.7032,-0.7518,-0.8015,-0.8099,-0.8193,0.0,0.0,0.0,0.0,0.0,0.0,0.0,0.0,0.0,0.0,0.0,0.0,0.0,0.0,-0.7333,-0.5875,-0.5663,-0.573,-0.5724,0.0,0.0,0.0,0.0,0.0,0.0,0.0,0.0,0.0,0.0,0.0,0.0,0.0,0.0,-0.428,-0.3939,-0.3945,0.0,0.0,0.0,0.0,0.0,0.0,0.0,0.0,-0.5585,-0.61,-0.6177,-0.6577,-0.6618,-0.6281,-0.6271,-0.5564,0.0,0.0,0.0,0.0,0.0,0.0,0.0,0.0,-0.5548,-0.5944,-0.7515,-0.8274,-0.8343,-0.8617,-0.8697,-0.8531,-0.8645,-0.8384,-0.7688,-0.6917,-0.6193,0.0,0.0,0.0,0.0,0.0,0.0,0.0,0.0,0.0,0.0,0.0,0.0,0.0,0.0,0.0,0.0,0.0,0.0,0.0,0.0,0.0,0.0,0.0,-0.3799,0.0,0.0,0.0,0.0,0.0,0.0,0.0,0.0,0.0,-0.5669,-0.6357,-0.7074,-0.752,-0.7635,-0.7852,-0.8231,0.0,0.0,0.0,0.0,0.0,0.0,0.0,-0.7973,-0.7852,-0.7834,-0.787,-0.7943,-0.825,-0.8393,-0.8303,0.0,0.0,-0.6935,-0.6775,-0.6784,-0.6784,-0.6995,-0.7176,-0.7176,-0.7442,-0.7641,0.0,0.0,0.0,0.0,-0.5129,0.0,0.0,0.0,-0.5651,-0.5525,0.0,-0.5126,0.0,0.0,0.0,0.0,-0.4035,-0.499,0.0,0.0,-0.7175,-0.7677,-0.7415,-0.7426,-0.7431,-0.7426,-0.7421,-0.7003,-0.625,-0.5586,0.0,0.0,0.0,0.0,0.0,0.0,-0.6198,-0.6767,-0.7908,-0.8511,-0.8506,-0.8576,-0.8457,-0.8253,-0.8091,-0.8094,-0.8353,-0.76,-0.7109,-0.6985,-0.5664,0.0,0.0,0.0,0.0,0.0,0.0,0.0,0.0,0.0,0.0,0.0,0.0,0.0,0.0,0.0,0.0,0.0,0.0,0.0,0.0,-0.3846,0.0,0.0,0.0,0.0,0.0,0.0,0.0,0.0,0.0,-0.686,-0.6854,-0.7303,-0.7814,-0.8207,0.0,0.0,0.0,0.0,-0.7937,-0.7961,-0.7937,-0.7943,-0.7955,-0.8153,-0.8303,-0.8297,0.0,0.0,-0.8729,-0.8693,-0.8639,-0.8387,-0.8759,-0.9059,-0.8711,-0.8405,-0.8267,-0.8261,-0.8075,-0.7949,-0.7955,-0.8027,-0.8039,-0.6685,0.0,0.0,0.0,0.0,-0.5894,-0.6087,-0.6546,-0.6608,-0.6428,-0.611,-0.6134,0.0,0.0,0.0,0.0,0.0,0.0,-0.6157,-0.6556,-0.7266,-0.7735,-0.7957,-0.8124,-0.8215,-0.821,-0.821,-0.8072,-0.7866,-0.7471,-0.6404,-0.4819,0.0,0.0,0.0,0.0,-0.7218,-0.7966,-0.8804,-0.9204,-0.921,-0.9466,-0.9506,-0.9282,-0.8801,-0.8622,-0.8691,-0.8255,-0.784,-0.7368,-0.6941,0.0,0.0,0.0,0.0,0.0,0.0,0.0,0.0,0.0,0.0,0.0,0.0,0.0,0.0,0.0,0.0,0.0,0.0,0.0,-0.3882,-0.4227,-0.4481,0.0,0.0,0.0,0.0,0.0,0.0,0.0,0.0,0.0,-0.7894,-0.8021,-0.8172,0.0,0.0,-0.8411,-0.8303,-0.8387,-0.8525,-0.8764,-0.8579,0.0,-0.8705,-0.8697,-0.8567,-0.8567,-0.8849,-0.9101,-0.8968,-0.9118,-0.9226,-0.9154,-0.9262,-0.934,-0.9319,-0.9089,-0.8855,-0.8837,-0.8783,-0.8807,-0.8992,-0.9166,-0.9298,-0.7711,-0.7017,-0.6579,-0.6582,-0.6912,-0.6788,-0.706,-0.7516,-0.7617,-0.7488,-0.7226,-0.7228,-0.6918,-0.6304,-0.6032,0.0,0.0,0.0,-0.689,-0.7412,-0.7728,-0.8037,-0.8301,-0.8441,-0.8517,-0.8517,-0.8517,-0.8506,-0.8548,-0.8421,-0.7544,-0.6028,0.0,-0.6051,-0.6714,-0.7232,-0.7907,-0.8618,-0.9168,-0.9518,-0.9518,-0.9722,-0.9768,-0.9636,-0.933,-0.9054,-0.8937,-0.8816,-0.8515,-0.8023,-0.7701,-0.6987,0.0,0.0,0.0,0.0,0.0,0.0,0.0,0.0,0.0,0.0,0.0,-0.436,-0.365,0.0,0.0,0.0,-0.409,-0.4416,-0.4761,-0.5004,0.0,0.0,0.0,0.0,0.0,0.0,0.0,-0.7532,-0.8128,-0.8616,-0.8782,-0.88,-0.886,-0.892,-0.8962,-0.898,-0.892,0.0,-0.901,-0.912,-0.8993,-0.8849,-0.8963,-0.8926,-0.8957,-0.9118,-0.928,-0.9494,-0.9596,-0.9688,-0.9784,-0.979,-0.9796,-0.979,-0.9784,-0.9646,-0.9502,-0.9406,-0.9446,-0.9478,-0.9736,-0.9922,-1.0097,-0.8624,-0.8537,-0.7747,-0.755,-0.7731,-0.7793,-0.8048,-0.8511,-0.8511,-0.8517,-0.8501,-0.8274,-0.7998,-0.7535,-0.6889,0.0,-0.7239,-0.7462,-0.7791,-0.8245,-0.8409,-0.8517,-0.8517,-0.8517,-0.8517,-0.8517,-0.8517,-0.8582,-0.863,-0.8731,-0.8499,-0.7963,-0.7477,-0.7547,-0.8117,-0.8108,-0.8368,-0.8924,-0.9345,-0.9582,-0.9582,-0.9588,-0.9592,-0.964,-0.9633,-0.9498,-0.9256,-0.9196,-0.9118,-0.8838,-0.8029,-0.7587,-0.7466,0.0,0.0,0.0,0.0,0.0,0.0,0.0,0.0,0.0,0.0,0.0,0.0,0.0,0.0,0.0,-0.5225,0.0,-0.6044,-0.6017,0.0,0.0,0.0,-0.6344,-0.7252,-0.7654,-0.8113,-0.8795,0.0,0.0,-0.9577,-0.9708,-0.9799,-1.0001,-0.9771,-0.9622,-0.9838,-0.9735,-0.9448,-0.9264,-0.9198,-0.9046,-0.8873,-0.9059,-0.9298,-0.9784,-0.9952,-0.997,-1.0224,-1.029,-1.0251,-1.0297,-1.0327,-1.0315,-1.0327,-1.0284,-1.026,-0.9964,-0.9904,-1.0037,-1.0236,-1.0327,-1.0293,-0.9583,-0.9583,-0.9378,-0.888,-0.8302,-0.8297,-0.8393,-0.8517,-0.8517,-0.8517,-0.8506,-0.8458,-0.8398,-0.8281,-0.8101,-0.808,-0.8195,-0.8254,-0.8313,-0.8431,-0.849,-0.8517,-0.8517,-0.8517,-0.8641,-0.8894,-0.8894,-0.9017,-0.9268,-0.9267,-0.934,-0.9468,-0.8842,-0.8591,-0.8634,-0.8812,-0.9321,-1.0161,-1.0299,-1.0364,-1.0358,-1.0301,-1.0227,-1.0005,-0.9992,-0.9827,-0.9593,-0.9359,-0.915,-0.9077,-0.8724,-0.8176,-0.754,-0.6478,0.0,0.0,0.0,0.0,0.0,0.0,0.0,0.0,0.0,-0.528,-0.3917,0.0,-0.5054,0.0,-0.569,-0.6282,-0.6509,-0.6536,0.0,0.0,-0.6949,-0.7209,-0.8221,-0.8499,-0.8743,-0.9289,-0.9706,-1.0018,-1.0019,-1.0698,-1.1102,-1.0955,-1.0447,-1.0091,-0.9904,-1.0,-1.0049,-0.9736,-0.967,-0.9586,-0.9352,-0.9514,-0.979,-0.985,-1.0103,-1.0254,-1.0321,-1.0333,-1.0333,-1.0333,-1.0333,-1.0333,-1.0345,-1.0333,-1.0399,-1.0484,-1.0311,-1.0185,-1.0321,-1.0484,-1.0628,-0.9922,-0.9922,-0.9922,-0.9491,-0.8824,-0.8824,-0.8824,-0.8807,-0.8603,-0.8517,-0.8517,-0.8517,-0.8517,-0.8517,-0.8517,-0.8517,-0.8517,-0.8517,-0.8517,-0.8517,-0.8517,-0.8517,-0.8517,-0.8517,-0.87,-0.9022,-0.9022,-0.9139,-0.9518,-0.9652,-0.9652,-0.9536,-0.9338,-0.9127,-0.893,-0.9178,-0.9756,-1.0555,-1.0618,-1.0618,-1.0618,-1.0618,-1.0421,-1.0134,-1.012,-0.9853,-0.9312,-0.9132,-0.8925,-0.8619,-0.8453,-0.819,-0.7689,-0.6834,-0.6132,0.0,0.0,0.0,0.0,0.0,0.0,0.0,0.0,0.0,0.0,0.0,-0.5603,-0.5437,-0.6304,-0.6875,-0.6891,-0.7176,-0.7573,-0.8121,-0.8192,-0.8601,-0.9641,-0.9729,-0.9838,-1.0287,-1.049,-1.07,-1.0771,-1.1323,-1.1742,-1.1816,-1.1643,-1.1253,-1.0833,-1.0876,-1.0756,-1.0182,-1.0048,-0.9952,-0.9694,-0.9874,-1.0194,-1.0633,-1.0864,-1.0963,-1.1177,-1.1171,-1.1068,-1.0821,-1.0805,-1.0892,-1.0677,-1.0677,-1.0731,-1.0822,-1.0779,-1.0689,-1.0677,-1.0791,-1.0894,-1.01,-1.0105,-1.0105,-0.9788,-0.9403,-0.941,-0.9287,-0.9087,-0.8689,-0.8549,-0.8608,-0.8667,-0.8694,-0.8689,-0.8624,-0.8603,-0.8597,-0.8538,-0.8517,-0.8517,-0.8517,-0.8517,-0.8517,-0.8517,-0.87,-0.9081,-0.9081,-0.9268,-0.9652,-0.9913,-0.9664,-0.9145,-0.9326,-0.9332,-0.9075,-0.9332,-0.9779,-1.0498,-1.0561,-1.0618,-1.0618,-1.0591,-1.0381,-1.0134,-1.008,-0.9744,-0.8958,-0.8911,-0.8655,-0.8083,-0.8043,-0.8014,-0.8028,-0.7248,-0.6774,0.0,-0.5992,0.0,0.0,0.0,0.0,0.0,0.0,0.0,0.0,-0.6206,-0.6155,-0.6202,-0.6961,-0.7478,-0.7322,-0.7936,-0.8604,-0.9202,-0.9499,-1.0093,-1.0922,-1.0924,-1.101,-1.1385,-1.1291,-1.1315,-1.1534,-1.1859,-1.2261,-1.2562,-1.2791,-1.2583,-1.1992,-1.1808,-1.1489,-1.0615,-1.0453,-1.0387,-1.0212,-1.0333,-1.0867,-1.1656,-1.187,-1.2039,-1.2344,-1.2418,-1.2183,-1.1621,-1.1594,-1.1658,-1.1289,-1.1214,-1.1214,-1.1232,-1.1226,-1.119,-1.1174,-1.1143,-1.1186,-1.1079,-1.1079,-1.1079,-1.0863,-1.0668,-1.045,-0.9707,-0.8641,-0.8549,-0.8721,-0.9098,-0.9486,-0.9653,-0.962,-0.9249,-0.9071,-0.9055,-0.8684,-0.8517,-0.8517,-0.8517,-0.8517,-0.8517,-0.8517,-0.8829,-0.939,-0.939,-0.9716,-1.0364,-1.011,-0.9919,-0.9792,-0.9338,-0.9204,-0.9396,0.0,0.0,0.0,-1.0434,-1.0618,-1.0548,-1.0321,-1.0174,-1.0114,-1.0116,0.0,-0.9501,-0.9535,-0.9314,-0.8903,-0.8741,0.0,0.0,0.0,0.0,0.0,0.0,0.0,0.0,0.0,0.0,0.0,-0.7008,-0.69,-0.6444,-0.6848,-0.7127,-0.7143,-0.7693,-0.8218,-0.856,-0.8963,-0.9439,-0.9955,-1.0331,-1.0701,-1.1077,-1.1039,-1.1205,-1.1626,-1.1828,-1.2056,-1.2317,-1.2855,-1.3178,-1.31,-1.3382,-1.3382,-1.2746,-1.2531,-1.2176,-1.1423,-1.1069,-1.0942,-1.09,-1.1391,-1.1803,-1.2145,-1.2641,-1.2999,-1.3071,-1.3077,-1.2928,-1.2415,-1.242,-1.2296,-1.1836,-1.1775,-1.1733,-1.1763,-1.1757,-1.1714,-1.1583,-1.1564,-1.1706,-1.0992,-1.0997,-1.0997,-1.0781,0.0,-1.0495,-0.994,-0.9071,-0.9141,-0.934,-0.9572,-0.9814,-0.9922,-0.9895,-0.9416,-0.9206,-0.9184,-0.8727,-0.8517,-0.8517,-0.8517,-0.8517,-0.8517,-0.8705,-0.9017,-0.9518,-0.9652,-0.9919,-1.0308,-1.0117,-0.9849,-0.9472,-0.9145,-0.9017,-0.9017,-0.9139,-0.9466,-0.9983,-1.0364,-1.0618,-1.0618,-1.0414,-1.0383,-1.0363,-1.0384,0.0,0.0,0.0,0.0,0.0,0.0,0.0,0.0,0.0,0.0,-0.8506,-0.8107,-0.7988,-0.816,-0.8273,-0.8383,-0.841,-0.8444,-0.8072,-0.7171,-0.7634,-0.8034,-0.8215,-0.8606,-0.8989,-0.9432,-0.9822,-1.0295,-1.0767,-1.1058,-1.134,-1.162,-1.1834,-1.1992,-1.2244,-1.2555,-1.2746,-1.2837,-1.3233,-1.3554,-1.3567,-1.3858,-1.394,-1.3526,-1.3052,-1.2457,-1.1648,-1.1153,-1.1103,-1.1468,-1.1778,-1.2406,-1.2916,-1.3307,-1.3573,-1.3852,-1.3588,-1.3218,-1.2778,-1.2608,-1.2399,-1.2006,-1.1926,-1.1926,-1.1926,-1.2074,-1.2318,-1.2395,-1.2273,-1.2222,-1.0641,-1.0733,-1.0733,-1.0434,-1.0023,-1.0269,-1.022,-0.9937,-1.0007,0.0,0.0,-1.0132,-1.0169,-1.0137,-0.9674,-0.9459,-0.9427,-0.8974,-0.8721,-0.8635,-0.8706,-0.8657,-0.8646,-0.8952,-0.9268,-0.9582,-0.9856,-0.9989,-0.9983,-0.9919,-0.9594,-0.9017,-0.8958,-0.877,-0.8576,-0.9081,-0.9588,-0.9919,-1.0371,-1.0618,-1.0618,-1.0571,-1.0492,-1.0537,-1.0481,-1.0363,-1.0086,-0.9895,-0.9617,-0.9376,-0.9092,-0.8985,-0.9038,-0.9038,-0.9065,-0.9112,-0.9118,-0.9325,-0.9806,-0.9603,-0.9624,-0.9958,-0.9652,-0.9086,-0.8182,-0.8469,-0.8765,-0.9081,-0.9377,-0.974,-1.0062,-1.0569,-1.1056,-1.1512,-1.1723,-1.2019,-1.2397,-1.2672,-1.2826,-1.2936,-1.31,-1.3287,-1.33,-1.354,-1.3714,-1.3981,-1.413,-1.423,-1.4021,-1.3346,-1.2612,-1.1921,-1.1522,-1.1474,-1.2029,-1.2332,-1.2787,-1.3729,-1.3865,-1.3954,-1.4315,-1.3978,-1.3392,-1.2956,-1.2644,-1.2382,-1.1996,-1.1944,-1.1903,-1.1978,-1.2376,-1.2772,-1.3173,-1.3173,-1.3061,-1.0641,-1.0733,-1.0733,-1.0519,-1.0292,-1.0737,-1.0958,-1.1032,-1.0632,-1.0455,-1.0557,-1.0972,-1.1064,-1.1122,-1.0649,-1.0433,-1.0401,-0.9938,-0.9502,-0.9114,-0.9391,-0.9304,-0.8964,-0.9268,-0.9588,-0.9919,-0.9983,-0.9989,-0.9983,-0.9716,-0.9396,-0.9022,-0.8705,-0.8576,-0.8511,-0.8888,-0.9268,-0.9582,-1.0231,-1.0618,-1.0618,-1.0307,-1.016,-1.0167,-1.0175,-1.003,-0.9687,-0.9932,-0.9862,-0.9576,-0.9581,-0.9673,-0.9913,-0.992,-1.0047,-1.0349,-1.0369,-1.0347,-1.049,-1.0434,-1.0279,-1.004,-0.9722,-0.9418,-0.9295,-0.9348,-0.9396,-0.9466,-0.9777,-1.0019,-1.0248,-1.0916,-1.1516,-1.1998,-1.2424,-1.2786,-1.3019,-1.3106,-1.3146,-1.3153,-1.3394,-1.3506,-1.3607,-1.3828,-1.3995,-1.4099,-1.4119,-1.4075,-1.3724,-1.3165,-1.2759,-1.2548,-1.2512,-1.2673,-1.2964,-1.3484,-1.3684,-1.4001,-1.4323,-1.4455,-1.4634,-1.4276,-1.3751,-1.3361,-1.2931,-1.2463,-1.2064,-1.202,-1.2053,-1.2277,-1.2692,-1.322,-1.3805,-1.4047,-1.4309,-1.0294,-1.0299,-1.0299,-1.0294,-1.012,-1.0472,-1.0824,-1.1073,-1.0868,-1.0858,-1.0963,-1.1177,-1.1267,-1.1311,-1.0848,-1.0719,-1.0939,-1.0522,-1.0176,-0.9963,-1.0109,-0.9913,-0.9462,-0.9691,-0.9939,-1.0008,-1.0238,-1.0104,-0.9716,-0.9588,-0.9268,-0.8765,-0.8576,-0.8517,-0.8576,-0.9017,-0.9332,-0.9518,-1.004,-1.0371,-1.0561,-1.0428,-1.0478,-1.0664,-1.0641,-1.0696,-1.0666,-1.0682,-1.0569,-1.0429,-1.0261,-1.0221,-1.0347,-1.0354,-1.0414,-1.0611,-1.0618,-1.0618,-1.0618,-1.0618,-1.0498,-1.0371,-1.0168,-1.0104,-1.011,-0.9716,-0.9649,-0.9996,-1.0317,-1.066,-1.1153,-1.1788,-1.2234,-1.249,-1.2815,-1.3053,-1.3193,-1.3367,-1.344,-1.3467,-1.3701,-1.3881,-1.3881,-1.4008,-1.4088,-1.4088,-1.4088,-1.4004,-1.3652,-1.3307,-1.296,-1.2705,-1.2363,-1.2454,-1.3058,-1.3313,-1.3561,-1.4159,-1.4328,-1.4489,-1.4573,-1.4314,-1.3808,-1.3476,-1.3052,-1.254,-1.2123,-1.2209,-1.2369,-1.2534,-1.3137,-1.3743,-1.4088,-1.4412,-1.4662,-1.0207,-1.012,-1.0125,-1.012,-1.0125,-1.0212,-1.0564,-1.1008,-1.0916,-1.1089,-1.1429,-1.1348,-1.1267,-1.1225,-1.1039,-1.1122,-1.1398,-1.1201,-1.0958,-1.0772,-1.0924,-1.065,-1.0101,-1.0317,-1.0442,-1.0315,-1.05,-1.0231,-0.9582,-0.9518,-0.9268,-0.8765,-0.8705,-0.8705,-0.877,-0.939,-0.9709,-0.964,-1.004,-1.0364,-1.0561,-1.0618,-1.0751,-1.094,-1.0996,-1.1122,-1.131,-1.1122,-1.0996,-1.0996,-1.0751,-1.0618,-1.0618,-1.0618,-1.0618,-1.0618,-1.0618,-1.0618,-1.0618,-1.0618,-1.0618,-1.0618,-1.0618,-1.0618,-1.0561,-1.0162,-1.0018,-1.052,-1.0844,-1.1259,-1.1786,-1.2385,-1.2849,-1.2846,-1.3126,-1.3347,-1.342,-1.3614,-1.3748,-1.3768,-1.3955,-1.4082,-1.4088,-1.4088,-1.4088,-1.4088,-1.4088,-1.3913,-1.3652,-1.3483,-1.3222,-1.2881,-1.2381,-1.2466,-1.3052,-1.3137,-1.3476,-1.423,-1.4243,-1.425,-1.4412,-1.4068,-1.3561,-1.3222,-1.296,-1.2534,-1.2118,-1.2375,-1.2619,-1.279,-1.3392,-1.3997,-1.425,-1.4496,-1.4761,-1.0895,-1.0549,-1.0549,-1.0463,-1.0294,-1.012,-1.0472,-1.1003,-1.0733,-1.1154,-1.1843,-1.151,-1.1354,-1.1348,-1.1707,-1.1918,-1.2008,-1.2318,-1.204,-1.1398,-1.2007,-1.1874,-1.1027,-1.1192,-1.1259,-1.1195,-1.0808,-1.0231,-0.9588,-0.9512,-0.946,-0.939,-0.939,-0.939,-0.946,-1.0078,-1.0268,-0.9952,-1.0598,-1.08,-1.0624,-1.0618,-1.0624,-1.0624,-1.0624,-1.0624,-1.0751,-1.0681,-1.0624,-1.0624,-1.0624,-1.0618,-1.0618,-1.0618,-1.0618,-1.0618,-1.0618,-1.0618,-1.0618,-1.0618,-1.0618,-1.0618,-1.0618,-1.0618,-1.0631,-1.0737,-1.089,-1.1002,-1.1208,-1.1507,-1.1864,-1.2499,-1.2879,-1.3146,-1.3434,-1.3707,-1.3915,-1.4035,-1.4048,-1.4048,-1.4062,-1.4088,-1.4088,-1.4088,-1.4088,-1.4088,-1.4088,-1.4082,-1.4004,-1.3691,-1.3442,-1.3332,-1.3241,-1.3247,-1.3404,-1.3743,-1.3828,-1.4082,-1.4088,-1.4173,-1.4082,-1.3822,-1.3307,-1.3137,-1.2875,-1.2619,-1.2357,-1.2363,-1.2796,-1.3052,-1.3483,-1.3906,-1.4489,-1.4657,-1.4789,-1.1063,-1.0636,-1.0895,-1.1068,-1.1068,-1.1068,-1.1332,-1.1768,-1.1763,-1.1929,-1.2363,-1.2192,-1.2106,-1.2106,-1.2363,-1.2534,-1.2875,-1.3052,-1.294,-1.2563,-1.2883,-1.2588,-1.1964,-1.1636,-1.1501,-1.1396,-1.1036,-1.0611,-1.0161,-1.0085,-1.0078,-1.0078,-1.0078,-1.0078,-1.0142,-1.0591,-1.0724,-1.0598,-1.1115,-1.1303,-1.1185,-1.1192,-1.1185,-1.1185,-1.1185,-1.1192,-1.1185,-1.1185,-1.1129,-1.0933,-1.0877,-1.0814,-1.0624,-1.0618,-1.0618,-1.0618,-1.0618,-1.0618,-1.0618,-1.0618,-1.0618,-1.0618,-1.0618,-1.0618,-1.0631,-1.0828,-1.1122,-1.147,-1.1617,-1.187,-1.2338,-1.2772,-1.3133,-1.344,-1.3728,-1.3955,-1.4062,-1.4088,-1.4088,-1.4088,-1.4088,-1.4088,-1.4088,-1.4088,-1.4088,-1.4088,-1.4095,-1.4115,-1.4102,-1.4051,-1.3985,-1.3751,-1.4041,-1.3983,-1.3579,-1.3568,-1.3828,-1.4004,-1.4088,-1.4088,-1.4088,-1.4004,-1.3652,-1.3222,-1.3137,-1.296,-1.2534,-1.279,-1.3137,-1.3398,-1.3659,-1.4082,-1.4482,-1.4405,-1.4496,-1.1608,-1.1252,-1.1369,-1.1473,-1.1591,-1.1671,-1.1929,-1.2277,-1.2363,-1.2619,-1.2881,-1.2875,-1.296,-1.3045,-1.296,-1.3052,-1.3392,-1.3568,-1.3483,-1.3398,-1.3483,-1.3342,-1.2917,-1.2447,-1.2178,-1.1943,-1.1685,-1.1227,-1.0701,-1.0528,-1.0577,-1.071,-1.0773,-1.0773,-1.0836,-1.1163,-1.1365,-1.1178,-1.1622,-1.1879,-1.1872,-1.1872,-1.1817,-1.163,-1.1622,-1.1622,-1.1622,-1.1622,-1.1505,-1.1247,-1.1254,-1.1059,-1.0751,-1.0814,-1.087,-1.0877,-1.0688,-1.0618,-1.0751,-1.0624,-1.0618,-1.0631,-1.0692,-1.0681,-1.0742,-1.1015,-1.1443,-1.1897,-1.2064,-1.2412,-1.2799,-1.3146,-1.342,-1.3634,-1.3908,-1.4082,-1.4088,-1.4088,-1.4088,-1.4088,-1.4088,-1.4088,-1.4102,-1.4162,-1.4222,-1.4222,-1.4289,-1.4329,-1.4349,-1.4516,-1.4467,-1.4197,-1.4645,-1.4546,-1.3786,-1.3703,-1.3841,-1.3919,-1.4088,-1.4088,-1.4088,-1.4088,-1.3913,-1.3398,-1.3476,-1.3392,-1.3052,-1.3222,-1.3568,-1.3652,-1.3828,-1.4082,-1.4237,-1.4166,-1.4166,-1.3115,-1.2609,-1.1953,-1.1636,-1.1413,-1.1682,-1.1849,-1.2186,-1.2363,-1.279,-1.3307,-1.3392,-1.3659,-1.4004,-1.3561,-1.3392,-1.3483,-1.3828,-1.3828,-1.3561,-1.3913,-1.4062,-1.3981,-1.3835,-1.3613,-1.3273,-1.2716,-1.1985,-1.108,-1.0717,-1.0843,-1.1421,-1.1483,-1.1483,-1.1545,-1.212,-1.2182,-1.1677,-1.2182,-1.2506,-1.2498,-1.2498,-1.2251,-1.1747,-1.1622,-1.1622,-1.1622,-1.1622,-1.1622,-1.1567,-1.156,-1.1435,-1.1122,-1.1373,-1.1505,-1.1435,-1.094,-1.0751,-1.1003,-1.0807,-1.0631,-1.0665,-1.0802,-1.0969,-1.1009,-1.145,-1.1891,-1.2251,-1.26,-1.2896,-1.318,-1.3427,-1.3607,-1.3681,-1.3921,-1.4068,-1.4088,-1.4088,-1.4088,-1.4088,-1.4088,-1.4088,-1.4095,-1.4329,-1.4436,-1.4516,-1.4716,-1.487,-1.4843,-1.4903,-1.4943,-1.495,-1.4963,-1.4774,-1.4044,-1.3989,-1.4157,-1.4229,-1.4148,-1.4088,-1.4088,-1.4088,-1.3828,-1.3659,-1.3828,-1.3828,-1.3568,-1.3652,-1.3913,-1.3997,-1.3997,-1.4166,-1.4159,-1.4166,-1.4166,-1.3423,-1.3235,-1.296,-1.2856,-1.2877,-1.3045,-1.3127,-1.3313,-1.3476,-1.3652,-1.3828,-1.3828,-1.4075,-1.4496,-1.4321,-1.4075,-1.3913,-1.4328,-1.4405,-1.4314,-1.4734,-1.4901,-1.4913,-1.4504,-1.4263,-1.4065,-1.3312,-1.2649,-1.2119,-1.1926,-1.1988,-1.2182,-1.2182,-1.2182,-1.2243,-1.2436,-1.2436,-1.2243,-1.249,-1.2621,-1.2621,-1.2621,-1.2498,-1.2251,-1.2251,-1.2243,-1.2259,-1.2251,-1.2127,-1.1934,-1.1934,-1.1747,-1.1498,-1.156,-1.1622,-1.156,-1.1373,-1.131,-1.1373,-1.1129,-1.1023,-1.1145,-1.1053,-1.1089,-1.1283,-1.1643,-1.2136,-1.2587,-1.2866,-1.3233,-1.3621,-1.3707,-1.3796,-1.4227,-1.4183,-1.425,-1.4412,-1.425,-1.4088,-1.4088,-1.4088,-1.4088,-1.4162,-1.4349,-1.4509,-1.4549,-1.4783,-1.4957,-1.501,-1.511,-1.5237,-1.5277,-1.5391,-1.5319,-1.4936,-1.4533,-1.4462,-1.4355,-1.4262,-1.4135,-1.4088,-1.4088,-1.3913,-1.3913,-1.4004,-1.4004,-1.3828,-1.3828,-1.4088,-1.4088,-1.4088,-1.4088,-1.4088,-1.4166,-1.425,-1.3713,-1.3646,-1.3738,-1.3705,-1.3655,-1.3811,-1.3911,-1.3926,-1.3997,-1.4166,-1.425,-1.425,-1.4573,-1.4901,-1.4901,-1.4741,-1.458,-1.4817,-1.4901,-1.4977,-1.5228,-1.5484,-1.5501,-1.5204,-1.4956,-1.4721,-1.3753,-1.3134,-1.2901,-1.2733,-1.2629,-1.256,-1.2621,-1.2621,-1.2621,-1.2621,-1.2621,-1.2621,-1.2621,-1.2621,-1.2621,-1.2621,-1.2621,-1.2621,-1.2621,-1.2621,-1.2621,-1.2621,-1.2506,-1.2313,-1.2243,-1.2189,-1.1934,-1.1685,-1.1685,-1.1872,-1.1692,-1.1685,-1.1685,-1.1373,-1.1192,-1.1486,-1.1288,-1.1249,-1.1543,-1.1924,-1.2446,-1.2826,-1.3173,-1.3567,-1.3901,-1.3901,-1.4027,-1.4531,-1.4412,-1.4496,-1.481,-1.4741,-1.4496,-1.4348,-1.4273,-1.4222,-1.4275,-1.4589,-1.4776,-1.4803,-1.5057,-1.5231,-1.5277,-1.5391,-1.5531,-1.5545,-1.5678,-1.5691,-1.5398,-1.5053,-1.4696,-1.4536,-1.4282,-1.4155,-1.4088,-1.4088,-1.4088,-1.4088,-1.4088,-1.4088,-1.4088,-1.4088,-1.4088,-1.4088,-1.4088,-1.4088,-1.4166,-1.425,-1.4412,-1.4135,-1.4017,-1.4198,-1.3908,-1.3496,-1.3988,-1.395,-1.3749,-1.4037,-1.4467,-1.4719,-1.4748,-1.4985,-1.5318,-1.5401,-1.5401,-1.5394,-1.5477,-1.5394,-1.5394,-1.5477,-1.5741,-1.6072,-1.6011,-1.579,-1.5573,-1.4315,-1.3656,-1.3568,-1.2996,-1.2733,-1.2677,-1.2653,-1.2621,-1.2621,-1.2621,-1.2621,-1.2621,-1.2621,-1.2621,-1.2621,-1.2621,-1.2621,-1.2621,-1.2621,-1.2621,-1.2621,-1.2621,-1.256,-1.256,-1.2567,-1.2621,-1.2436,-1.1996,-1.1872,-1.2313,-1.1996,-1.1809,-1.1996,-1.1567,-1.1326,-1.1535,-1.1451,-1.1654,-1.1948,-1.2499,-1.2952,-1.327,-1.3581,-1.3837,-1.4169,-1.4223,-1.43,-1.4657,-1.4573,-1.4734,-1.5228,-1.5401,-1.5235,-1.4888,-1.4679,-1.4502,-1.4636,-1.4957,-1.5244,-1.5317,-1.5524,-1.5705,-1.5685,-1.5732,-1.5798,-1.5798,-1.5805,-1.5778,-1.5691,-1.5551,-1.5097,-1.4696,-1.4382,-1.4162,-1.4102,-1.4088,-1.4088,-1.4088,-1.4088,-1.4088,-1.4088,-1.4088,-1.4088,-1.4088,-1.4088,-1.4166,-1.4328,-1.4412,-1.4657,-1.4345,-1.4469,-1.4564,-1.4546,-1.4403,-1.4657,-1.4854,-1.4919,-1.4902,-1.5141,-1.5439,-1.5238,-1.5409,-1.5824,-1.5914,-1.5989,-1.6312,-1.6312,-1.6154,-1.5989,-1.6154,-1.6319,-1.6492,-1.6492,-1.6204,-1.5721,-1.5261,-1.476,-1.4252,-1.36,-1.3332,-1.3195,-1.2782,-1.2637,-1.2621,-1.2621,-1.2621,-1.2621,-1.2621,-1.2621,-1.2621,-1.2621,-1.2621,-1.2621,-1.2621,-1.2621,-1.2621,-1.2621,-1.2621,-1.2621,-1.2621,-1.2621,-1.256,-1.2375,-1.2375,-1.256,-1.2436,-1.2313,-1.2375,-1.2081,-1.1865,-1.2042,-1.213,-1.2297,-1.2625,-1.3191,-1.3717,-1.3959,-1.4344,-1.465,-1.4906,-1.4985,-1.4901,-1.4734,-1.4489,-1.4657,-1.5333,-1.5584,-1.5631,-1.5597,-1.5416,-1.532,-1.5315,-1.547,-1.5404,-1.5444,-1.5651,-1.5818,-1.5825,-1.5825,-1.5825,-1.5825,-1.5825,-1.5825,-1.5752,-1.5645,-1.5337,-1.497,-1.4643,-1.4302,-1.4208,-1.4148,-1.4135,-1.4088,-1.4088,-1.4088,-1.4088,-1.4088,-1.4088,-1.4088,-1.4173,-1.425,-1.4489,-1.4741,-1.4992,-1.4592,-1.4885,-1.4975,-1.4929,-1.4963,-1.5126,-1.5349,-1.5444,-1.5504,-1.5655,-1.5863,-1.5881,-1.6005,-1.6268,-1.6327,-1.6492,-1.6648,-1.673,-1.6574,-1.6409,-1.6574,-1.673,-1.673,-1.673,-1.654,-1.6095,-1.5801,-1.5459,-1.5014,-1.4331,-1.3839,-1.3529,-1.3147,-1.2861,-1.2661,-1.2621,-1.2621,-1.2621,-1.2621,-1.2621,-1.2621,-1.2621,-1.2621,-1.2621,-1.2621,-1.2621,-1.2621,-1.2621,-1.2621,-1.2621,-1.2621,-1.2621,-1.2621,-1.2621,-1.2621,-1.2621,-1.2621,-1.2629,-1.2575,-1.2383,-1.2398,-1.255,-1.2696,-1.2851,-1.315,-1.3775,-1.4245,-1.4372,-1.4853,-1.5182,-1.535,-1.5394,-1.5228,-1.4977,-1.4992,-1.5082,-1.5612,-1.594,-1.6026,-1.595,-1.6001,-1.6045,-1.5889,-1.5908,-1.5731,-1.5685,-1.5712,-1.5825,-1.5825,-1.5825,-1.5825,-1.5825,-1.5825,-1.5825,-1.5812,-1.5691,-1.5538,-1.5251,-1.495,-1.4616,-1.4382,-1.4335,-1.4309,-1.4142,-1.4088,-1.4088,-1.4088,-1.4088,-1.4088,-1.4173,-1.425,-1.4412,-1.4657,-1.5166,-1.5499,-1.4981,-1.5172,-1.5452,-1.5425,-1.5224,-1.5556,-1.5623,-1.5389,-1.5682,-1.6085,-1.6263,-1.6454,-1.6575,-1.6696,-1.6648,-1.6648,-1.673,-1.673,-1.673,-1.6648,-1.673,-1.673,-1.673,-1.673,-1.6683,-1.6555,-1.6071,-1.5793,-1.5697,-1.503,-1.4339,-1.3767,-1.3576,-1.3219,-1.2757,-1.2621,-1.2621,-1.2621,-1.2621,-1.2621,-1.2621,-1.2621,-1.2621,-1.2621,-1.2621,-1.2621,-1.2621,-1.2621,-1.2621,-1.2621,-1.2621,-1.2621,-1.2621,-1.2621,-1.2621,-1.2621,-1.2621,-1.2621,-1.2631,-1.2594,-1.2695,-1.2885,-1.3028,-1.3226,-1.3616,-1.4214,-1.4662,-1.471,-1.519,-1.5538,-1.5553,-1.556,-1.556,-1.556,-1.5741,-1.5922,-1.6118,-1.6392,-1.6543,-1.6312,-1.6544,-1.6788,-1.6422,-1.6486,-1.6317,-1.6082,-1.5994,-1.5913,-1.592,-1.592,-1.5825,-1.5825,-1.5825,-1.5825,-1.5818,-1.5792,-1.5651,-1.5538,-1.5251,-1.4937,-1.4529,-1.4409,-1.4329,-1.4175,-1.4166,-1.4166,-1.4173,-1.4166,-1.425,-1.425,-1.4412,-1.465,-1.5075,-1.5582,-1.5922,-1.5717,-1.648,-1.6574,-1.6536,-1.6287,-1.6447,-1.6484,-1.6473,-1.6365,-1.6607,-1.686,-1.6763,-1.6684,-1.6664,-1.673,-1.673,-1.673,-1.673,-1.673,-1.673,-1.673,-1.673,-1.673,-1.673,-1.673,-1.6683,-1.6508,-1.646,-1.6397,-1.5729,-1.5046,-1.4363,-1.3894,-1.3355,-1.2725,-1.2661,-1.2621,-1.2621,-1.2621,-1.2621,-1.2621,-1.2621,-1.2621,-1.2621,-1.2621,-1.2621,-1.2621,-1.2621,-1.2621,-1.2621,-1.2621,-1.2621,-1.2621,-1.2621,-1.2621,-1.2621,-1.2621,-1.2621,-1.2583,-1.2609,-1.2733,-1.2981,-1.3346,-1.3685,-1.4311,-1.4972,-1.5397,-1.574,-1.616,-1.6312,-1.6319,-1.6312,-1.6319,-1.6319,-1.6237,-1.6185,-1.6285,-1.6923,-1.7455,-1.7352,-1.7537,-1.7567,-1.7479,-1.7252,-1.7044,-1.6857,-1.6581,-1.6298,-1.6298,-1.6015,-1.592,-1.5825,-1.5825,-1.5825,-1.5825,-1.5825,-1.5798,-1.5765,-1.5545,-1.5349,-1.4865,-1.4355,-1.4242,-1.4095,-1.4419,-1.4412,-1.4419,-1.4334,-1.4412,-1.4657,-1.4985,-1.5311,-1.5575,-1.6004,-1.6245,-1.6473,-1.7124,-1.6993,-1.6945,-1.6832,-1.6684,-1.6703,-1.6877,-1.6885,-1.6914,-1.7056,-1.7016,-1.6873,-1.6746,-1.673,-1.673,-1.673,-1.673,-1.673,-1.673,-1.673,-1.673,-1.673,-1.673,-1.673,-1.673,-1.673,-1.6722,-1.6659,-1.6301,-1.5761,-1.5149,-1.4665,-1.3966,-1.3068,-1.2989,-1.2822,-1.2685,-1.2621,-1.2621,-1.2621,-1.2621,-1.2621,-1.2621,-1.2621,-1.2621,-1.2621,-1.2621,-1.2621,-1.2621,-1.2621,-1.2621,-1.2621,-1.2621,-1.2621,-1.2621,-1.2621,-1.2621,-1.2661,-1.2687,-1.2964,-1.3271,-1.3731,-1.4246,-1.4848,-1.5518,-1.6023,-1.6182,-1.6532,-1.6698,-1.673,-1.673,-1.673,-1.6648,-1.6492,-1.6306,-1.6346,-1.7181,-1.7715,-1.7799,-1.8092,-1.8272,-1.8179,-1.78,-1.7613,-1.7333,-1.7044,-1.677,-1.6588,-1.6298,-1.6109,-1.6015,-1.6015,-1.6109,-1.6204,-1.6204,-1.6298,-1.6278,-1.6241,-1.5978,-1.5369,-1.4809,-1.461,-1.4592,-1.4706,-1.4741,-1.4824,-1.4908,-1.5235,-1.5477,-1.5726,-1.5974,-1.6237,-1.6492,-1.6656,-1.7181,-1.7338,-1.7022,-1.6974,-1.7018,-1.6713,-1.6714,-1.6775,-1.698,-1.7032,-1.6857,-1.708,-1.6969,-1.6738,-1.673,-1.673,-1.673,-1.673,-1.673,-1.673,-1.673,-1.673,-1.673,-1.673,-1.673,-1.673,-1.673,-1.673,-1.6706,-1.6683,-1.6309,-1.5713,-1.5547,-1.4847,-1.3735,-1.3505,-1.3195,-1.2733,-1.2621,-1.2621,-1.2621,-1.2621,-1.2621,-1.2621,-1.2621,-1.2621,-1.2621,-1.2621,-1.2621,-1.2621,-1.2621,-1.2621,-1.2621,-1.2621,-1.2621,-1.2621,-1.2621,-1.2621,-1.2677,-1.2869,-1.3251,-1.3605,-1.4198,-1.4855,-1.5332,-1.5864,-1.619,-1.6317,-1.6563,-1.6706,-1.673,-1.673,-1.673,-1.6746,-1.668,-1.6711,-1.6838,-1.7408,-1.773,-1.7717,-1.8331,-1.8511,-1.8365,-1.8179,-1.7986,-1.7893,-1.7606,-1.7333,-1.7052,-1.6864,-1.6574,-1.6386,-1.6393,-1.6494,-1.6588,-1.6683,-1.677,-1.6943,-1.6993,-1.6755,-1.6083,-1.563,-1.5319,-1.5234,-1.5452,-1.5518,-1.556,-1.5726,-1.6057,-1.6221,-1.6312,-1.6558,-1.6812,-1.6984,-1.7147,-1.7508,-1.8014,-1.7768,-1.7431,-1.7235,-1.7132,-1.698,-1.6672,-1.6826,-1.6826,-1.677,-1.6826,-1.681,-1.673,-1.673,-1.673,-1.673,-1.673,-1.673,-1.673,-1.673,-1.673,-1.673,-1.673,-1.673,-1.673,-1.673,-1.673,-1.673,-1.6675,-1.6389,-1.5809,-1.5626,-1.5006,-1.387,-1.3688,-1.3251,-1.2757,-1.2615,-1.2717,-1.2693,-1.2693,-1.2669,-1.2629,-1.2621,-1.2621,-1.2621,-1.2621,-1.2621,-1.2621,-1.2621,-1.2621,-1.2621,-1.2621,-1.2621,-1.2621,-1.2621,-1.2621,-1.2693,-1.2933,-1.337,-1.3966,-1.4466,-1.4949,-1.5904,-1.6095,-1.6357,-1.654,-1.669,-1.673,-1.673,-1.673,-1.673,-1.677,-1.6976,-1.7262,-1.7486,-1.7723,-1.7873,-1.8198,-1.8514,-1.8735,-1.8643,-1.8643,-1.845,-1.845,-1.8172,-1.7893,-1.7613,-1.7333,-1.7138,-1.6943,-1.7138,-1.7232,-1.7333,-1.7426,-1.7613,-1.7699,-1.7857,-1.7934,-1.7326,-1.6892,-1.676,-1.6511,-1.6322,-1.6354,-1.6436,-1.6394,-1.664,-1.6812,-1.6894,-1.7057,-1.7302,-1.7392,-1.7473,-1.785,-1.8017,-1.7683,-1.7445,-1.727,-1.7104,-1.6913,-1.6754,-1.673,-1.673,-1.673,-1.673,-1.673,-1.673,-1.673,-1.673,-1.673,-1.673,-1.673,-1.673,-1.673,-1.673,-1.673,-1.673,-1.673,-1.673,-1.673,-1.673,-1.673,-1.6714,-1.6563,-1.6158,-1.5864,-1.5396,-1.4585,-1.4244,-1.395,-1.3688,-1.3529,-1.3402,-1.31,-1.3036,-1.2814,-1.2685,-1.2621,-1.2621,-1.2621,-1.2621,-1.2621,-1.2621,-1.2621,-1.2621,-1.2621,-1.2621,-1.2621,-1.2621,-1.2621,-1.2663,-1.2822,-1.3147,-1.3632,-1.4307,-1.4824,-1.5451,-1.6063,-1.6341,-1.6524,-1.6675,-1.673,-1.673,-1.673,-1.673,-1.673,-1.6802,-1.7064,-1.7413,-1.7707,-1.7914,-1.816,-1.847,-1.8716,-1.8804,-1.8827,-1.8827,-1.8735,-1.855,-1.8542,-1.8357,-1.8079,-1.7792,-1.7692,-1.7598,-1.7878,-1.7978,-1.8172,-1.8265,-1.845,-1.8627,-1.8772,-1.8983,-1.892,-1.8596,-1.837,-1.785,-1.7203,-1.7375,-1.7465,-1.7401,-1.7229,-1.7383,-1.7546,-1.7627,-1.7716,-1.7716,-1.7716,-1.7969,-1.7668,-1.7334,-1.7191,-1.7151,-1.6873,-1.6746,-1.673,-1.673,-1.673,-1.673,-1.673,-1.673,-1.673,-1.673,-1.673,-1.673,-1.673,-1.673,-1.673,-1.673,-1.673,-1.673,-1.673,-1.673,-1.673,-1.673,-1.673,-1.673,-1.6714,-1.6579,-1.6468,-1.6158,-1.561,-1.538,-1.511,-1.4657,-1.4458,-1.4324,-1.4252,-1.3767,-1.36,-1.3187,-1.2741,-1.2621,-1.2621,-1.2621,-1.2621,-1.2621,-1.2621,-1.2621,-1.2621,-1.2621,-1.2621,-1.2621,-1.2621,-1.2621,-1.271,-1.3036,-1.3441,-1.3966,-1.4601,-1.5348,-1.5872,-1.6269,-1.6524,-1.6659,-1.6706,-1.673,-1.673,-1.673,-1.673,-1.673,-1.6818,-1.7096,-1.7453,-1.7763,-1.812,-1.8502,-1.8708,-1.8788,-1.8819,-1.8827,-1.8827,-1.8827,-1.8827,-1.8827,-1.8727,-1.845,-1.8357,-1.835,-1.8434,-1.8719,-1.8896,-1.9096,-1.9096,-1.9279,-1.9371,-1.9546,-1.9712,-1.996,-1.9718,-1.9156,-1.8597,-1.8165,-1.8229,-1.8054,-1.7778,-1.7814,-1.7959,-1.7951,-1.787,-1.787,-1.7951,-1.7959,-1.7413,-1.7334,-1.6976,-1.6826,-1.6818,-1.6754,-1.673,-1.673,-1.673,-1.673,-1.673,-1.673,-1.673,-1.673,-1.673,-1.673,-1.673,-1.673,-1.673,-1.673,-1.673,-1.673,-1.673,-1.673,-1.673,-1.673,-1.673,-1.673,-1.673,-1.6714,-1.6516,-1.6111,-1.6246,-1.5991,-1.5404,-1.5173,-1.5197,-1.4975,-1.4806,-1.4728,-1.4434,-1.3854,-1.3322,-1.2773,-1.2685,-1.2621,-1.2621,-1.2621,-1.2621,-1.2621,-1.2621,-1.2621,-1.2653,-1.2653,-1.2701,-1.2717,-1.2733,-1.2861,-1.3314,-1.3775,-1.4363,-1.5038,-1.5729,-1.6238,-1.6547,-1.6601,-1.6722,-1.673,-1.673,-1.673,-1.673,-1.673,-1.673,-1.6873,-1.7262,-1.7668,-1.7858,-1.8279,-1.8692,-1.8812,-1.8827,-1.8827,-1.8827,-1.8827,-1.8827,-1.8827,-1.8827,-1.892,-1.8912,-1.8912,-1.9096,-1.9371,-1.9646,-1.9828,-2.0011,-2.0011,-2.0011,-1.992,-2.0011,-2.0011,-2.0184,-2.0184,-1.9822,-1.9138,-1.8759,-1.8684,-1.8471,-1.8147,-1.7985,-1.804,-1.8031,-1.8031,-1.8031,-1.8031,-1.8031,-1.7167,-1.6984,-1.6802,-1.673,-1.673,-1.673,-1.673,-1.673,-1.673,-1.673,-1.673,-1.673,-1.673,-1.673,-1.673,-1.673,-1.673,-1.673,-1.673,-1.673,-1.673,-1.673,-1.673,-1.673,-1.673,-1.673,-1.673,-1.673,-1.673,-1.673,-1.6492,-1.6317,-1.6277,-1.5975,-1.5753,-1.5674,-1.5753,-1.5586,-1.5581,-1.5459,-1.5054,-1.4164,-1.3402,-1.3132,-1.2805,-1.2637,-1.2621,-1.2621,-1.2621,-1.2621,-1.2621,-1.2629,-1.2741,-1.2964,-1.31,-1.3116,-1.3108,-1.3433,-1.4061,-1.4665,-1.5181,-1.5658,-1.6198,-1.6508,-1.6675,-1.673,-1.673,-1.673,-1.673,-1.673,-1.673,-1.673,-1.673,-1.6849,-1.735,-1.7707,-1.7922,-1.8438,-1.87,-1.8827,-1.8827,-1.8827,-1.8827,-1.8827,-1.8827,-1.8827,-1.8827,-1.9012,-1.9196,-1.9379,-1.9571,-1.9745,-1.9928,-2.011,-2.0292,-2.0292,-2.0292,-2.0292,-2.0292,-2.0292,-2.0292,-2.0292,-2.0061,-1.9562,-1.9316,-1.8973,-1.8751,-1.8468,-1.8254,-1.8031,-1.8031,-1.8031,-1.8031,-1.8031,-1.8031,-1.7,-1.673,-1.673,-1.673,-1.673,-1.673,-1.673,-1.673,-1.673,-1.673,-1.673,-1.673,-1.673,-1.673,-1.673,-1.673,-1.673,-1.673,-1.673,-1.673,-1.673,-1.673,-1.673,-1.673,-1.673,-1.673,-1.673,-1.673,-1.6706,-1.6619,-1.6571,-1.6325,-1.5904,-1.596,-1.6206,-1.6055,-1.6301,-1.6492,-1.6532,-1.6126,-1.5165,-1.422,-1.3576,-1.3568,-1.3116,-1.2924,-1.3124,-1.3163,-1.3147,-1.3132,-1.3092,-1.3044,-1.3084,-1.3505,-1.3846,-1.395,-1.3878,-1.4339,-1.4911,-1.5404,-1.5682,-1.6063,-1.65,-1.6683,-1.6722,-1.673,-1.673,-1.673,-1.673,-1.673,-1.673,-1.673,-1.673,-1.6873,-1.731,-1.7803,-1.7954,-1.8303,-1.8724,-1.8819,-1.8827,-1.892,-1.892,-1.9112,-1.9112,-1.9112,-1.9204,-1.9288,-1.9479,-1.9571,-1.9754,-1.9928,-2.011,-2.0201,-2.0292,-2.0292,-2.0292,-2.0292,-2.0292,-2.0292,-2.0292,-2.0292,-2.0001,-1.9718,-1.9384,-1.9059,-1.887,-1.8605,-1.8254,-1.8031,-1.8031,-1.8031,-1.8031,-1.8031,-1.8031,-1.677,-1.673,-1.673,-1.673,-1.673,-1.673,-1.673,-1.673,-1.673,-1.673,-1.673,-1.673,-1.673,-1.673,-1.673,-1.673,-1.673,-1.673,-1.673,-1.673,-1.673,-1.673,-1.673,-1.673,-1.673,-1.673,-1.673,-1.673,-1.669,-1.6468,-1.6174,-1.5999,-1.6158,-1.6103,-1.6095,-1.6333,-1.6561,-1.6619,-1.6158,-1.5375,-1.4361,-1.3954,-1.3819,-1.3747,-1.3659,-1.3747,-1.4061,-1.4125,-1.4172,-1.4236,-1.4299,-1.4363,-1.4418,-1.4442,-1.4879,-1.5038,-1.4975,-1.4712,-1.5245,-1.5626,-1.592,-1.6261,-1.6555,-1.6698,-1.673,-1.673,-1.673,-1.673,-1.673,-1.673,-1.673,-1.673,-1.673,-1.6953,-1.7334,-1.7676,-1.797,-1.8457,-1.8948,-1.9096,-1.9196,-1.9196,-1.9196,-1.9387,-1.9496,-1.9487,-1.9487,-1.9571,-1.9754,-1.9845,-1.9945,-2.011,-2.0201,-2.0292,-2.0292,-2.0292,-2.0292,-2.0292,-2.0292,-2.0283,-2.0266,-2.0223,-2.0052,-1.9761,-1.9479,-1.9195,-1.8993,-1.8689,-1.8224,-1.8031,-1.8193,-1.8112,-1.8031,-1.8031,-1.8193,-1.673,-1.673,-1.673,-1.673,-1.673,-1.673,-1.673,-1.673,-1.673,-1.673,-1.673,-1.673,-1.673,-1.673,-1.673,-1.673,-1.673,-1.673,-1.673,-1.673,-1.673,-1.673,-1.673,-1.673,-1.673,-1.673,-1.673,-1.673,-1.6667,-1.6595,-1.6397,-1.6317,-1.6397,-1.6468,-1.6206,-1.6555,-1.6772,-1.6814,-1.6733,-1.639,-1.5796,-1.5341,-1.5105,-1.508,-1.4644,-1.463,-1.4744,-1.4641,-1.4569,-1.4569,-1.4569,-1.4561,-1.4752,-1.4975,-1.5396,-1.5578,-1.5833,-1.5912,-1.6087,-1.6182,-1.6317,-1.6436,-1.6643,-1.6722,-1.673,-1.673,-1.673,-1.673,-1.673,-1.673,-1.6812,-1.673,-1.673,-1.6929,-1.7552,-1.7816,-1.8121,-1.8733,-1.9104,-1.9288,-1.9471,-1.9471,-1.9563,-1.9571,-1.9671,-1.9671,-1.9671,-1.9762,-1.9845,-2.0019,-2.011,-2.0201,-2.0292,-2.0292,-2.0292,-2.0292,-2.0292,-2.0292,-2.0374,-2.0365,-2.0223,-2.0138,-2.0251,-2.0079,-1.9701,-1.9441,-1.925,-1.8821,-1.8469,-1.8345,-1.8345,-1.8585,-1.8736,-1.8745,-1.8975,-1.673,-1.673,-1.673,-1.673,-1.673,-1.673,-1.673,-1.673,-1.673,-1.673,-1.673,-1.673,-1.673,-1.673,-1.673,-1.673,-1.673,-1.673,-1.673,-1.673,-1.673,-1.673,-1.673,-1.673,-1.673,-1.673,-1.673,-1.6812,-1.6968,-1.6944,-1.6927,-1.6722,-1.6516,-1.6611,-1.669,-1.6927,-1.7139,-1.7067,-1.6979,-1.6797,-1.6517,-1.6112,-1.6071,-1.5922,-1.5667,-1.5341,-1.5429,-1.5295,-1.5162,-1.5617,-1.5666,-1.5873,-1.6138,-1.6615,-1.685,-1.6949,-1.7042,-1.6936,-1.6895,-1.6863,-1.6722,-1.673,-1.673,-1.6812,-1.7131,-1.7049,-1.7204,-1.7521,-1.7529,-1.7529,-1.7375,-1.7448,-1.7449,-1.7689,-1.7916,-1.8099,-1.8425,-1.8946,-1.9371,-1.9563,-1.9745,-1.9837,-1.9845,-1.9845,-1.9853,-1.9853,-1.9853,-1.9853,-2.0027,-2.0201,-2.0201,-2.0292,-2.0292,-2.0292,-2.0292,-2.0292,-2.0292,-2.0464,-2.0555,-2.0628,-2.0764,-2.0918,-2.1198,-2.0753,-2.0225,-2.0218,-2.0251,-1.9434,-1.8825,-1.9134,-1.9371,-1.9599,-1.9678,-1.9687,-1.9766,-1.673,-1.673,-1.673,-1.673,-1.673,-1.673,-1.673,-1.673,-1.673,-1.673,-1.673,-1.673,-1.673,-1.673,-1.673,-1.673,-1.673,-1.673,-1.673,-1.673,-1.673,-1.682,-1.682,-1.6894,-1.6812,-1.6894,-1.6976,-1.7294,-1.7538,-1.7619,-1.7294,-1.6788,-1.6927,-1.6701,-1.7025,-1.7674,-1.7811,-1.7579,-1.7226,-1.6547,-1.6213,-1.5945,-1.6005,-1.6337,-1.6182,-1.6215,-1.6903,-1.6709,-1.6867,-1.7465,-1.7431,-1.7666,-1.8011,-1.8317,-1.8415,-1.8338,-1.8091,-1.7917,-1.7836,-1.7286,-1.6812,-1.673,-1.6886,-1.7286,-1.7844,-1.7925,-1.8238,-1.8709,-1.863,-1.8789,-1.8868,-1.9054,-1.8521,-1.8275,-1.8288,-1.8571,-1.885,-1.9151,-1.953,-1.9837,-1.9936,-2.0027,-2.011,-2.0027,-2.0027,-2.0027,-2.0027,-2.0119,-2.0119,-2.0292,-2.0292,-2.0292,-2.0292,-2.0292,-2.0292,-2.0382,-2.0637,-2.0988,-2.1257,-2.1427,-2.1587,-2.1794,-2.1891,-2.1768,-2.1272,-2.1269,-2.1211,-2.0732,-2.0391,-2.0382,-2.0382,-2.0304,-2.0527,-2.0682,-2.0682,-1.673,-1.673,-1.673,-1.673,-1.673,-1.673,-1.673,-1.673,-1.673,-1.673,-1.673,-1.673,-1.673,-1.673,-1.673,-1.673,-1.673,-1.6886,-1.6894,-1.6984,-1.7066,-1.7229,-1.7383,-1.7465,-1.7627,-1.7781,-1.7934,-1.8095,-1.8487,-1.8416,-1.8407,-1.8169,-1.8056,-1.8117,-1.8452,-1.8638,-1.874,-1.8623,-1.8255,-1.776,-1.769,-1.7558,-1.7535,-1.7299,-1.8273,-1.8162,-1.8195,-1.839,-1.8559,-1.8718,-1.8789,-1.9107,-1.9335,-1.9413,-1.9413,-1.9413,-1.9018,-1.8868,-1.863,-1.8078,-1.7764,-1.8238,-1.8318,-1.839,-1.8789,-1.8789,-1.8939,-1.9177,-1.9432,-1.9548,-1.9353,-1.9274,-1.9029,-1.8705,-1.8823,-1.9187,-1.9417,-1.9894,-1.9977,-2.0365,-2.0292,-2.0209,-2.0201,-2.0292,-2.0292,-2.0292,-2.0292,-2.0292,-2.0292,-2.0292,-2.0292,-2.0292,-2.0292,-2.0464,-2.0464,-2.0727,-2.1078,-2.1516,-2.1952,-2.2306,-2.2532,-2.2294,-2.2281,-2.2276,-2.2269,-2.211,-2.1982,-2.1963,-2.1797,-2.1395,-2.1001,-2.0692,-2.1068,-2.1614,-2.1614,-1.673,-1.673,-1.673,-1.673,-1.673,-1.673,-1.673,-1.673,-1.673,-1.673,-1.673,-1.673,-1.673,-1.673,-1.673,-1.673,-1.6812,-1.7049,-1.7049,-1.7212,-1.7546,-1.7789,-1.7959,-1.8121,-1.8273,-1.8656,-1.8807,-1.8886,-1.9195,-1.9213,-1.952,-1.9747,-1.9816,-1.9659,-1.9177,-1.9511,-1.9678,-1.9844,-1.9539,-1.9311,-1.9167,-1.9149,-1.914,-1.8683,-1.9279,-1.9376,-1.9107,-1.9204,-1.9432,-1.959,-1.9659,-1.9816,-1.9972,-2.0051,-2.0051,-1.9972,-1.9816,-1.9659,-1.9413,-1.9018,-1.8709,-1.8948,-1.9097,-1.9265,-1.958,-1.9659,-1.9816,-2.0226,-2.0224,-2.0222,-2.0232,-2.0731,-2.0617,-2.0589,-2.0827,-2.109,-2.078,-2.0907,-2.0846,-2.0907,-2.0817,-2.0817,-2.0817,-2.0907,-2.0645,-2.0555,-2.0292,-2.0292,-2.0292,-2.0292,-2.0292,-2.0292,-2.0292,-2.0464,-2.0727,-2.1168,-2.1695,-2.2394,-2.2833,-2.327,-2.3411,-2.3198,-2.322,-2.3505,-2.3416,-2.2955,-2.2751,-2.268,-2.2477,-2.2231,-2.1918,-2.1538,-2.1842,-2.2306,-2.2531,-1.673,-1.673,-1.6812,-1.6812,-1.6894,-1.673,-1.673,-1.6812,-1.6812,-1.6894,-1.6968,-1.6976,-1.6894,-1.6968,-1.7123,-1.7123,-1.7212,-1.7538,-1.7619,-1.7456,-1.8103,-1.8264,-1.8264,-1.8505,-1.8904,-1.8816,-1.9134,-1.952,-1.9913,-2.0001,-2.0557,-2.1021,-2.1011,-2.0624,-1.9502,-1.9511,-2.007,-2.0624,-2.0226,-1.9991,-1.9913,-1.9913,-1.9913,-1.9756,-2.006,-2.0148,-1.9913,-1.9904,-2.0138,-2.0459,-2.0459,-2.0769,-2.1252,-2.1328,-2.1405,-2.1405,-2.0779,-2.0537,-2.0459,-1.9737,-1.958,-1.9659,-1.9894,-1.9972,-2.0372,-2.0537,-2.0692,-2.1175,-2.1659,-2.2128,-2.261,-2.2818,-2.2301,-2.2059,-2.2257,-2.2286,-2.1882,-2.1845,-2.1792,-2.1728,-2.1695,-2.1695,-2.1695,-2.1615,-2.1168,-2.0907,-2.0464,-2.0292,-2.0382,-2.0555,-2.0637,-2.0817,-2.0907,-2.1257,-2.1606,-2.1784,-2.2217,-2.3008,-2.3704,-2.4231,-2.4669,-2.4703,-2.4785,-2.4886,-2.4298,-2.3627,-2.3405,-2.3231,-2.2918,-2.2617,-2.2767,-2.2692,-2.2927,-2.2927,-2.3001,-1.7917,-1.839,-1.839,-1.839,-1.8318,-1.7844,-1.7602,-1.7602,-1.7602,-1.7836,-1.8399,-1.847,-1.839,-1.839,-1.831,-1.831,-1.8399,-1.8496,-1.8505,-1.8496,-1.8975,-1.9143,-1.9143,-1.9301,-1.9618,-1.9932,-2.0177,-2.0333,-2.0799,-2.0799,-2.1108,-2.1578,-2.1655,-2.1492,-2.1088,-2.1011,-2.1252,-2.1328,-2.0934,-2.0537,-2.0615,-2.0682,-2.0527,-2.0216,-2.0847,-2.1088,-2.0624,-2.0682,-2.1001,-2.1252,-2.1252,-2.1492,-2.1731,-2.1807,-2.1807,-2.1807,-2.1339,-2.1405,-2.1328,-2.1088,-2.1011,-2.0934,-2.0857,-2.0934,-2.1318,-2.1482,-2.1721,-2.197,-2.2321,-2.2513,-2.2537,-2.2917,-2.2631,-2.2333,-2.232,-2.2493,-2.2324,-2.2675,-2.2774,-2.265,-2.2658,-2.2648,-2.2658,-2.2658,-2.2306,-2.1784,-2.1347,-2.0727,-2.0645,-2.1078,-2.1338,-2.1606,-2.1863,-2.2217,-2.257,-2.2746,-2.3183,-2.3887,-2.4669,-2.5274,-2.5633,-2.5728,-2.5261,-2.4832,-2.4505,-2.4246,-2.3656,-2.3165,-2.3088,-2.3001,-2.3001,-2.3001,-2.3001,-2.3001,-2.3001,-1.8877,-1.9265,-1.9256,-1.9502,-1.958,-1.8789,-1.847,-1.847,-1.847,-1.878,-1.9177,-1.9344,-1.9344,-1.9344,-1.9492,-1.9502,-1.9502,-1.9678,-1.946,-1.9529,-1.9784,-1.9775,-1.9854,-2.0098,-2.0255,-2.0654,-2.0896,-2.1051,-2.1272,-2.1359,-2.1578,-2.1731,-2.1807,-2.1731,-2.1645,-2.1645,-2.1721,-2.1655,-2.1328,-2.1252,-2.1318,-2.1395,-2.1308,-2.1231,-2.1548,-2.1949,-2.1645,-2.1645,-2.1949,-2.1807,-2.1807,-2.1807,-2.1807,-2.1807,-2.1807,-2.1807,-2.1807,-2.1807,-2.1731,-2.1731,-2.1568,-2.1645,-2.1807,-2.1807,-2.1873,-2.1949,-2.2035,-2.2208,-2.2444,-2.2605,-2.2766,-2.3139,-2.3328,-2.2982,-2.3276,-2.34,-2.3524,-2.3836,-2.3813,-2.3766,-2.3617,-2.3617,-2.3617,-2.3617,-2.3531,-2.2921,-2.2306,-2.1784,-2.1257,-2.1695,-2.2217,-2.2394,-2.2648,-2.3008,-2.3444,-2.3887,-2.4327,-2.485,-2.5369,-2.5895,-2.5895,-2.579,-2.5284,-2.476,-2.453,-2.4148,-2.3416,-2.3001,-2.3001,-2.3001,-2.3001,-2.3001,-2.3001,-2.3001,-2.3001,-1.958,-1.9413,-1.9413,-1.9904,-2.0382,-1.9737,-1.9423,-1.9423,-1.9344,-1.9423,-1.9502,-1.9825,-1.9982,-1.9904,-1.9972,-2.0129,-2.0138,-2.0459,-2.0235,-2.0079,-2.0489,-2.0401,-2.0323,-2.0489,-2.0731,-2.0896,-2.1128,-2.1282,-2.1512,-2.1589,-2.1731,-2.1807,-2.1807,-2.1807,-2.1807,-2.1807,-2.1807,-2.1807,-2.1797,-2.1797,-2.1873,-2.2014,-2.2014,-2.2014,-2.2101,-2.2101,-2.1873,-2.1949,-2.1873,-2.1873,-2.1873,-2.1807,-2.1807,-2.1807,-2.1807,-2.1807,-2.1807,-2.1807,-2.1807,-2.1807,-2.1807,-2.1883,-2.1797,-2.1959,-2.2035,-2.2187,-2.2327,-2.2498,-2.268,-2.3047,-2.3262,-2.3802,-2.4335,-2.446,-2.4903,-2.4973,-2.5077,-2.5096,-2.4966,-2.4893,-2.4659,-2.4584,-2.4584,-2.4584,-2.4402,-2.4231,-2.379,-2.3531,-2.3096,-2.2833,-2.3183,-2.3183,-2.3531,-2.379,-2.4231,-2.468,-2.4935,-2.5369,-2.5549,-2.5895,-2.5895,-2.5841,-2.5415,-2.4989,-2.4607,-2.4061,-2.3307,-2.3012,-2.3001,-2.3001,-2.3001,-2.3001,-2.3001,-2.3001,-2.3001,-2.0981,-2.1461,-2.1395,-2.1395,-2.1548,-2.1242,-2.1088,-2.1011,-2.0459,-2.0527,-2.1308,-2.1318,-2.1242,-2.1624,-2.1624,-2.1614,-2.1548,-2.1482,-2.1339,-2.1262,-2.1041,-2.0964,-2.0886,-2.0964,-2.1051,-2.1128,-2.1282,-2.1425,-2.1502,-2.1731,-2.1807,-2.1807,-2.1807,-2.1807,-2.1807,-2.1807,-2.1883,-2.1959,-2.2025,-2.2101,-2.2327,-2.2402,-2.2402,-2.2252,-2.2327,-2.2176,-2.1949,-2.2025,-2.1949,-2.2025,-2.2176,-2.2187,-2.2025,-2.2035,-2.1959,-2.1807,-2.1807,-2.1807,-2.1807,-2.1807,-2.1883,-2.1949,-2.2025,-2.2025,-2.2176,-2.2327,-2.2542,-2.2724,-2.2854,-2.3069,-2.3308,-2.372,-2.4309,-2.469,-2.5065,-2.5273,-2.5317,-2.5441,-2.5398,-2.5432,-2.5285,-2.5285,-2.5285,-2.5285,-2.52,-2.5369,-2.5274,-2.4935,-2.4669,-2.4317,-2.4145,-2.4145,-2.4402,-2.4669,-2.502,-2.5464,-2.5633,-2.5812,-2.5895,-2.5895,-2.5895,-2.5786,-2.5535,-2.5109,-2.4552,-2.3886,-2.3165,-2.3023,-2.3001,-2.3001,-2.3001,-2.3001,-2.3001,-2.3001,-2.3001,-2.1397,-2.1829,-2.2114,-2.2176,-2.2111,-2.1883,-2.1807,-2.1655,-2.1252,-2.1405,-2.1949,-2.2101,-2.2252,-2.2327,-2.2467,-2.2542,-2.2553,-2.2176,-2.1949,-2.1873,-2.1578,-2.1425,-2.1359,-2.1359,-2.1282,-2.1436,-2.1502,-2.1502,-2.1578,-2.1731,-2.1807,-2.1807,-2.1807,-2.1807,-2.1807,-2.1807,-2.1949,-2.2101,-2.2176,-2.2327,-2.2478,-2.2628,-2.2478,-2.2402,-2.2478,-2.2252,-2.2025,-2.2101,-2.2176,-2.2176,-2.2338,-2.2327,-2.2101,-2.2035,-2.1959,-2.1807,-2.1807,-2.1807,-2.1807,-2.1883,-2.1949,-2.2101,-2.2252,-2.2327,-2.2402,-2.2553,-2.2703,-2.281,-2.2948,-2.3056,-2.322,-2.3449,-2.3962,-2.4465,-2.4803,-2.5142,-2.5338,-2.5546,-2.571,-2.5852,-2.5812,-2.5812,-2.5895,-2.5895,-2.5895,-2.5728,-2.5717,-2.5633,-2.5454,-2.5189,-2.5105,-2.5115,-2.5369,-2.5633,-2.5895,-2.5895,-2.5895,-2.5895,-2.5895,-2.5895,-2.5895,-2.5808,-2.5622,-2.5054,-2.4366,-2.3798,-2.3318,-2.3078,-2.3001,-2.3001,-2.3001,-2.3001,-2.3001,-2.3001,-2.3001,-2.1054,-2.0977,-2.1828,-2.1956,-2.187,-2.1541,-2.1528,-2.1694,-2.1535,-2.1725,-2.1928,-2.2252,-2.2402,-2.2553,-2.2777,-2.2927,-2.2777,-2.2553,-2.2402,-2.2371,-2.1873,-2.1731,-2.1731,-2.1578,-2.1655,-2.1655,-2.1731,-2.1655,-2.1731,-2.1807,-2.1807,-2.1807,-2.1807,-2.1807,-2.1807,-2.1883,-2.2025,-2.2252,-2.2327,-2.2402,-2.2628,-2.2703,-2.2703,-2.2703,-2.2628,-2.2542,-2.2262,-2.2262,-2.2327,-2.2262,-2.2338,-2.2402,-2.2176,-2.1959,-2.1873,-2.1807,-2.1807,-2.1807,-2.1807,-2.1959,-2.2111,-2.2252,-2.2478,-2.2628,-2.2703,-2.2703,-2.2852,-2.2927,-2.3001,-2.3001,-2.3132,-2.3318,-2.3722,-2.4268,-2.4705,-2.5175,-2.559,-2.5732,-2.5797,-2.5895,-2.5895,-2.5895,-2.5895,-2.5895,-2.5895,-2.5895,-2.5895,-2.5895,-2.5895,-2.5801,-2.5728,-2.5728,-2.5812,-2.5895,-2.5895,-2.5895,-2.5895,-2.5895,-2.5895,-2.5895,-2.5895,-2.5819,-2.5721,-2.5131,-2.4508,-2.4061,-2.3635,-2.3307,-2.3023,-2.3001,-2.3001,-2.3001,-2.3001,-2.3001,-2.3001,-2.0356,-2.0301,-2.0393,-2.0217,-2.0023,-1.9944,-2.0232,-2.0731,-2.0762,-2.1272,-2.2146,-2.2381,-2.2553,-2.2777,-2.2927,-2.2979,-2.284,-2.2498,-2.2596,-2.236,-2.203,-2.1807,-2.2113,-2.1858,-2.1973,-2.2035,-2.1959,-2.1883,-2.1807,-2.1807,-2.1807,-2.1807,-2.1807,-2.1807,-2.1807,-2.1873,-2.2101,-2.2402,-2.2478,-2.2628,-2.2852,-2.2927,-2.2863,-2.2777,-2.2692,-2.2617,-2.2478,-2.2553,-2.2553,-2.2628,-2.2777,-2.2628,-2.2327,-2.2101,-2.1959,-2.1807,-2.1807,-2.1807,-2.1883,-2.2035,-2.2176,-2.2327,-2.2553,-2.2767,-2.2841,-2.2927,-2.2927,-2.3001,-2.3001,-2.3001,-2.3045,-2.3241,-2.3504,-2.4071,-2.4585,-2.5164,-2.5753,-2.583,-2.5863,-2.5863,-2.5863,-2.5884,-2.5884,-2.5895,-2.5895,-2.5895,-2.5895,-2.5895,-2.5895,-2.5895,-2.5812,-2.5812,-2.5812,-2.5895,-2.5895,-2.5895,-2.5895,-2.5895,-2.5895,-2.5895,-2.5895,-2.5852,-2.5742,-2.5262,-2.4738,-2.4235,-2.3744,-2.3296,-2.3088,-2.3023,-2.3001,-2.3001,-2.3001,-2.3001,-2.3001,-1.9506,-1.9487,-1.9695,-1.9671,-1.9417,-1.9351,-1.9521,-1.9837,-1.982,-2.038,-2.1317,-2.2029,-2.2531,-2.283,-2.2927,-2.2597,-2.2455,-2.215,-2.1635,-2.1435,-2.1503,-2.1496,-2.1645,-2.1807,-2.2073,-2.2093,-2.1993,-2.1873,-2.1873,-2.1797,-2.1807,-2.1883,-2.1883,-2.1807,-2.1807,-2.2025,-2.2176,-2.2413,-2.2639,-2.2777,-2.3001,-2.3001,-2.2927,-2.2852,-2.2767,-2.2703,-2.2703,-2.2703,-2.2777,-2.2777,-2.2777,-2.2777,-2.2553,-2.2327,-2.2187,-2.2035,-2.1959,-2.1959,-2.2035,-2.2101,-2.2327,-2.2478,-2.2703,-2.2927,-2.2927,-2.3001,-2.3001,-2.3001,-2.3001,-2.3001,-2.3001,-2.3143,-2.3416,-2.3875,-2.417,-2.4563,-2.512,-2.548,-2.5491,-2.5491,-2.5568,-2.5732,-2.5753,-2.5819,-2.5841,-2.5895,-2.5895,-2.5895,-2.5895,-2.5797,-2.583,-2.5841,-2.5808,-2.5863,-2.5895,-2.5895,-2.5895,-2.5895,-2.5895,-2.5895,-2.5895,-2.5884,-2.5742,-2.5317,-2.4836,-2.4301,-2.3809,-2.3362,-2.3099,-2.3012,-2.3001,-2.3001,-2.3001,-2.3001,-2.3001,-1.8512,-1.8632,-1.9176,-1.9404,-1.9243,-1.9017,-1.9026,-1.9162,-1.9041,-1.9333,-2.0058,-2.141,-2.2114,-2.2347,-2.2524,-2.1969,-2.1555,-2.1311,-2.0611,-2.021,-1.9983,-2.0533,-2.0898,-2.1032,-2.1442,-2.1744,-2.1744,-2.1954,-2.2025,-2.1949,-2.1959,-2.2035,-2.1959,-2.1807,-2.1883,-2.2025,-2.2252,-2.2402,-2.2628,-2.2852,-2.2927,-2.3001,-2.3001,-2.3001,-2.3001,-2.2927,-2.2852,-2.2852,-2.2863,-2.2852,-2.2777,-2.2777,-2.2703,-2.2478,-2.2327,-2.2187,-2.2111,-2.2111,-2.2111,-2.2327,-2.2478,-2.2703,-2.2852,-2.3001,-2.3001,-2.3001,-2.3001,-2.3001,-2.3001,-2.3001,-2.3001,-2.3056,-2.334,-2.3656,-2.3875,-2.4093,-2.4628,-2.5109,-2.5131,-2.5142,-2.5338,-2.5524,-2.5666,-2.5732,-2.5808,-2.5874,-2.5895,-2.5895,-2.5852,-2.5666,-2.5579,-2.56,-2.559,-2.5677,-2.5852,-2.5895,-2.5895,-2.5895,-2.5895,-2.5895,-2.5895,-2.5895,-2.5753,-2.5437,-2.4934,-2.4399,-2.3897,-2.3438,-2.322,-2.3012,-2.3001,-2.3001,-2.3001,-2.3001,-2.3001,-1.7551,-1.7562,-1.7759,-1.772,-1.7535,-1.7477,-1.7814,-1.8362,-1.8385,-1.8881,-1.9565,-1.9963,-2.0417,-2.0552,-2.063,-2.0445,-2.0522,-2.028,-2.0357,-2.0063,-1.9565,-1.9955,-2.0367,-2.0568,-2.0849,-2.1225,-2.1521,-2.1639,-2.206,-2.2101,-2.1949,-2.1873,-2.1883,-2.1883,-2.1883,-2.2101,-2.2402,-2.2553,-2.2777,-2.3065,-2.3075,-2.3075,-2.3001,-2.3001,-2.3001,-2.3001,-2.2927,-2.3001,-2.3001,-2.2927,-2.2927,-2.2852,-2.2777,-2.2628,-2.2478,-2.2252,-2.2262,-2.2252,-2.2327,-2.2478,-2.2628,-2.2703,-2.2927,-2.3001,-2.3001,-2.3001,-2.3001,-2.3001,-2.3001,-2.3001,-2.3001,-2.3001,-2.3209,-2.3602,-2.3897,-2.4126,-2.4497,-2.4694,-2.4781,-2.4934,-2.5153,-2.5382,-2.5633,-2.571,-2.5797,-2.5863,-2.5895,-2.5895,-2.5863,-2.5633,-2.5393,-2.5371,-2.5393,-2.56,-2.5797,-2.5884,-2.5895,-2.5895,-2.5895,-2.5895,-2.5895,-2.5895,-2.5721,-2.5415,-2.5022,-2.4519,-2.4028,-2.3514,-2.3241,-2.3045,-2.3012,-2.3001,-2.3001,-2.3001,-2.3001]},{"header":{"parameterUnit":"m.s-1","parameterCategory":1,"la1":31.0,"la2":29.5877,"lo1":-88.7671,"lo2":-86.6584,"dy":0.0162,"dx":0.0185,"nx":115,"ny":88,"refTime":"2024-07-16T18:00:00:Z","depth":0,"parameterNumber":3,"parameterNumberName":"V-component_of_WINDS"},"data":[0.0,0.0,0.0,0.0,0.0,0.0,0.0,0.0,0.0,0.0,0.0,0.0,0.0,0.0,0.0,0.0,0.0,0.0,0.0,0.0,0.0,0.0,0.0,0.0,0.0,0.0,0.0,0.0,0.0,0.0,0.0,0.0,0.0,0.0,0.0,0.0,0.0,0.0,0.0,0.0,0.0,0.0,0.0,0.0,0.0,0.0,0.0,0.0,0.0,0.0,0.0,0.0,0.0,0.0,0.0,0.0,0.0,0.0,0.0,0.0,0.0,0.0,0.0,0.0,0.0,0.0,0.0,0.0,0.0,0.0,0.0,0.0,0.0,0.0,0.0,0.0,0.0,0.0,0.0,0.0,0.0,0.0,0.0,0.0,0.0,0.0,0.0,0.0,0.0,0.0,0.0,0.0,0.0,0.0,0.0,0.0,0.0,0.0,0.0,0.0,0.0,0.0,0.0,0.0,0.0,0.0,0.0,0.0,0.0,0.0,0.0,0.0,0.0,0.0,0.0,0.0,0.0,0.0,0.0,0.0,0.0,0.0,0.0,0.0,0.0,0.0,0.0,0.0,0.0,0.0,0.0,0.0,0.0,0.0,0.0,0.0,0.0,0.0,0.0,0.0,0.0,0.0,0.0,0.0,0.0,0.0,0.0,0.0,0.0,0.0,0.0,0.0,0.0,0.0,0.0,0.0,0.0,0.0,0.0,0.0,0.0,0.0,0.0,0.0,0.0,0.0,0.0,0.0,0.0,0.0,0.0,0.0,0.0,0.0,0.0,0.0,0.0,0.0,0.0,0.0,0.0,0.0,0.0,0.0,0.0,0.0,0.0,0.0,0.0,0.0,0.0,0.0,0.0,0.0,0.0,0.0,0.0,0.0,0.0,0.0,0.0,0.0,0.0,0.0,0.0,0.0,0.0,0.0,0.0,0.0,0.0,0.0,0.0,0.0,0.0,0.0,0.0,0.0,0.0,0.0,0.0,0.0,0.0,0.0,0.0,0.0,0.0,0.0,0.0,0.0,0.0,0.0,0.0,0.0,0.0,0.0,0.0,0.0,0.0,0.0,0.0,0.0,0.0,0.0,0.0,0.0,0.0,0.0,0.0,0.0,0.0,0.0,0.0,0.0,0.0,0.0,0.0,0.0,0.0,0.0,0.0,0.0,0.0,0.0,0.0,0.0,0.0,0.0,0.0,0.0,0.0,0.0,0.0,0.0,0.0,0.0,0.0,0.0,0.0,0.0,0.0,0.0,0.0,0.0,0.0,0.0,0.0,0.0,0.0,0.0,0.0,0.0,0.0,0.0,0.0,0.0,0.0,0.0,0.0,0.0,0.0,0.0,0.0,0.0,0.0,0.0,0.0,0.0,0.0,0.0,0.0,0.0,0.0,0.0,0.0,0.0,0.0,0.0,0.0,0.0,0.0,0.0,0.0,0.0,0.0,0.0,0.0,0.0,0.0,0.0,0.0,0.0,0.0,0.0,0.0,0.0,0.0,0.0,0.0,0.0,0.0,0.0,0.0,0.0,0.0,0.0,0.0,0.0,0.0,0.0,0.0,0.0,0.0,0.0,0.0,0.0,0.0,0.0,0.0,0.0,0.0,0.0,0.0,0.0,0.0,0.0,0.0,0.0,0.0,0.0,0.0,0.0,0.0,0.0,0.0,0.0,0.0,0.0,0.0,0.0,0.0,0.0,0.0,0.0,0.0,0.0,0.0,0.0,0.0,0.0,0.0,0.0,0.0,0.0,0.0,0.0,0.0,0.0,0.0,0.0,0.0,0.0,0.0,0.0,0.0,0.0,0.0,0.0,0.0,0.0,0.0,0.0,0.0,0.0,0.0,0.0,0.0,0.0,0.0,0.0,0.0,0.0,0.0,0.0,0.0,0.0,0.0,0.0,0.0,0.0,0.0,0.0,0.0,0.0,0.0,0.0,0.0,0.0,0.0,0.0,0.0,0.0,0.0,0.0,0.0,0.0,0.0,0.0,0.0,0.0,0.0,0.0,0.0,0.0,0.0,0.0,0.0,0.0,0.0,0.0,0.0,0.0,0.0,0.0,0.0,0.0,0.0,0.0,0.0,0.0,0.0,0.0,0.0,0.0,0.0,0.0,0.0,0.0,0.0,0.0,0.0,0.0,0.0,0.0,0.0,0.0,0.0,0.0,0.0,0.0,0.0,0.0,0.0,0.0,0.0,0.0,0.0,0.0,0.0,0.0,0.0,0.0,0.0,0.0,0.0,0.0,0.0,0.0,0.0,0.0,0.0,0.0,0.0,0.0,0.0,0.0,0.0,0.0,0.0,0.0,0.0,0.0,0.0,0.0,0.0,0.0,0.0,0.0,0.0,0.0,0.0,0.0,0.0,0.0,0.0,0.0,0.0,0.0,0.0,0.0,0.0,0.0,0.0,0.0,0.0,0.0,0.0,0.0,0.0,0.0,0.0,0.0,0.0,0.0,0.0,0.0,0.0,0.0,0.0,0.0,0.0,0.0,0.0,0.0,0.0,0.0,0.0,0.0,0.0,0.0,0.0,0.0,0.0,0.0,0.0,0.0,0.0,0.0,0.0,0.0,0.0,0.0,0.0,0.0,0.0,0.0,0.0,0.0,0.0,0.0,0.0,0.0,0.0,0.0,0.0,0.0,0.0,0.0,0.0,0.0,0.0,0.0,0.0,0.0,0.0,0.0,0.0,0.0,0.0,0.0,0.0,0.0,0.0,0.0,0.0,0.0,0.0,0.0,0.0,0.0,0.0,0.0,0.0,0.0,0.0,0.0,0.0,0.0,0.0,0.0,0.0,0.0,0.0,0.0,0.0,0.0,0.0,0.0,0.0,0.0,0.0,0.0,0.0,0.0,0.0,0.0,0.0,0.0,0.0,0.0,0.0,0.0,0.0,0.0,0.0,0.0,0.0,0.0,0.0,0.0,0.0,0.0,0.0,0.0,0.0,0.0,0.0,0.0,0.0,0.0,0.0,0.0,0.0,0.0,0.0,0.0,0.0,0.0,0.0,0.0,0.0,0.0,0.0,0.0,0.0,0.0,0.0,0.0,0.0,0.0,0.0,0.0,0.0,0.0,0.0,0.0,0.0,0.0,0.0,0.0,0.0,0.0,0.0,0.0,0.0,0.0,0.0,0.0,0.0,0.0,0.0,0.0,0.0,0.0,0.0,0.0,0.0,0.0,0.0,0.0,0.0,0.0,0.0,0.0,0.0,0.0,0.0,0.0,0.0,0.0,0.0,0.0,0.0,0.0,0.0,0.0,0.0,0.0,0.0,0.0,0.0,0.0,0.0,0.0,0.0,0.0,0.0,0.0,0.0,0.0,0.0,0.0,0.0,0.0,0.0,0.0,0.0,0.0,0.0,0.0,0.0,0.0,0.0,0.0,0.0,0.0,0.0,0.0,0.0,0.0,0.0,0.0,0.0,0.0,0.0,0.0,0.0,0.0,0.0,0.0,0.0,0.0,0.0,0.0,0.0,0.0,0.0,0.0,0.0,0.0,0.0,0.0,0.0,0.0,0.0,0.0,0.0,0.0,0.0,0.0,0.0,0.0,0.0,0.0,0.0,0.0,0.0,0.0,0.0,0.0,0.0,0.0,0.0,0.0,0.0,0.0,0.0,0.0,0.0,0.0,0.0,0.0,0.0,0.0,0.0,0.0,0.0,0.0,0.0,0.0,0.0,0.0,0.0,0.0,0.0,0.0,0.0,0.0,0.0,0.0,0.0,0.0,0.0,0.0,0.0,0.0,0.0,0.0,0.0,0.0,0.0,0.0,0.0,0.0,0.0,0.0,0.0,0.0,0.0,0.0,0.0,0.0,0.0,0.0,0.0,0.0,0.0,0.0,0.0,0.0,0.0,0.0,0.0,0.0,0.0,0.0,0.0,0.0,0.0,0.0,0.0,0.0,0.0,0.0,0.0,0.0,0.0,0.0,0.0,0.0,0.0,0.0,0.0,0.0,0.0,0.0,0.0,0.0,0.0,0.0,0.0,0.0,0.0,0.0,0.0,0.0,0.0,0.0,0.0,0.0,0.0,0.0,0.0,0.0,0.0,0.0,0.0,0.0,0.0,0.0,0.0,0.0,0.0,0.0,0.0,0.0,0.0,0.0,0.0,0.0,0.0,0.0,0.0,0.0,0.0,0.0,0.0,0.0,0.0,0.0,0.0,0.0,0.0,0.0,0.0,0.0,0.0,0.0,0.0,0.0,0.0,0.0,0.0,0.0,0.0,0.0,0.0,0.0,0.0,0.0,0.0,0.0,0.0,0.0,0.0,0.0,-1.3039,0.0,0.0,0.0,0.0,0.0,0.0,0.0,0.0,0.0,0.0,0.0,0.0,0.0,0.0,0.0,0.0,0.0,0.0,0.0,0.0,0.0,0.0,0.0,0.0,0.0,0.0,0.0,0.0,0.0,0.0,0.0,0.0,0.0,0.0,0.0,0.0,0.0,0.0,0.0,0.0,0.0,0.0,0.0,0.0,0.0,0.0,0.0,0.0,0.0,0.0,0.0,0.0,0.0,0.0,0.0,0.0,0.0,0.0,0.0,0.0,0.0,0.0,0.0,0.0,0.0,0.0,0.0,0.0,0.0,0.0,0.0,0.0,0.0,0.0,0.0,0.0,0.0,0.0,0.0,0.0,0.0,0.0,0.0,0.0,0.0,0.0,0.0,0.0,0.0,0.0,0.0,0.0,0.0,0.0,0.0,0.0,0.0,0.0,0.0,0.0,0.0,0.0,0.0,0.0,0.0,0.0,0.0,0.0,0.0,0.0,-1.2971,-1.3329,-1.2874,-1.259,-1.2607,0.0,0.0,0.0,0.0,0.0,0.0,0.0,0.0,0.0,0.0,0.0,0.0,0.0,0.0,0.0,0.0,0.0,0.0,0.0,0.0,0.0,0.0,0.0,0.0,0.0,0.0,0.0,0.0,0.0,0.0,0.0,0.0,0.0,0.0,0.0,0.0,0.0,0.0,0.0,0.0,0.0,0.0,0.0,0.0,0.0,0.0,0.0,0.0,0.0,0.0,0.0,0.0,0.0,0.0,0.0,0.0,0.0,0.0,0.0,0.0,0.0,0.0,0.0,0.0,0.0,0.0,0.0,0.0,0.0,0.0,0.0,0.0,0.0,0.0,0.0,0.0,0.0,0.0,0.0,0.0,0.0,0.0,0.0,0.0,0.0,0.0,0.0,0.0,0.0,0.0,0.0,0.0,0.0,0.0,0.0,0.0,0.0,0.0,0.0,0.0,0.0,0.0,0.0,0.0,0.0,0.0,0.0,0.0,0.0,0.0,0.0,0.0,-1.3091,-1.2621,-1.2435,0.0,0.0,0.0,0.0,0.0,0.0,0.0,0.0,0.0,0.0,0.0,0.0,0.0,0.0,0.0,0.0,0.0,0.0,0.0,0.0,0.0,0.0,0.0,0.0,0.0,0.0,0.0,0.0,0.0,0.0,0.0,0.0,0.0,0.0,0.0,0.0,0.0,0.0,0.0,0.0,0.0,0.0,0.0,0.0,0.0,0.0,0.0,0.0,0.0,0.0,0.0,0.0,0.0,0.0,0.0,0.0,0.0,0.0,0.0,0.0,0.0,0.0,0.0,0.0,0.0,0.0,0.0,0.0,0.0,0.0,0.0,0.0,0.0,0.0,0.0,0.0,0.0,0.0,0.0,0.0,0.0,0.0,0.0,0.0,0.0,0.0,0.0,0.0,0.0,0.0,0.0,0.0,0.0,0.0,0.0,0.0,0.0,0.0,0.0,0.0,0.0,0.0,0.0,0.0,0.0,0.0,0.0,0.0,0.0,0.0,-1.3988,-1.4638,-1.457,0.0,-1.3504,0.0,0.0,0.0,0.0,0.0,0.0,0.0,0.0,0.0,0.0,0.0,0.0,0.0,0.0,0.0,0.0,0.0,0.0,0.0,0.0,0.0,0.0,0.0,0.0,0.0,0.0,0.0,0.0,0.0,0.0,0.0,0.0,0.0,0.0,0.0,0.0,0.0,0.0,0.0,0.0,0.0,0.0,0.0,0.0,0.0,0.0,0.0,0.0,0.0,0.0,0.0,0.0,0.0,0.0,0.0,0.0,0.0,0.0,0.0,0.0,0.0,0.0,0.0,0.0,0.0,0.0,0.0,0.0,0.0,0.0,0.0,0.0,0.0,0.0,0.0,0.0,0.0,0.0,0.0,0.0,0.0,0.0,0.0,0.0,0.0,0.0,0.0,0.0,0.0,0.0,0.0,0.0,0.0,0.0,0.0,0.0,0.0,0.0,0.0,0.0,0.0,0.0,0.0,0.0,0.0,0.0,0.0,0.0,0.0,0.0,-1.4217,-1.4958,-1.4005,-1.335,0.0,0.0,0.0,0.0,0.0,0.0,0.0,0.0,0.0,0.0,0.0,0.0,0.0,0.0,0.0,0.0,0.0,0.0,0.0,0.0,0.0,0.0,0.0,0.0,0.0,0.0,0.0,0.0,0.0,0.0,0.0,0.0,0.0,0.0,0.0,0.0,0.0,0.0,0.0,0.0,0.0,0.0,0.0,0.0,0.0,0.0,0.0,0.0,0.0,0.0,0.0,0.0,0.0,0.0,0.0,0.0,0.0,0.0,0.0,0.0,0.0,0.0,0.0,0.0,0.0,0.0,0.0,0.0,0.0,0.0,0.0,0.0,0.0,0.0,0.0,0.0,0.0,0.0,0.0,0.0,0.0,0.0,0.0,0.0,0.0,0.0,0.0,0.0,0.0,0.0,0.0,0.0,0.0,0.0,0.0,0.0,0.0,0.0,0.0,0.0,0.0,0.0,0.0,0.0,0.0,0.0,0.0,0.0,0.0,0.0,-1.4435,-1.4674,-1.5331,-1.3848,-1.2879,-1.2651,0.0,0.0,0.0,0.0,0.0,0.0,0.0,0.0,0.0,0.0,0.0,0.0,0.0,0.0,0.0,0.0,0.0,0.0,0.0,0.0,0.0,0.0,0.0,0.0,0.0,0.0,0.0,0.0,0.0,0.0,0.0,0.0,0.0,0.0,0.0,0.0,0.0,0.0,0.0,0.0,0.0,0.0,0.0,0.0,0.0,0.0,0.0,0.0,0.0,0.0,0.0,0.0,0.0,0.0,0.0,0.0,0.0,0.0,0.0,0.0,0.0,0.0,0.0,0.0,0.0,0.0,0.0,0.0,0.0,0.0,0.0,0.0,0.0,0.0,0.0,0.0,0.0,0.0,0.0,0.0,0.0,0.0,0.0,0.0,0.0,0.0,0.0,0.0,0.0,0.0,0.0,0.0,0.0,0.0,0.0,0.0,0.0,0.0,0.0,0.0,0.0,0.0,0.0,0.0,0.0,0.0,0.0,0.0,-1.6181,-1.5559,-1.5577,-1.6239,-1.4692,-1.35,0.0,0.0,0.0,0.0,0.0,0.0,0.0,0.0,0.0,0.0,0.0,0.0,0.0,0.0,0.0,0.0,0.0,0.0,0.0,0.0,0.0,0.0,0.0,0.0,0.0,0.0,0.0,0.0,0.0,0.0,0.0,0.0,0.0,0.0,0.0,0.0,0.0,0.0,0.0,0.0,0.0,0.0,0.0,0.0,0.0,0.0,0.0,0.0,0.0,0.0,0.0,0.0,0.0,0.0,0.0,0.0,0.0,0.0,0.0,0.0,0.0,0.0,0.0,0.0,0.0,0.0,0.0,0.0,0.0,0.0,0.0,0.0,0.0,0.0,0.0,0.0,0.0,0.0,0.0,0.0,0.0,0.0,0.0,0.0,0.0,0.0,0.0,0.0,0.0,0.0,0.0,0.0,0.0,0.0,0.0,0.0,0.0,0.0,0.0,0.0,0.0,0.0,0.0,0.0,0.0,0.0,0.0,0.0,0.0,-1.4208,-1.4427,-1.4899,-1.5594,-1.361,-1.2601,0.0,0.0,0.0,0.0,0.0,0.0,0.0,0.0,0.0,0.0,0.0,0.0,0.0,0.0,0.0,0.0,0.0,0.0,0.0,0.0,0.0,0.0,0.0,0.0,0.0,0.0,0.0,0.0,0.0,0.0,0.0,0.0,0.0,0.0,0.0,0.0,0.0,0.0,0.0,0.0,0.0,0.0,0.0,0.0,0.0,0.0,0.0,0.0,0.0,0.0,0.0,0.0,0.0,0.0,0.0,0.0,0.0,0.0,0.0,0.0,0.0,0.0,0.0,0.0,0.0,0.0,0.0,0.0,0.0,0.0,0.0,0.0,0.0,0.0,0.0,0.0,0.0,0.0,0.0,0.0,0.0,0.0,0.0,0.0,0.0,0.0,0.0,0.0,0.0,0.0,0.0,0.0,0.0,0.0,0.0,0.0,0.0,0.0,0.0,0.0,0.0,0.0,0.0,0.0,0.0,0.0,0.0,0.0,0.0,-1.3792,0.0,-1.5113,0.0,-1.3354,-1.2269,0.0,0.0,0.0,0.0,0.0,0.0,0.0,0.0,0.0,0.0,0.0,0.0,0.0,0.0,0.0,0.0,0.0,0.0,0.0,0.0,0.0,0.0,0.0,0.0,0.0,0.0,0.0,0.0,0.0,0.0,0.0,0.0,0.0,0.0,0.0,0.0,0.0,0.0,0.0,0.0,0.0,0.0,0.0,0.0,0.0,0.0,0.0,0.0,0.0,0.0,0.0,0.0,0.0,0.0,0.0,0.0,0.0,0.0,0.0,0.0,0.0,0.0,0.0,0.0,0.0,0.0,0.0,0.0,0.0,0.0,0.0,0.0,0.0,0.0,0.0,0.0,0.0,0.0,0.0,0.0,0.0,0.0,0.0,0.0,0.0,0.0,0.0,0.0,0.0,0.0,0.0,0.0,0.0,0.0,0.0,0.0,0.0,0.0,0.0,0.0,0.0,0.0,0.0,0.0,0.0,0.0,0.0,0.0,-1.4033,-1.5256,-1.5908,-1.6217,-1.6308,-1.41,-1.2631,0.0,0.0,0.0,0.0,0.0,0.0,0.0,0.0,0.0,0.0,0.0,0.0,0.0,0.0,0.0,0.0,0.0,0.0,0.0,0.0,0.0,0.0,0.0,0.0,0.0,0.0,0.0,0.0,0.0,0.0,0.0,0.0,0.0,0.0,0.0,0.0,0.0,0.0,0.0,0.0,0.0,0.0,0.0,0.0,0.0,0.0,0.0,0.0,0.0,0.0,0.0,0.0,0.0,0.0,0.0,0.0,0.0,0.0,0.0,0.0,0.0,0.0,0.0,0.0,0.0,0.0,0.0,0.0,0.0,0.0,0.0,0.0,0.0,0.0,0.0,0.0,0.0,0.0,0.0,0.0,0.0,0.0,0.0,0.0,0.0,0.0,0.0,0.0,0.0,0.0,0.0,0.0,0.0,0.0,0.0,0.0,0.0,0.0,0.0,0.0,0.0,0.0,0.0,0.0,0.0,0.0,0.0,0.0,0.0,-1.2324,-1.4016,-1.49,-1.4774,-1.3142,-1.2643,0.0,0.0,0.0,0.0,0.0,0.0,0.0,0.0,0.0,0.0,0.0,0.0,0.0,0.0,0.0,0.0,0.0,0.0,0.0,0.0,0.0,0.0,0.0,0.0,0.0,0.0,0.0,0.0,0.0,0.0,0.0,0.0,0.0,0.0,0.0,0.0,0.0,0.0,0.0,0.0,0.0,0.0,0.0,0.0,0.0,0.0,0.0,0.0,0.0,0.0,0.0,0.0,0.0,0.0,0.0,0.0,0.0,0.0,0.0,0.0,0.0,0.0,0.0,0.0,0.0,0.0,0.0,0.0,0.0,0.0,0.0,0.0,0.0,0.0,0.0,0.0,0.0,0.0,0.0,0.0,0.0,0.0,0.0,0.0,0.0,0.0,0.0,0.0,0.0,0.0,0.0,0.0,0.0,0.0,0.0,0.0,0.0,0.0,0.0,0.0,0.0,0.0,0.0,0.0,0.0,0.0,0.0,0.0,0.0,-1.2869,-1.5252,-1.6274,-1.56,-1.4138,-1.3541,-1.3911,0.0,0.0,0.0,0.0,0.0,0.0,0.0,0.0,0.0,0.0,0.0,0.0,0.0,0.0,0.0,0.0,0.0,0.0,0.0,0.0,0.0,0.0,0.0,0.0,0.0,0.0,0.0,0.0,0.0,0.0,0.0,0.0,0.0,0.0,0.0,0.0,0.0,0.0,0.0,0.0,0.0,0.0,0.0,0.0,0.0,0.0,0.0,0.0,0.0,0.0,0.0,0.0,0.0,0.0,0.0,0.0,0.0,0.0,0.0,0.0,0.0,0.0,0.0,0.0,0.0,0.0,0.0,0.0,0.0,0.0,0.0,0.0,0.0,0.0,0.0,0.0,0.0,0.0,0.0,0.0,0.0,0.0,0.0,0.0,0.0,0.0,0.0,0.0,0.0,0.0,0.0,0.0,0.0,0.0,0.0,0.0,0.0,0.0,0.0,0.0,0.0,0.0,0.0,0.0,0.0,0.0,0.0,0.0,-1.6033,-1.9147,-1.9947,-1.8258,-1.6675,-1.5162,0.0,0.0,0.0,0.0,0.0,0.0,0.0,0.0,0.0,0.0,0.0,0.0,0.0,0.0,0.0,0.0,0.0,0.0,0.0,0.0,0.0,0.0,0.0,0.0,0.0,0.0,0.0,0.0,0.0,0.0,0.0,0.0,0.0,0.0,0.0,0.0,0.0,0.0,0.0,0.0,0.0,0.0,0.0,0.0,0.0,0.0,0.0,0.0,0.0,0.0,0.0,0.0,0.0,0.0,0.0,0.0,0.0,0.0,0.0,0.0,0.0,0.0,0.0,0.0,0.0,0.0,0.0,0.0,0.0,0.0,0.0,0.0,0.0,0.0,0.0,0.0,0.0,0.0,0.0,0.0,0.0,0.0,0.0,0.0,0.0,0.0,0.0,0.0,0.0,0.0,0.0,0.0,0.0,0.0,0.0,0.0,0.0,0.0,0.0,0.0,0.0,0.0,0.0,0.0,0.0,0.0,0.0,0.0,0.0,-1.8752,-2.2383,-2.2915,-1.9953,-1.7799,-1.6781,0.0,0.0,0.0,0.0,0.0,0.0,0.0,0.0,0.0,0.0,0.0,0.0,0.0,0.0,0.0,0.0,0.0,0.0,0.0,0.0,0.0,0.0,0.0,0.0,0.0,0.0,0.0,0.0,0.0,0.0,0.0,0.0,0.0,0.0,0.0,0.0,0.0,0.0,0.0,0.0,0.0,0.0,0.0,0.0,0.0,0.0,0.0,0.0,0.0,0.0,0.0,0.0,0.0,0.0,0.0,0.0,0.0,0.0,0.0,0.0,0.0,0.0,0.0,0.0,0.0,0.0,0.0,0.0,0.0,0.0,0.0,0.0,0.0,0.0,0.0,0.0,0.0,0.0,0.0,0.0,0.0,0.0,0.0,0.0,0.0,0.0,0.0,0.0,0.0,0.0,0.0,0.0,0.0,0.0,0.0,0.0,0.0,0.0,0.0,0.0,0.0,0.0,0.0,0.0,0.0,0.0,0.0,0.0,-1.9375,-2.0718,-2.4662,-2.5634,-2.3304,-2.0893,-1.8891,0.0,0.0,0.0,0.0,0.0,0.0,0.0,0.0,0.0,0.0,0.0,0.0,0.0,0.0,0.0,0.0,0.0,0.0,0.0,0.0,0.0,0.0,0.0,0.0,0.0,0.0,0.0,0.0,0.0,0.0,0.0,0.0,0.0,0.0,0.0,0.0,0.0,0.0,0.0,0.0,0.0,0.0,0.0,0.0,0.0,0.0,0.0,0.0,0.0,0.0,0.0,0.0,0.0,0.0,0.0,0.0,0.0,0.0,0.0,0.0,0.0,0.0,0.0,0.0,0.0,0.0,0.0,0.0,0.0,0.0,0.0,0.0,0.0,0.0,0.0,0.0,0.0,0.0,0.0,0.0,0.0,0.0,0.0,0.0,0.0,0.0,0.0,0.0,0.0,0.0,0.0,0.0,0.0,0.0,0.0,0.0,0.0,0.0,0.0,0.0,0.0,0.0,0.0,0.0,0.0,0.0,0.0,0.0,-2.1306,-2.2498,-2.6227,-2.7848,-2.7084,-2.4586,-2.1125,0.0,0.0,0.0,0.0,0.0,0.0,0.0,0.0,0.0,0.0,0.0,0.0,0.0,0.0,0.0,0.0,0.0,0.0,0.0,0.0,0.0,0.0,0.0,0.0,0.0,0.0,0.0,0.0,0.0,0.0,0.0,0.0,0.0,0.0,0.0,0.0,0.0,0.0,0.0,0.0,0.0,0.0,0.0,0.0,0.0,0.0,0.0,0.0,0.0,0.0,0.0,0.0,0.0,0.0,0.0,0.0,0.0,0.0,0.0,0.0,0.0,0.0,0.0,0.0,0.0,0.0,0.0,0.0,0.0,0.0,0.0,0.0,0.0,0.0,0.0,0.0,0.0,0.0,0.0,0.0,0.0,0.0,0.0,0.0,0.0,0.0,0.0,0.0,0.0,0.0,0.0,0.0,0.0,0.0,0.0,0.0,0.0,0.0,0.0,0.0,0.0,0.0,0.0,0.0,0.0,0.0,0.0,0.0,-2.1529,-2.4869,-2.7065,-2.8146,-2.7998,-2.4391,-2.1653,0.0,0.0,0.0,0.0,0.0,0.0,0.0,0.0,0.0,0.0,0.0,0.0,0.0,0.0,0.0,0.0,0.0,0.0,0.0,0.0,0.0,0.0,0.0,0.0,0.0,0.0,0.0,0.0,0.0,0.0,0.0,0.0,0.0,0.0,0.0,0.0,0.0,0.0,0.0,0.0,0.0,0.0,0.0,0.0,0.0,0.0,0.0,0.0,-1.1213,0.0,0.0,0.0,0.0,0.0,0.0,0.0,0.0,0.0,0.0,0.0,0.0,0.0,0.0,0.0,0.0,0.0,0.0,0.0,0.0,0.0,0.0,0.0,0.0,0.0,0.0,0.0,0.0,0.0,0.0,0.0,0.0,0.0,0.0,0.0,0.0,0.0,0.0,0.0,0.0,0.0,0.0,0.0,0.0,0.0,0.0,0.0,0.0,0.0,0.0,0.0,0.0,0.0,0.0,0.0,0.0,0.0,0.0,0.0,-2.2824,-2.5721,-2.7793,-2.8876,-2.8783,-2.5712,-2.2876,0.0,0.0,0.0,0.0,0.0,0.0,0.0,0.0,0.0,0.0,0.0,0.0,0.0,0.0,0.0,0.0,0.0,0.0,0.0,0.0,0.0,0.0,0.0,0.0,0.0,0.0,0.0,0.0,0.0,0.0,0.0,0.0,0.0,0.0,0.0,0.0,0.0,0.0,0.0,0.0,0.0,0.0,0.0,0.0,0.0,0.0,0.0,0.0,0.0,0.0,0.0,0.0,0.0,0.0,0.0,0.0,0.0,0.0,0.0,0.0,0.0,0.0,0.0,0.0,0.0,0.0,0.0,0.0,0.0,0.0,0.0,0.0,0.0,0.0,0.0,0.0,0.0,0.0,0.0,0.0,0.0,0.0,0.0,0.0,0.0,0.0,0.0,0.0,0.0,0.0,0.0,0.0,0.0,0.0,0.0,0.0,0.0,0.0,0.0,0.0,0.0,0.0,0.0,0.0,0.0,0.0,0.0,-2.0806,-2.3955,-2.6219,-2.8334,-2.9476,-2.957,-2.7281,-2.4159,-2.037,0.0,0.0,0.0,0.0,0.0,0.0,0.0,0.0,0.0,0.0,0.0,0.0,0.0,0.0,0.0,0.0,0.0,0.0,0.0,0.0,0.0,0.0,0.0,0.0,0.0,0.0,0.0,0.0,0.0,0.0,0.0,0.0,0.0,0.0,0.0,0.0,0.0,0.0,-1.0145,-1.093,0.0,0.0,0.0,0.0,0.0,0.0,0.0,0.0,-1.1872,0.0,0.0,0.0,0.0,0.0,0.0,0.0,0.0,0.0,0.0,0.0,0.0,0.0,0.0,0.0,0.0,0.0,0.0,0.0,0.0,0.0,0.0,0.0,0.0,0.0,0.0,0.0,0.0,0.0,0.0,0.0,0.0,0.0,0.0,0.0,0.0,0.0,0.0,0.0,0.0,0.0,0.0,0.0,0.0,0.0,0.0,0.0,0.0,0.0,0.0,0.0,0.0,0.0,0.0,0.0,0.0,-2.0095,-2.0281,-2.278,-2.7774,-2.8353,-2.8914,-2.9514,-2.7262,-2.4704,-2.1929,0.0,0.0,0.0,0.0,0.0,0.0,0.0,0.0,0.0,0.0,0.0,0.0,0.0,0.0,0.0,0.0,0.0,0.0,0.0,0.0,0.0,0.0,0.0,0.0,0.0,0.0,0.0,0.0,0.0,0.0,0.0,0.0,0.0,0.0,0.0,0.0,0.0,0.0,0.0,-1.2546,-1.3188,0.0,0.0,0.0,0.0,0.0,0.0,0.0,0.0,-1.36,0.0,0.0,0.0,0.0,0.0,0.0,0.0,0.0,0.0,0.0,0.0,0.0,0.0,0.0,0.0,0.0,0.0,0.0,0.0,0.0,0.0,0.0,0.0,0.0,0.0,0.0,0.0,0.0,0.0,0.0,0.0,0.0,0.0,0.0,0.0,0.0,0.0,0.0,0.0,0.0,0.0,0.0,0.0,0.0,0.0,0.0,0.0,0.0,0.0,0.0,0.0,0.0,0.0,0.0,0.0,-1.8918,-2.0789,-2.363,-2.7566,-2.8165,-2.8595,-2.8895,-2.6193,-2.3746,0.0,0.0,0.0,0.0,0.0,0.0,0.0,0.0,0.0,0.0,0.0,0.0,0.0,0.0,0.0,0.0,0.0,0.0,0.0,0.0,0.0,0.0,0.0,0.0,0.0,0.0,0.0,0.0,0.0,0.0,0.0,0.0,0.0,0.0,0.0,0.0,0.0,0.0,0.0,0.0,-1.3688,-1.4673,-1.5935,0.0,0.0,0.0,0.0,0.0,0.0,-1.4788,-1.4569,0.0,0.0,0.0,0.0,0.0,0.0,0.0,0.0,0.0,0.0,0.0,0.0,0.0,0.0,0.0,0.0,0.0,0.0,0.0,0.0,0.0,0.0,0.0,0.0,0.0,0.0,0.0,0.0,0.0,0.0,0.0,0.0,0.0,0.0,0.0,0.0,0.0,0.0,0.0,0.0,0.0,0.0,0.0,0.0,0.0,0.0,0.0,0.0,0.0,0.0,0.0,0.0,0.0,0.0,0.0,-1.7372,-2.0909,-2.42,-2.7073,-2.7843,-2.8238,-2.8332,-2.5383,-2.2792,0.0,0.0,0.0,0.0,0.0,0.0,0.0,0.0,0.0,0.0,0.0,0.0,0.0,0.0,0.0,0.0,0.0,0.0,0.0,0.0,0.0,0.0,0.0,0.0,0.0,0.0,0.0,0.0,0.0,0.0,0.0,0.0,0.0,0.0,0.0,0.0,0.0,0.0,0.0,0.0,0.0,-1.6356,-1.8237,-1.7273,0.0,0.0,0.0,0.0,-1.5806,-1.5953,0.0,0.0,0.0,0.0,0.0,0.0,0.0,0.0,0.0,0.0,0.0,0.0,0.0,0.0,0.0,0.0,0.0,0.0,0.0,0.0,0.0,0.0,0.0,0.0,0.0,0.0,0.0,0.0,0.0,0.0,0.0,0.0,0.0,0.0,0.0,0.0,0.0,0.0,0.0,0.0,0.0,0.0,0.0,0.0,0.0,0.0,0.0,0.0,0.0,0.0,0.0,0.0,0.0,0.0,0.0,0.0,-1.7326,-1.9256,-2.2492,-2.6923,-2.7298,-2.7693,-2.8332,-2.5909,-2.3112,0.0,0.0,0.0,0.0,0.0,0.0,0.0,0.0,0.0,0.0,0.0,0.0,0.0,0.0,0.0,0.0,0.0,0.0,0.0,0.0,0.0,0.0,0.0,0.0,0.0,0.0,0.0,0.0,0.0,0.0,0.0,0.0,0.0,0.0,0.0,0.0,0.0,0.0,0.0,0.0,0.0,-1.8331,-1.8556,-1.7756,-1.7401,0.0,0.0,-1.8553,-1.988,-2.0085,0.0,0.0,0.0,0.0,0.0,0.0,0.0,0.0,0.0,0.0,0.0,0.0,0.0,0.0,0.0,0.0,0.0,0.0,0.0,0.0,0.0,0.0,0.0,0.0,0.0,0.0,0.0,0.0,0.0,0.0,0.0,0.0,0.0,0.0,0.0,0.0,0.0,0.0,0.0,0.0,0.0,0.0,0.0,0.0,0.0,0.0,0.0,0.0,0.0,0.0,0.0,0.0,0.0,0.0,0.0,-1.5508,-1.7382,-2.0358,-2.36,-2.7035,-2.7204,-2.7355,-2.7711,-2.4807,-2.1906,0.0,0.0,0.0,0.0,0.0,0.0,0.0,0.0,0.0,0.0,0.0,0.0,0.0,0.0,0.0,0.0,0.0,0.0,0.0,0.0,0.0,0.0,0.0,0.0,0.0,0.0,0.0,0.0,0.0,0.0,0.0,0.0,0.0,0.0,0.0,0.0,0.0,0.0,0.0,0.0,0.0,0.0,-1.9844,-1.9645,0.0,0.0,0.0,-1.9956,-2.0099,0.0,0.0,0.0,0.0,0.0,0.0,0.0,0.0,0.0,0.0,0.0,0.0,0.0,0.0,0.0,0.0,0.0,0.0,0.0,0.0,0.0,0.0,0.0,0.0,0.0,0.0,0.0,0.0,0.0,0.0,0.0,0.0,0.0,0.0,0.0,0.0,0.0,0.0,0.0,0.0,0.0,0.0,0.0,0.0,0.0,0.0,0.0,0.0,0.0,0.0,0.0,0.0,0.0,0.0,0.0,0.0,0.0,-1.7361,-2.1585,-2.4895,-2.7111,-2.7394,-2.7376,-2.7133,-2.4447,0.0,0.0,0.0,0.0,0.0,0.0,0.0,0.0,0.0,0.0,0.0,0.0,0.0,0.0,0.0,0.0,0.0,0.0,0.0,0.0,0.0,0.0,0.0,0.0,0.0,0.0,0.0,-0.6611,0.0,0.0,0.0,0.0,0.0,0.0,0.0,0.0,0.0,0.0,0.0,0.0,0.0,0.0,-1.9647,-2.0832,-2.1362,-2.1863,0.0,0.0,-2.1461,-2.1183,-2.1999,-2.163,0.0,0.0,0.0,0.0,0.0,0.0,0.0,0.0,0.0,0.0,0.0,0.0,0.0,0.0,0.0,0.0,0.0,0.0,0.0,0.0,0.0,0.0,0.0,0.0,0.0,0.0,0.0,0.0,0.0,0.0,0.0,0.0,0.0,0.0,0.0,0.0,0.0,0.0,0.0,0.0,0.0,0.0,0.0,0.0,0.0,0.0,0.0,0.0,0.0,0.0,0.0,0.0,0.0,0.0,-1.6525,-1.7431,-2.2135,-2.5458,-2.7148,-2.7885,-2.7849,-2.7119,-2.6041,-2.2848,0.0,0.0,0.0,0.0,0.0,0.0,0.0,0.0,0.0,0.0,0.0,0.0,0.0,0.0,0.0,0.0,0.0,0.0,0.0,0.0,0.0,0.0,0.0,0.0,0.0,0.0,0.0,0.0,0.0,0.0,0.0,0.0,0.0,0.0,0.0,0.0,0.0,0.0,0.0,0.0,0.0,-2.096,-2.0984,-2.2281,-2.3494,0.0,-2.3657,-2.364,-2.5039,-2.4723,-2.3477,-2.0938,0.0,0.0,0.0,0.0,0.0,0.0,0.0,0.0,0.0,0.0,0.0,0.0,0.0,0.0,0.0,0.0,0.0,0.0,0.0,0.0,0.0,0.0,0.0,0.0,0.0,0.0,0.0,0.0,0.0,0.0,0.0,0.0,0.0,0.0,0.0,0.0,0.0,0.0,0.0,0.0,0.0,0.0,0.0,0.0,0.0,0.0,0.0,0.0,0.0,0.0,0.0,0.0,0.0,-1.7053,-1.7436,-2.2731,-2.604,-2.7186,-2.794,-2.796,-2.7119,-2.619,-2.3236,0.0,0.0,0.0,0.0,0.0,0.0,0.0,0.0,0.0,0.0,0.0,0.0,0.0,0.0,0.0,0.0,0.0,0.0,0.0,0.0,0.0,0.0,0.0,0.0,0.0,0.0,0.0,0.0,-1.1554,-1.138,-1.1219,0.0,0.0,0.0,0.0,0.0,0.0,0.0,0.0,0.0,0.0,-2.1534,-2.3,-2.3721,0.0,0.0,-2.4999,-2.4814,-2.4927,-2.4704,-2.3663,-2.1198,-2.014,0.0,0.0,0.0,0.0,0.0,0.0,0.0,0.0,0.0,0.0,0.0,0.0,0.0,0.0,0.0,0.0,0.0,0.0,0.0,0.0,0.0,0.0,0.0,0.0,0.0,0.0,0.0,0.0,0.0,0.0,0.0,0.0,0.0,0.0,0.0,0.0,0.0,0.0,0.0,0.0,0.0,0.0,0.0,0.0,0.0,0.0,0.0,0.0,0.0,0.0,0.0,0.0,-1.7893,-1.8132,-2.3802,-2.6998,-2.7561,-2.8314,-2.8203,-2.7119,-2.6395,-2.3834,0.0,0.0,0.0,0.0,0.0,0.0,0.0,0.0,0.0,0.0,0.0,0.0,0.0,0.0,0.0,0.0,0.0,0.0,0.0,0.0,0.0,0.0,0.0,0.0,0.0,0.0,0.0,0.0,-1.2203,-1.179,-1.1236,0.0,0.0,0.0,0.0,0.0,0.0,0.0,0.0,0.0,0.0,-2.1961,-2.3896,-2.4364,-2.4794,-2.5632,-2.552,-2.5317,-2.5224,-2.4816,-2.383,-2.1829,0.0,0.0,0.0,0.0,0.0,0.0,0.0,0.0,0.0,0.0,0.0,0.0,0.0,0.0,0.0,0.0,0.0,0.0,0.0,0.0,0.0,0.0,0.0,0.0,0.0,0.0,0.0,-1.0135,0.0,0.0,-1.0116,0.0,0.0,0.0,0.0,0.0,0.0,0.0,0.0,0.0,0.0,0.0,0.0,0.0,0.0,0.0,0.0,0.0,0.0,0.0,0.0,0.0,0.0,-1.8934,-1.9788,-2.5364,-2.8332,-2.8388,-2.9101,-2.8708,-2.7157,-2.6877,-2.4857,-2.0829,0.0,0.0,0.0,0.0,0.0,0.0,0.0,0.0,0.0,0.0,0.0,0.0,0.0,0.0,0.0,0.0,0.0,0.0,0.0,0.0,0.0,0.0,0.0,0.0,0.0,0.0,-1.025,-1.0698,-1.1158,0.0,0.0,0.0,0.0,0.0,0.0,0.0,0.0,0.0,-1.8204,-2.0508,-2.2349,-2.3182,-2.3977,-2.4813,-2.5615,-2.5076,-2.5094,-2.6563,-2.5522,-2.4202,0.0,0.0,0.0,0.0,0.0,0.0,0.0,0.0,0.0,0.0,0.0,0.0,0.0,0.0,0.0,0.0,0.0,0.0,0.0,0.0,0.0,0.0,0.0,0.0,0.0,0.0,0.0,-1.4116,-1.3392,0.0,0.0,0.0,0.0,0.0,0.0,0.0,0.0,0.0,0.0,0.0,-1.9492,-2.057,0.0,0.0,0.0,0.0,0.0,0.0,0.0,0.0,0.0,0.0,0.0,0.0,-1.899,-2.0013,-2.5477,-2.8407,-2.8426,-2.9139,-2.8689,-2.7028,-2.6857,-2.4857,-2.0791,0.0,0.0,0.0,0.0,0.0,0.0,0.0,0.0,0.0,0.0,0.0,0.0,0.0,0.0,0.0,0.0,0.0,0.0,0.0,0.0,0.0,0.0,0.0,0.0,0.0,-1.2079,0.0,0.0,0.0,0.0,0.0,0.0,0.0,0.0,0.0,0.0,0.0,-1.9623,-2.0648,-2.1968,-2.331,-2.4668,-2.5113,-2.5596,0.0,0.0,0.0,0.0,0.0,0.0,0.0,0.0,0.0,0.0,0.0,0.0,0.0,0.0,-2.2569,-1.795,-1.73,-1.7504,-1.7485,0.0,0.0,0.0,0.0,0.0,0.0,0.0,0.0,0.0,0.0,0.0,0.0,0.0,0.0,-1.7492,-1.673,-1.5824,0.0,0.0,0.0,0.0,0.0,0.0,0.0,0.0,-2.1029,-2.2569,-2.2852,-2.3917,-2.3865,-2.2843,-2.2806,-2.0407,0.0,0.0,0.0,0.0,0.0,0.0,0.0,0.0,-2.0007,-2.1255,-2.6209,-2.8857,-2.8857,-2.9326,-2.8895,-2.7475,-2.6804,-2.4875,-2.1561,-1.9948,-1.7987,0.0,0.0,0.0,0.0,0.0,0.0,0.0,0.0,0.0,0.0,0.0,0.0,0.0,0.0,0.0,0.0,0.0,0.0,0.0,0.0,0.0,0.0,0.0,-1.2522,0.0,0.0,0.0,0.0,0.0,0.0,0.0,0.0,0.0,-1.7709,-2.001,-2.2099,-2.3145,-2.3498,-2.4166,-2.5522,0.0,0.0,0.0,0.0,0.0,0.0,0.0,-2.4723,-2.4166,-2.4111,-2.4222,-2.4445,-2.5392,-2.6024,-2.5745,0.0,0.0,-2.1343,-2.0697,-2.0879,-2.0879,-2.1529,-2.2086,-2.2086,-2.2903,-2.3516,0.0,0.0,0.0,0.0,-2.1366,0.0,0.0,0.0,-2.1274,-2.0802,0.0,-1.913,0.0,0.0,0.0,0.0,-1.6647,-1.965,0.0,0.0,-2.523,-2.6773,-2.6075,-2.6113,-2.6132,-2.6113,-2.6094,-2.4832,-2.2346,-1.9163,0.0,0.0,0.0,0.0,0.0,0.0,-2.1975,-2.36,-2.758,-2.9683,-2.9664,-2.9664,-2.9251,-2.8314,-2.6671,-2.4909,-2.3107,-2.1613,-2.0357,-1.9323,-1.5668,0.0,0.0,0.0,0.0,0.0,0.0,0.0,0.0,0.0,0.0,0.0,0.0,0.0,0.0,0.0,0.0,0.0,0.0,0.0,0.0,-1.2385,0.0,0.0,0.0,0.0,0.0,0.0,0.0,0.0,0.0,-2.0957,-2.0938,-2.2312,-2.3871,-2.5448,0.0,0.0,0.0,0.0,-2.4611,-2.4685,-2.4611,-2.463,-2.4667,-2.528,-2.5745,-2.5726,0.0,0.0,-2.7065,-2.6953,-2.6786,-2.6005,-2.7158,-2.7881,-2.7009,-2.6061,-2.5633,-2.5615,-2.5039,-2.4648,-2.4667,-2.489,-2.4927,-2.5849,0.0,0.0,0.0,0.0,-2.3208,-2.3966,-2.5542,-2.4879,-2.42,-2.3415,-2.2499,0.0,0.0,0.0,0.0,0.0,0.0,-2.3181,-2.3842,-2.6199,-2.7426,-2.7749,-2.8331,-2.865,-2.8631,-2.8631,-2.7919,-2.6555,-2.5022,-2.1793,-1.7087,0.0,0.0,0.0,0.0,-2.3425,-2.5074,-2.7922,-2.9414,-2.9433,-2.9351,-2.8619,-2.7149,-2.6115,-2.5041,-2.3878,-2.3474,-2.2294,-2.0244,-1.9069,0.0,0.0,0.0,0.0,0.0,0.0,0.0,0.0,0.0,0.0,0.0,0.0,0.0,0.0,0.0,0.0,0.0,0.0,0.0,-1.3211,-1.427,-1.4887,0.0,0.0,0.0,0.0,0.0,0.0,0.0,0.0,0.0,-2.4296,-2.4687,-2.5151,0.0,0.0,-2.608,-2.5745,-2.6005,-2.6433,-2.6971,-2.66,0.0,-2.699,-2.6767,-2.6563,-2.6563,-2.7436,-2.8012,-2.7808,-2.8273,-2.8608,-2.8384,-2.8719,-2.8961,-2.868,-2.7974,-2.7455,-2.7399,-2.7232,-2.7306,-2.7883,-2.8422,-2.8831,-2.8284,-2.5963,-2.521,-2.5452,-2.6254,-2.5782,-2.6578,-2.8296,-2.7702,-2.7231,-2.6736,-2.5844,-2.4734,-2.3526,-2.2911,0.0,0.0,0.0,-2.5491,-2.6279,-2.7631,-2.8498,-2.895,-2.9439,-2.9701,-2.9701,-2.9701,-2.942,-2.8858,-2.7979,-2.5469,-2.1373,0.0,-2.0105,-2.0819,-2.3114,-2.4887,-2.6135,-2.8216,-2.9293,-2.9293,-2.9267,-2.8572,-2.7211,-2.6718,-2.5926,-2.4723,-2.4725,-2.3879,-2.2042,-2.1016,-1.9198,0.0,0.0,0.0,0.0,0.0,0.0,0.0,0.0,0.0,0.0,0.0,-1.2752,-1.1403,0.0,0.0,0.0,-1.4147,-1.5151,-1.5945,-1.6892,0.0,0.0,0.0,0.0,0.0,0.0,0.0,-2.3531,-2.578,-2.7326,-2.7642,-2.7698,-2.7679,-2.766,-2.779,-2.7845,-2.766,0.0,-2.7938,-2.8067,-2.7677,-2.7436,-2.7584,-2.7473,-2.7566,-2.8273,-2.8775,-2.9219,-2.9535,-3.0039,-3.0336,-3.0355,-3.0373,-3.0355,-3.0336,-2.9909,-2.9463,-2.9165,-2.907,-2.9388,-3.0188,-3.0764,-3.1076,-3.0077,-3.0021,-2.9427,-2.8933,-2.8602,-2.8586,-2.9022,-2.9683,-2.9683,-2.9701,-2.9645,-2.8857,-2.8123,-2.7401,-2.5937,0.0,-2.6327,-2.7137,-2.7857,-2.8519,-2.9326,-2.9701,-2.9701,-2.9701,-2.9701,-2.9701,-2.9701,-2.9683,-2.9608,-2.8783,-2.8017,-2.732,-2.504,-2.412,-2.4614,-2.552,-2.6339,-2.7063,-2.8548,-2.9272,-2.9272,-2.9291,-2.8878,-2.7996,-2.7978,-2.7198,-2.5605,-2.5439,-2.5052,-2.4281,-2.2061,-2.0704,-2.0374,0.0,0.0,0.0,0.0,0.0,0.0,0.0,0.0,0.0,0.0,0.0,0.0,0.0,0.0,0.0,-1.7783,0.0,-1.9924,-1.9993,0.0,0.0,0.0,-2.1078,-2.3537,-2.5232,-2.6746,-2.8109,0.0,0.0,-3.0607,-3.0791,-3.0844,-3.0779,-3.0073,-2.9834,-3.0504,-2.9962,-2.9295,-2.8513,-2.8309,-2.805,-2.7511,-2.7881,-2.8831,-3.0111,-3.0631,-3.0913,-3.1467,-3.1671,-3.1786,-3.1689,-3.1782,-3.1745,-3.1782,-3.1652,-3.1578,-3.0894,-3.0708,-3.0891,-3.1504,-3.1782,-3.1916,-3.3419,-3.3419,-3.3254,-3.175,-2.9438,-2.9419,-2.9513,-2.9701,-2.9701,-2.9701,-2.9664,-2.9495,-2.9288,-2.9119,-2.8723,-2.8648,-2.8818,-2.9025,-2.9231,-2.9401,-2.9608,-2.9701,-2.9701,-2.9701,-2.9645,-2.955,-2.955,-2.9492,-2.9394,-2.9169,-2.8961,-2.8713,-2.8258,-2.7457,-2.6377,-2.712,-2.7857,-2.8496,-2.8883,-2.9067,-2.9048,-2.9089,-2.868,-2.7868,-2.7831,-2.7371,-2.6355,-2.5713,-2.5311,-2.5109,-2.3969,-2.2464,-2.0576,-1.7679,0.0,0.0,0.0,0.0,0.0,0.0,0.0,0.0,0.0,-1.5781,-1.2813,0.0,-1.653,0.0,-1.9682,-2.1727,-2.2515,-2.2609,0.0,0.0,-2.4035,-2.4732,-2.7753,-2.8465,-2.882,-2.9018,-3.032,-3.1061,-3.0609,-3.1515,-3.2244,-3.2273,-3.1681,-3.1058,-3.0708,-3.1005,-3.0928,-3.0188,-2.9983,-2.9723,-2.8998,-2.95,-3.0129,-3.0541,-3.1095,-3.1559,-3.1764,-3.1801,-3.1801,-3.1801,-3.1801,-3.1801,-3.1838,-3.1801,-3.2005,-3.2265,-3.1972,-3.1582,-3.1764,-3.2265,-3.2711,-3.4602,-3.4602,-3.4602,-3.31,-3.0772,-3.0772,-3.0772,-3.0715,-3.0002,-2.9701,-2.9701,-2.9701,-2.9701,-2.9701,-2.9701,-2.9701,-2.9701,-2.9701,-2.9701,-2.9701,-2.9701,-2.9701,-2.9701,-2.9701,-2.9608,-2.9511,-2.9511,-2.9434,-2.9293,-2.927,-2.927,-2.9349,-2.9392,-2.8947,-2.8108,-2.8459,-2.8741,-2.8998,-2.8975,-2.8975,-2.8975,-2.8975,-2.8631,-2.7842,-2.7805,-2.7071,-2.5585,-2.5089,-2.452,-2.3841,-2.3382,-2.2501,-2.1125,-1.8775,-1.6848,0.0,0.0,0.0,0.0,0.0,0.0,0.0,0.0,0.0,0.0,0.0,-1.8914,-1.8962,-2.1985,-2.3975,-2.4031,-2.5027,-2.6193,-2.7416,-2.7436,-2.8353,-3.0812,-3.1092,-3.1201,-3.1426,-3.2284,-3.2688,-3.2191,-3.3118,-3.3862,-3.3836,-3.3813,-3.3389,-3.2376,-3.2506,-3.2381,-3.1336,-3.1154,-3.0857,-3.0057,-3.0615,-3.1374,-3.2011,-3.2469,-3.2765,-3.2693,-3.2674,-3.2606,-3.2339,-3.253,-3.2789,-3.286,-3.286,-3.3027,-3.3305,-3.3175,-3.2897,-3.286,-3.3213,-3.3528,-3.5221,-3.524,-3.524,-3.4417,-3.3064,-3.2818,-3.2386,-3.1692,-3.0302,-2.9814,-3.0021,-3.0227,-3.0321,-3.0302,-3.0077,-3.0002,-2.9983,-2.9777,-2.9701,-2.9701,-2.9701,-2.9701,-2.9701,-2.9701,-2.9608,-2.9472,-2.9472,-2.9394,-2.927,-2.9203,-2.9307,-2.9453,-2.9355,-2.9373,-2.9454,-2.9373,-2.9228,-2.904,-2.9017,-2.8975,-2.8975,-2.8902,-2.8521,-2.7842,-2.7695,-2.6591,-2.4446,-2.4317,-2.362,-2.2208,-2.2097,-2.217,-2.2207,-1.9913,-1.861,0.0,-1.6463,0.0,0.0,0.0,0.0,0.0,0.0,0.0,0.0,-2.1465,-2.1642,-2.1628,-2.4479,-2.6078,-2.5533,-2.745,-2.9045,-2.9864,-3.059,-3.1529,-3.2882,-3.3128,-3.3388,-3.4025,-3.4241,-3.4315,-3.4222,-3.4936,-3.5356,-3.523,-3.5625,-3.5533,-3.4581,-3.4293,-3.3845,-3.2428,-3.2172,-3.1968,-3.1429,-3.1801,-3.2715,-3.385,-3.4231,-3.4234,-3.4146,-3.4119,-3.3934,-3.3511,-3.3913,-3.4345,-3.4488,-3.4513,-3.4513,-3.4569,-3.455,-3.4439,-3.4136,-3.4043,-3.4173,-3.8638,-3.8638,-3.8638,-3.8517,-3.8146,-3.6746,-3.3851,-3.0133,-2.9814,-3.0415,-3.1729,-3.3081,-3.3663,-3.355,-3.2255,-3.1635,-3.1579,-3.0283,-2.9701,-2.9701,-2.9701,-2.9701,-2.9701,-2.9701,-2.9569,-2.9334,-2.9334,-2.9249,-2.9067,-2.9156,-2.9222,-2.9265,-2.9392,-2.9414,-2.9353,0.0,0.0,0.0,-2.9062,-2.8975,-2.898,-2.8356,-2.7952,-2.7787,-2.7057,0.0,-2.5077,-2.5001,-2.4584,-2.3654,-2.3693,0.0,0.0,0.0,0.0,0.0,0.0,0.0,0.0,0.0,0.0,0.0,-2.1894,-2.2051,-2.2107,-2.3881,-2.5061,-2.5117,-2.6829,-2.8426,-2.9608,-3.0018,-3.0874,-3.231,-3.2519,-3.2934,-3.3839,-3.3974,-3.3981,-3.4005,-3.4596,-3.5014,-3.5026,-3.556,-3.5962,-3.5991,-3.6033,-3.6033,-3.5993,-3.5883,-3.5613,-3.4897,-3.4067,-3.3677,-3.3547,-3.4043,-3.4522,-3.5024,-3.545,-3.5716,-3.5669,-3.5687,-3.5762,-3.5551,-3.5818,-3.5964,-3.6159,-3.624,-3.611,-3.6203,-3.6185,-3.5788,-3.437,-3.4067,-3.3998,-3.9637,-3.9656,-3.9656,-3.9209,0.0,-3.7525,-3.5246,-3.2163,-3.2143,-3.2574,-3.3381,-3.4226,-3.4602,-3.4508,-3.2837,-3.2105,-3.2029,-3.0434,-2.9701,-2.9701,-2.9701,-2.9701,-2.9701,-2.9626,-2.9492,-2.9293,-2.927,-2.9222,-2.9108,-2.9175,-2.9225,-2.937,-2.9453,-2.9492,-2.9492,-2.9434,-2.9351,-2.92,-2.9067,-2.8975,-2.8975,-2.8613,-2.8146,-2.7716,-2.7228,0.0,0.0,0.0,0.0,0.0,0.0,0.0,0.0,0.0,0.0,-2.3529,-2.2427,-2.2097,-2.2885,-2.3363,-2.4174,-2.5505,-2.5987,-2.5798,-2.4804,-2.6622,-2.7788,-2.7735,-2.8821,-2.9868,-3.0611,-3.139,-3.2162,-3.2892,-3.329,-3.3648,-3.3986,-3.4367,-3.4581,-3.4576,-3.5211,-3.5745,-3.5754,-3.6358,-3.674,-3.6776,-3.7064,-3.7284,-3.7415,-3.6859,-3.6177,-3.5583,-3.484,-3.4426,-3.4779,-3.5458,-3.6029,-3.6223,-3.656,-3.6545,-3.6085,-3.6102,-3.6072,-3.5837,-3.6104,-3.6527,-3.6679,-3.6705,-3.6705,-3.6705,-3.6615,-3.6287,-3.5247,-3.5145,-3.4998,-3.9712,-3.9708,-3.9708,-3.8939,-3.7734,-3.7668,-3.6851,-3.5531,-3.5187,0.0,0.0,-3.5334,-3.5465,-3.5353,-3.3738,-3.2987,-3.2874,-3.1297,-3.0415,-3.0114,-3.0114,-2.9945,-2.9664,-2.9512,-2.9394,-2.9272,-2.9243,-2.9218,-2.92,-2.9222,-2.931,-2.9492,-2.9531,-2.9607,-2.9664,-2.9472,-2.9291,-2.9222,-2.9085,-2.8975,-2.8975,-2.8847,-2.8439,-2.7629,-2.7483,-2.665,-2.5121,-2.5281,-2.5053,-2.4267,-2.4479,-2.4685,-2.4832,-2.4832,-2.4905,-2.5034,-2.5052,-2.5621,-2.6943,-2.7119,-2.7754,-2.9126,-2.927,-2.8816,-2.7622,-2.8821,-2.9589,-2.9472,-3.0199,-3.0658,-3.0739,-3.2052,-3.3043,-3.3197,-3.3806,-3.4179,-3.4293,-3.4816,-3.5238,-3.5302,-3.5991,-3.6505,-3.6541,-3.7202,-3.7679,-3.7644,-3.8047,-3.8572,-3.8524,-3.7687,-3.6888,-3.6419,-3.5994,-3.5578,-3.5951,-3.6591,-3.7137,-3.7466,-3.7583,-3.732,-3.6576,-3.6413,-3.63,-3.6084,-3.6464,-3.7007,-3.7195,-3.7314,-3.7184,-3.714,-3.6988,-3.6833,-3.6691,-3.6691,-3.6379,-3.9712,-3.9708,-3.9708,-3.9603,-3.9441,-3.9383,-3.918,-3.8794,-3.7385,-3.6765,-3.6817,-3.8263,-3.8906,-3.8788,-3.7136,-3.6385,-3.6273,-3.4658,-3.3137,-3.1785,-3.1705,-3.0915,-2.9549,-2.9394,-2.9291,-2.9222,-2.92,-2.9218,-2.92,-2.9249,-2.9353,-2.9511,-2.9626,-2.9664,-2.9683,-2.9531,-2.9394,-2.9272,-2.9093,-2.8975,-2.8975,-2.8319,-2.7915,-2.7746,-2.7035,-2.6129,-2.5236,-2.5874,-2.5859,-2.5111,-2.5798,-2.6576,-2.7236,-2.7255,-2.7603,-2.8242,-2.8297,-2.8429,-2.8627,-2.8668,-2.8828,-2.916,-2.9267,-2.9202,-2.9037,-2.9204,-2.9353,-2.9351,-3.0092,-3.0835,-3.1541,-3.239,-3.3444,-3.46,-3.4843,-3.5128,-3.5771,-3.6009,-3.6119,-3.6138,-3.6798,-3.736,-3.7386,-3.7991,-3.845,-3.8475,-3.853,-3.867,-3.8755,-3.8783,-3.8693,-3.8618,-3.8507,-3.8433,-3.8192,-3.8343,-3.8375,-3.8469,-3.8308,-3.8154,-3.7877,-3.793,-3.804,-3.8261,-3.8368,-3.8645,-3.8854,-3.901,-3.8816,-3.8643,-3.8489,-3.8393,-3.8187,-3.8077,-3.752,-3.9804,-3.9823,-3.9823,-3.9804,-3.9848,-3.9777,-3.9703,-3.9594,-3.886,-3.8498,-3.8549,-3.9301,-3.962,-3.9445,-3.7831,-3.7075,-3.6929,-3.524,-3.408,-3.3368,-3.3325,-3.2425,-3.0949,-3.0735,-3.0142,-2.9274,-2.9112,-2.9138,-2.9249,-2.9291,-2.9394,-2.9589,-2.9664,-2.9701,-2.9664,-2.9492,-2.9373,-2.9293,-2.916,-2.9085,-2.9017,-2.865,-2.8402,-2.8333,-2.7903,-2.7505,-2.7077,-2.7469,-2.7533,-2.7169,-2.7629,-2.8081,-2.8429,-2.8448,-2.8613,-2.8957,-2.8975,-2.8975,-2.8975,-2.8975,-2.904,-2.9085,-2.9115,-2.9138,-2.9156,-2.9249,-2.9477,-2.9876,-3.0613,-3.1404,-3.2164,-3.3287,-3.431,-3.5027,-3.545,-3.5862,-3.6248,-3.6725,-3.6927,-3.7,-3.7643,-3.8138,-3.8138,-3.8487,-3.8707,-3.8707,-3.8707,-3.8738,-3.8822,-3.8921,-3.9017,-3.9101,-3.921,-3.9202,-3.9026,-3.8939,-3.8833,-3.864,-3.8578,-3.8496,-3.8465,-3.8541,-3.8725,-3.8862,-3.9007,-3.9175,-3.9346,-3.932,-3.9229,-3.9156,-3.8979,-3.881,-3.8707,-3.8546,-3.7949,-3.9826,-3.9848,-3.9867,-3.9848,-3.9867,-3.9845,-3.9773,-3.9693,-3.9698,-3.965,-3.9533,-3.9577,-3.962,-3.947,-3.8182,-3.7547,-3.7281,-3.6074,-3.5291,-3.496,-3.4913,-3.4037,-3.253,-3.1991,-3.0983,-2.9747,-2.9246,-2.9093,-2.9272,-2.9293,-2.9394,-2.9589,-2.9626,-2.9626,-2.9607,-2.9334,-2.923,-2.9233,-2.916,-2.9067,-2.9017,-2.8975,-2.8947,-2.8876,-2.8834,-2.8785,-2.8712,-2.8785,-2.8834,-2.8834,-2.8947,-2.8975,-2.8975,-2.8975,-2.8975,-2.8975,-2.8975,-2.8975,-2.8975,-2.8975,-2.8975,-2.8975,-2.8975,-2.8975,-2.9017,-2.9304,-2.9724,-3.0337,-3.1052,-3.1796,-3.2603,-3.4027,-3.5064,-3.5293,-3.6064,-3.667,-3.6872,-3.7404,-3.7771,-3.7826,-3.834,-3.8689,-3.8707,-3.8707,-3.8707,-3.8707,-3.8707,-3.875,-3.8822,-3.8881,-3.895,-3.9064,-3.9266,-3.9239,-3.9007,-3.8979,-3.8862,-3.8572,-3.8609,-3.8627,-3.8546,-3.8652,-3.8833,-3.895,-3.9017,-3.9156,-3.9328,-3.9248,-3.9129,-3.9073,-3.8892,-3.8719,-3.8627,-3.8515,-3.8204,-3.9623,-3.9717,-3.9717,-3.9739,-3.9804,-3.9848,-3.9777,-3.9674,-3.9708,-3.9551,-3.935,-3.9489,-3.9596,-3.9577,-3.9207,-3.8981,-3.8973,-3.8774,-3.7899,-3.6708,-3.6411,-3.5488,-3.3937,-3.2275,-3.136,-3.0968,-2.9696,-2.9093,-2.9291,-2.9275,-2.9332,-2.9334,-2.9334,-2.9334,-2.9332,-2.9064,-2.8997,-2.9107,-2.892,-2.8887,-2.8994,-2.8975,-2.8994,-2.8994,-2.8994,-2.8994,-2.8947,-2.8952,-2.8994,-2.8994,-2.8994,-2.8975,-2.8975,-2.8975,-2.8975,-2.8975,-2.8975,-2.8975,-2.8975,-2.8975,-2.8975,-2.8975,-2.8975,-2.8975,-2.9012,-2.9701,-3.0123,-3.0436,-3.1005,-3.1831,-3.2596,-3.411,-3.5385,-3.6119,-3.6909,-3.7661,-3.823,-3.856,-3.8597,-3.8597,-3.8634,-3.8707,-3.8707,-3.8707,-3.8707,-3.8707,-3.8707,-3.8689,-3.8738,-3.8932,-3.9039,-3.8995,-3.9005,-3.9024,-3.8929,-3.881,-3.878,-3.8689,-3.8707,-3.8676,-3.8689,-3.8762,-3.8921,-3.8979,-3.9045,-3.9129,-3.9192,-3.921,-3.9092,-3.9007,-3.8881,-3.8732,-3.8496,-3.8433,-3.8277,-3.9556,-3.9693,-3.9623,-3.9575,-3.9575,-3.9575,-3.9521,-3.9413,-3.9395,-3.9324,-3.921,-3.9264,-3.929,-3.929,-3.921,-3.9156,-3.9045,-3.9007,-3.8674,-3.8099,-3.7951,-3.7082,-3.5499,-3.3795,-3.2477,-3.1311,-2.9716,-2.8957,-2.9097,-2.9082,-2.9064,-2.9064,-2.9064,-2.9064,-2.9042,-2.8902,-2.8874,-2.892,-2.8767,-2.8694,-2.8761,-2.8779,-2.8761,-2.8761,-2.8761,-2.8779,-2.8761,-2.8761,-2.8804,-2.8858,-2.89,-2.8923,-2.8994,-2.8975,-2.8975,-2.8975,-2.8975,-2.8975,-2.8975,-2.8975,-2.8975,-2.8975,-2.8975,-2.8975,-2.9012,-2.9751,-3.0558,-3.1513,-3.1916,-3.2614,-3.3899,-3.5092,-3.6083,-3.6927,-3.7716,-3.834,-3.8634,-3.8707,-3.8707,-3.8707,-3.8707,-3.8707,-3.8707,-3.8707,-3.8707,-3.8707,-3.8726,-3.8781,-3.8744,-3.9136,-3.9491,-3.9656,-3.9927,-3.9761,-3.9158,-3.8851,-3.878,-3.8738,-3.8707,-3.8707,-3.8707,-3.8738,-3.8822,-3.895,-3.8979,-3.9017,-3.9156,-3.9073,-3.8979,-3.891,-3.884,-3.8689,-3.8478,-3.8528,-3.8515,-4.0152,-4.0233,-3.9977,-3.9683,-3.9446,-3.9401,-3.9324,-3.9237,-3.921,-3.9129,-3.9064,-3.9045,-3.9017,-3.8989,-3.9017,-3.9007,-3.8892,-3.8851,-3.8881,-3.891,-3.8881,-3.8206,-3.6989,-3.5395,-3.3687,-3.1942,-3.0243,-2.9247,-2.9007,-2.8925,-2.8865,-2.8837,-2.8814,-2.8814,-2.879,-2.8707,-2.8669,-2.8743,-2.8587,-2.8502,-2.8484,-2.8484,-2.8528,-2.8605,-2.8587,-2.8587,-2.8587,-2.8587,-2.8656,-2.8737,-2.8755,-2.881,-2.8947,-2.8923,-2.8881,-2.89,-2.897,-2.8975,-2.8947,-2.8994,-2.8975,-2.9012,-2.9177,-2.9347,-2.9512,-3.0265,-3.1439,-3.2687,-3.3146,-3.3872,-3.5165,-3.6119,-3.6872,-3.7459,-3.8212,-3.8689,-3.8707,-3.8707,-3.8707,-3.8707,-3.8707,-3.8707,-3.8744,-3.8909,-3.9074,-3.9074,-3.9258,-3.9368,-3.9423,-3.9882,-4.0294,-4.0369,-4.079,-4.0515,-3.9478,-3.9239,-3.9086,-3.8768,-3.8707,-3.8707,-3.8707,-3.8707,-3.875,-3.891,-3.8862,-3.8892,-3.9007,-3.895,-3.8851,-3.8822,-3.878,-3.8689,-3.859,-3.8658,-3.8658,-4.1595,-4.1567,-4.1008,-4.0246,-3.9477,-3.9439,-3.9369,-3.9245,-3.921,-3.9073,-3.8921,-3.8892,-3.884,-3.8738,-3.8833,-3.8892,-3.8881,-3.878,-3.878,-3.8833,-3.875,-3.8634,-3.8414,-3.676,-3.5005,-3.327,-3.1473,-3.0041,-2.8864,-2.8855,-2.8808,-2.8626,-2.8601,-2.8601,-2.8576,-2.838,-2.8353,-2.8543,-2.8353,-2.8254,-2.8237,-2.8237,-2.8345,-2.8536,-2.8587,-2.8587,-2.8587,-2.8587,-2.8587,-2.863,-2.8612,-2.8662,-2.8785,-2.8687,-2.8656,-2.8662,-2.8876,-2.8947,-2.8852,-2.8905,-2.9012,-2.9104,-2.9677,-3.0136,-3.0246,-3.1458,-3.2669,-3.366,-3.4385,-3.5192,-3.6211,-3.689,-3.7386,-3.7588,-3.8248,-3.8652,-3.8707,-3.8707,-3.8707,-3.8707,-3.8707,-3.8707,-3.8726,-3.9368,-3.9662,-3.9882,-4.0432,-4.0855,-4.0781,-4.0946,-4.1056,-4.1075,-4.1111,-4.0868,-4.0216,-3.978,-3.943,-3.9093,-3.8872,-3.8707,-3.8707,-3.8707,-3.878,-3.884,-3.878,-3.878,-3.8851,-3.8822,-3.875,-3.8719,-3.8719,-3.8658,-3.864,-3.8658,-3.8658,-4.1619,-4.1659,-4.1418,-4.0775,-3.9928,-3.9853,-3.9517,-3.8939,-3.8862,-3.8822,-3.878,-3.878,-3.867,-3.8515,-3.8559,-3.867,-3.875,-3.8578,-3.8528,-3.8541,-3.8382,-3.8318,-3.8103,-3.6585,-3.5525,-3.4594,-3.2137,-2.998,-2.855,-2.844,-2.8414,-2.8353,-2.8353,-2.8353,-2.8327,-2.8264,-2.8264,-2.8327,-2.8219,-2.8182,-2.8182,-2.8182,-2.8237,-2.8345,-2.8345,-2.8327,-2.8362,-2.8345,-2.8398,-2.8458,-2.8458,-2.8536,-2.8637,-2.8612,-2.8587,-2.8612,-2.8687,-2.8712,-2.8687,-2.8804,-2.9095,-2.9613,-2.996,-3.0467,-3.0999,-3.199,-3.312,-3.4348,-3.5349,-3.6358,-3.7422,-3.7661,-3.7649,-3.8052,-3.8444,-3.8627,-3.8546,-3.8627,-3.8707,-3.8707,-3.8707,-3.8707,-3.8909,-3.9423,-3.9863,-3.9974,-4.0616,-4.1093,-4.124,-4.1515,-4.1864,-4.1974,-4.2286,-4.2375,-4.1599,-4.0478,-3.9735,-3.9441,-3.9184,-3.8836,-3.8707,-3.8707,-3.875,-3.875,-3.8738,-3.8738,-3.878,-3.878,-3.8707,-3.8707,-3.8707,-3.8707,-3.8707,-3.8658,-3.8627,-4.2203,-4.1999,-4.1969,-4.126,-4.0226,-4.0111,-3.9559,-3.8787,-3.8719,-3.8658,-3.8627,-3.8627,-3.8465,-3.8318,-3.8318,-3.8401,-3.8483,-3.835,-3.8318,-3.8267,-3.8168,-3.8086,-3.7889,-3.6934,-3.6107,-3.5105,-3.2206,-3.0027,-2.8976,-2.8431,-2.82,-2.8209,-2.8182,-2.8182,-2.8182,-2.8182,-2.8182,-2.8182,-2.8182,-2.8182,-2.8182,-2.8182,-2.8182,-2.8182,-2.8182,-2.8182,-2.8182,-2.8182,-2.8254,-2.8318,-2.8327,-2.8371,-2.8458,-2.8562,-2.8562,-2.8484,-2.858,-2.8562,-2.8562,-2.8687,-2.9156,-2.9922,-3.0393,-3.0907,-3.1715,-3.2761,-3.3963,-3.5238,-3.6193,-3.7276,-3.8193,-3.8193,-3.8022,-3.8355,-3.8546,-3.8515,-3.8332,-3.8401,-3.8515,-3.8632,-3.8951,-3.9074,-3.9221,-4.0084,-4.0598,-4.0671,-4.1368,-4.1846,-4.1974,-4.2286,-4.2671,-4.2708,-4.3075,-4.3112,-4.2595,-4.164,-4.0377,-3.9937,-3.9239,-3.8891,-3.8707,-3.8707,-3.8707,-3.8707,-3.8707,-3.8707,-3.8707,-3.8707,-3.8707,-3.8707,-3.8707,-3.8707,-3.8658,-3.8627,-3.8546,-4.3503,-4.2823,-4.2743,-4.1871,-4.063,-4.0339,-3.9669,-3.9098,-3.883,-3.8693,-3.8597,-3.8419,-3.8285,-3.8153,-3.8119,-3.8119,-3.8101,-3.8068,-3.8101,-3.8101,-3.8068,-3.8002,-3.7863,-3.7719,-3.6752,-3.5184,-3.2152,-3.0672,-3.0475,-2.9191,-2.8431,-2.8307,-2.8253,-2.8182,-2.8182,-2.8182,-2.8182,-2.8182,-2.8182,-2.8182,-2.8182,-2.8182,-2.8182,-2.8182,-2.8182,-2.8182,-2.8182,-2.8182,-2.8209,-2.8209,-2.8227,-2.8182,-2.8264,-2.8432,-2.8484,-2.8318,-2.8432,-2.851,-2.8432,-2.863,-2.9125,-3.005,-3.0833,-3.1591,-3.2606,-3.3881,-3.5109,-3.597,-3.6813,-3.7759,-3.8407,-3.8554,-3.8504,-3.8433,-3.8465,-3.8382,-3.8168,-3.8119,-3.8186,-3.8532,-3.926,-3.9845,-4.0212,-4.1093,-4.1882,-4.2084,-4.2653,-4.3149,-4.3094,-4.3222,-4.3406,-4.3406,-4.3424,-4.3351,-4.3112,-4.2727,-4.1479,-4.0377,-3.9515,-3.8909,-3.8744,-3.8707,-3.8707,-3.8707,-3.8707,-3.8707,-3.8707,-3.8707,-3.8707,-3.8707,-3.8707,-3.8658,-3.8578,-3.8546,-3.8433,-4.3825,-4.3558,-4.3526,-4.2852,-4.1828,-4.1678,-4.1089,-4.017,-3.9593,-3.9188,-3.8946,-3.8437,-3.8138,-3.7967,-3.7951,-3.7898,-3.7739,-3.7739,-3.7828,-3.7898,-3.7828,-3.7757,-3.7703,-3.7703,-3.6827,-3.5311,-3.4276,-3.3152,-3.201,-3.0547,-2.9768,-2.9637,-2.8709,-2.8217,-2.8182,-2.8182,-2.8182,-2.8182,-2.8182,-2.8182,-2.8182,-2.8182,-2.8182,-2.8182,-2.8182,-2.8182,-2.8182,-2.8182,-2.8182,-2.8182,-2.8182,-2.8182,-2.8209,-2.8291,-2.8291,-2.8209,-2.8264,-2.8318,-2.8291,-2.846,-2.9184,-3.0376,-3.0992,-3.1828,-3.3104,-3.4142,-3.5048,-3.5897,-3.6648,-3.743,-3.8085,-3.8285,-3.8318,-3.8382,-3.8496,-3.8433,-3.8189,-3.8572,-3.8932,-3.9093,-3.9899,-4.0437,-4.069,-4.1653,-4.2323,-4.2433,-4.3002,-4.3461,-4.3479,-4.3479,-4.3479,-4.3479,-4.3479,-4.3479,-4.3277,-4.2983,-4.2139,-4.113,-4.023,-3.9294,-3.9038,-3.8872,-3.8836,-3.8707,-3.8707,-3.8707,-3.8707,-3.8707,-3.8707,-3.8707,-3.8676,-3.8627,-3.8496,-3.8401,-3.8303,-4.3929,-4.3851,-4.38,-4.3051,-4.1963,-4.1842,-4.1052,-3.9972,-3.9613,-3.9238,-3.8775,-3.8578,-3.8167,-3.7864,-3.7775,-3.7703,-3.7613,-3.7577,-3.7667,-3.7739,-3.7667,-3.7577,-3.7577,-3.7577,-3.7148,-3.6149,-3.5489,-3.4722,-3.3723,-3.2188,-3.1082,-3.0386,-2.953,-2.8717,-2.8271,-2.8182,-2.8182,-2.8182,-2.8182,-2.8182,-2.8182,-2.8182,-2.8182,-2.8182,-2.8182,-2.8182,-2.8182,-2.8182,-2.8182,-2.8182,-2.8182,-2.8182,-2.8182,-2.8182,-2.8182,-2.8182,-2.8182,-2.82,-2.8245,-2.8649,-2.9386,-3.0677,-3.1229,-3.2009,-3.3382,-3.4311,-3.5258,-3.5797,-3.6761,-3.7576,-3.7993,-3.8101,-3.8168,-3.8267,-3.8303,-3.8289,-3.816,-3.8722,-3.9173,-3.9478,-4.0362,-4.0995,-4.1391,-4.199,-4.264,-4.2803,-4.3167,-4.3479,-4.3479,-4.3479,-4.3479,-4.3479,-4.3479,-4.3479,-4.3442,-4.3112,-4.269,-4.1901,-4.1075,-4.0157,-3.9515,-3.9386,-3.9313,-3.8854,-3.8707,-3.8707,-3.8707,-3.8707,-3.8707,-3.8676,-3.8627,-3.8546,-3.8433,-3.8256,-3.8122,-4.3818,-4.3753,-4.3634,-4.2669,-4.1266,-4.1058,-4.0175,-3.8819,-3.9059,-3.8832,-3.8312,-3.8528,-3.8348,-3.772,-3.7613,-3.7613,-3.7577,-3.7577,-3.7577,-3.7613,-3.7577,-3.7577,-3.7577,-3.7577,-3.747,-3.7184,-3.6096,-3.5471,-3.5257,-3.3758,-3.2206,-3.0921,-3.0493,-2.969,-2.8485,-2.8182,-2.8182,-2.8182,-2.8182,-2.8182,-2.8182,-2.8182,-2.8182,-2.8182,-2.8182,-2.8182,-2.8182,-2.8182,-2.8182,-2.8182,-2.8182,-2.8182,-2.8182,-2.8182,-2.8182,-2.8182,-2.8182,-2.8182,-2.837,-2.8792,-2.9727,-3.0728,-3.1452,-3.2531,-3.349,-3.4744,-3.5616,-3.5955,-3.713,-3.798,-3.8016,-3.8034,-3.8034,-3.8034,-3.8002,-3.7969,-3.7971,-3.8618,-3.9211,-3.9625,-4.0691,-4.1814,-4.1959,-4.2668,-4.3067,-4.3301,-4.3355,-4.3426,-4.3444,-4.3444,-4.3479,-4.3479,-4.3479,-4.3479,-4.3461,-4.3387,-4.3002,-4.269,-4.1901,-4.1038,-3.9918,-3.9588,-3.9368,-3.8946,-3.8658,-3.8658,-3.8676,-3.8658,-3.8627,-3.8627,-3.8546,-3.8415,-3.8271,-3.8088,-3.7969,-4.3477,-4.3214,-4.3178,-4.2523,-4.1614,-4.1488,-4.08,-3.977,-3.9265,-3.8887,-3.8544,-3.8096,-3.7917,-3.7649,-3.7577,-3.7577,-3.7577,-3.7577,-3.7577,-3.7577,-3.7577,-3.7577,-3.7577,-3.7577,-3.7577,-3.747,-3.7077,-3.697,-3.6827,-3.5328,-3.3794,-3.2259,-3.1207,-2.9822,-2.8413,-2.8271,-2.8182,-2.8182,-2.8182,-2.8182,-2.8182,-2.8182,-2.8182,-2.8182,-2.8182,-2.8182,-2.8182,-2.8182,-2.8182,-2.8182,-2.8182,-2.8182,-2.8182,-2.8182,-2.8182,-2.8182,-2.8182,-2.8182,-2.8263,-2.8487,-2.9285,-3.0582,-3.1063,-3.1853,-3.3921,-3.4849,-3.5623,-3.6199,-3.7166,-3.7739,-3.7757,-3.7739,-3.7757,-3.7757,-3.7792,-3.79,-3.8133,-3.8921,-3.9669,-3.9906,-4.1315,-4.215,-4.2461,-4.2701,-4.2995,-4.3069,-4.3196,-4.3304,-4.3304,-4.341,-4.3444,-4.3479,-4.3479,-4.3479,-4.3479,-4.3479,-4.3406,-4.3314,-4.2708,-4.1886,-4.0565,-3.9441,-3.9129,-3.8726,-3.8564,-3.8546,-3.8564,-3.8596,-3.8546,-3.8433,-3.8285,-3.8135,-3.807,-3.7934,-3.781,-4.3196,-4.2921,-4.2595,-4.194,-4.1143,-4.0782,-4.0077,-3.9282,-3.9066,-3.8669,-3.8308,-3.8219,-3.7898,-3.7612,-3.7577,-3.7577,-3.7577,-3.7577,-3.7577,-3.7577,-3.7577,-3.7577,-3.7577,-3.7577,-3.7577,-3.7577,-3.7577,-3.7559,-3.7416,-3.6613,-3.54,-3.4026,-3.2938,-3.1367,-2.9351,-2.9173,-2.8798,-2.8324,-2.8182,-2.8182,-2.8182,-2.8182,-2.8182,-2.8182,-2.8182,-2.8182,-2.8182,-2.8182,-2.8182,-2.8182,-2.8182,-2.8182,-2.8182,-2.8182,-2.8182,-2.8182,-2.8182,-2.8182,-2.8271,-2.8495,-2.929,-3.0521,-3.1023,-3.2375,-3.3945,-3.5059,-3.5989,-3.6345,-3.7131,-3.7505,-3.7577,-3.7577,-3.7577,-3.7613,-3.7703,-3.7954,-3.8277,-3.9278,-4.0024,-4.0692,-4.1608,-4.253,-4.257,-4.2709,-4.2786,-4.29,-4.2995,-4.3123,-4.3214,-4.3304,-4.3375,-4.341,-4.341,-4.3375,-4.3339,-4.3339,-4.3304,-4.3249,-4.2866,-4.2172,-4.1107,-3.9607,-3.9077,-3.8771,-3.8561,-3.8401,-3.8368,-3.8336,-3.8186,-3.8068,-3.7966,-3.7862,-3.7792,-3.7703,-3.7631,-4.2793,-4.2645,-4.1867,-4.0979,-4.0092,-3.9373,-3.8671,-3.7899,-3.8363,-3.8255,-3.7862,-3.8362,-3.8112,-3.7594,-3.7577,-3.7577,-3.7577,-3.7577,-3.7577,-3.7577,-3.7577,-3.7577,-3.7577,-3.7577,-3.7577,-3.7577,-3.7577,-3.7577,-3.7523,-3.747,-3.6631,-3.5293,-3.4918,-3.3348,-3.085,-3.0332,-2.9637,-2.8431,-2.8182,-2.8182,-2.8182,-2.8182,-2.8182,-2.8182,-2.8182,-2.8182,-2.8182,-2.8182,-2.8182,-2.8182,-2.8182,-2.8182,-2.8182,-2.8182,-2.8182,-2.8182,-2.8182,-2.8182,-2.8307,-2.8905,-2.9762,-3.0737,-3.2076,-3.3366,-3.4436,-3.5632,-3.6363,-3.6649,-3.7202,-3.7523,-3.7577,-3.7577,-3.7577,-3.7612,-3.7684,-3.8204,-3.8958,-3.9562,-4.0295,-4.1238,-4.1908,-4.232,-4.249,-4.257,-4.2631,-4.267,-4.2768,-4.29,-4.3013,-4.3087,-4.3178,-4.325,-4.3268,-4.3251,-4.3214,-4.3178,-4.3123,-4.3014,-4.2595,-4.1996,-4.1358,-4.0193,-3.9392,-3.8922,-3.8731,-3.8409,-3.8034,-3.7966,-3.7827,-3.7756,-3.7739,-3.7631,-3.754,-3.7484,-3.741,-4.1751,-4.1429,-4.062,-3.9851,-3.9169,-3.8936,-3.8363,-3.7667,-3.7791,-3.7791,-3.7666,-3.7791,-3.7755,-3.7577,-3.7577,-3.7577,-3.7577,-3.7577,-3.7577,-3.7577,-3.7577,-3.7577,-3.7577,-3.7577,-3.7577,-3.7577,-3.7577,-3.7577,-3.7577,-3.7452,-3.6809,-3.5507,-3.5096,-3.3705,-3.1153,-3.0743,-2.9762,-2.8485,-2.8334,-2.8396,-2.8342,-2.8342,-2.8289,-2.82,-2.8182,-2.8182,-2.8182,-2.8182,-2.8182,-2.8182,-2.8182,-2.8182,-2.8182,-2.8182,-2.8182,-2.8182,-2.8182,-2.8182,-2.8342,-2.9048,-3.0029,-3.1367,-3.2491,-3.3773,-3.5721,-3.6149,-3.6738,-3.7148,-3.7487,-3.7577,-3.7577,-3.7577,-3.7577,-3.7666,-3.813,-3.8772,-3.9506,-3.9807,-4.0381,-4.1114,-4.1828,-4.2328,-4.2369,-4.2369,-4.2432,-4.2432,-4.2552,-4.267,-4.2786,-4.29,-4.2957,-4.3014,-4.2957,-4.292,-4.29,-4.2862,-4.2786,-4.2729,-4.2325,-4.1995,-4.1319,-4.0781,-3.9968,-3.9374,-3.8923,-3.8528,-3.8026,-3.7703,-3.7595,-3.754,-3.7503,-3.7429,-3.7317,-3.7297,-3.7259,-4.1053,-4.0467,-3.9718,-3.9182,-3.879,-3.8415,-3.7987,-3.763,-3.7577,-3.7577,-3.7577,-3.7577,-3.7577,-3.7577,-3.7577,-3.7577,-3.7577,-3.7577,-3.7577,-3.7577,-3.7577,-3.7577,-3.7577,-3.7577,-3.7577,-3.7577,-3.7577,-3.7577,-3.7577,-3.7541,-3.7202,-3.6292,-3.5632,-3.4579,-3.2759,-3.1992,-3.1332,-3.0743,-3.0386,-3.0101,-2.9423,-2.928,-2.878,-2.8324,-2.8182,-2.8182,-2.8182,-2.8182,-2.8182,-2.8182,-2.8182,-2.8182,-2.8182,-2.8182,-2.8182,-2.8182,-2.8182,-2.8441,-2.8798,-2.953,-3.0618,-3.2135,-3.3294,-3.4704,-3.6078,-3.6702,-3.7113,-3.7452,-3.7577,-3.7577,-3.7577,-3.7577,-3.7577,-3.7737,-3.8326,-3.9111,-3.9771,-4.0235,-4.0788,-4.1484,-4.2037,-4.2234,-4.2287,-4.2287,-4.2328,-4.2409,-4.2391,-4.2472,-4.2591,-4.2691,-4.2711,-4.275,-4.2634,-4.2613,-4.2552,-4.2512,-4.2432,-4.2333,-4.2162,-4.1896,-4.1517,-4.1042,-4.0544,-3.9857,-3.9097,-3.8572,-3.8102,-3.7745,-3.7372,-3.7279,-3.7203,-3.7164,-3.7143,-3.7143,-3.7143,-4.036,-3.9682,-3.8933,-3.8611,-3.8522,-3.7898,-3.7612,-3.7577,-3.7577,-3.7577,-3.7577,-3.7577,-3.7577,-3.7577,-3.7577,-3.7577,-3.7577,-3.7577,-3.7577,-3.7577,-3.7577,-3.7577,-3.7577,-3.7577,-3.7577,-3.7577,-3.7577,-3.7577,-3.7577,-3.7541,-3.7238,-3.6988,-3.6292,-3.5061,-3.4543,-3.3937,-3.292,-3.2474,-3.2362,-3.201,-3.0921,-3.0547,-2.9619,-2.8449,-2.8182,-2.8182,-2.8182,-2.8182,-2.8182,-2.8182,-2.8182,-2.8182,-2.8182,-2.8182,-2.8182,-2.8182,-2.8182,-2.8548,-2.928,-3.019,-3.1367,-3.2987,-3.4472,-3.565,-3.6542,-3.7113,-3.7416,-3.7523,-3.7577,-3.7577,-3.7577,-3.7577,-3.7577,-3.7773,-3.8397,-3.92,-3.9896,-4.0699,-4.1556,-4.2019,-4.2198,-4.2269,-4.2287,-4.2287,-4.2287,-4.2287,-4.2287,-4.231,-4.2432,-4.2472,-4.2454,-4.2396,-4.2292,-4.2192,-4.2145,-4.2145,-4.2061,-4.2019,-4.1917,-4.1796,-4.1613,-4.1339,-4.0848,-3.9881,-3.9177,-3.8651,-3.8064,-3.7482,-3.714,-3.7027,-3.7009,-3.7048,-3.7048,-3.7009,-3.7027,-3.9111,-3.8933,-3.813,-3.7791,-3.7773,-3.763,-3.7577,-3.7577,-3.7577,-3.7577,-3.7577,-3.7577,-3.7577,-3.7577,-3.7577,-3.7577,-3.7577,-3.7577,-3.7577,-3.7577,-3.7577,-3.7577,-3.7577,-3.7577,-3.7577,-3.7577,-3.7577,-3.7577,-3.7577,-3.7541,-3.7095,-3.6185,-3.6488,-3.5917,-3.4597,-3.4079,-3.4133,-3.3633,-3.3452,-3.308,-3.242,-3.1118,-2.9922,-2.852,-2.8324,-2.8182,-2.8182,-2.8182,-2.8182,-2.8182,-2.8182,-2.8182,-2.8253,-2.8253,-2.836,-2.8396,-2.8431,-2.8887,-2.9904,-3.0939,-3.2259,-3.3776,-3.5328,-3.647,-3.7166,-3.7506,-3.7559,-3.7577,-3.7577,-3.7577,-3.7577,-3.7577,-3.7577,-3.7898,-3.8772,-3.9682,-4.011,-4.1056,-4.1984,-4.2251,-4.2287,-4.2287,-4.2287,-4.2287,-4.2287,-4.2287,-4.2287,-4.2246,-4.2228,-4.2228,-4.2145,-4.2019,-4.1892,-4.1805,-4.1719,-4.1719,-4.1719,-4.1762,-4.1719,-4.1719,-4.1613,-4.1613,-4.1094,-4.0123,-3.9329,-3.8737,-3.8081,-3.7413,-3.7079,-3.6987,-3.697,-3.697,-3.697,-3.697,-3.697,-3.8558,-3.8148,-3.7737,-3.7577,-3.7577,-3.7577,-3.7577,-3.7577,-3.7577,-3.7577,-3.7577,-3.7577,-3.7577,-3.7577,-3.7577,-3.7577,-3.7577,-3.7577,-3.7577,-3.7577,-3.7577,-3.7577,-3.7577,-3.7577,-3.7577,-3.7577,-3.7577,-3.7577,-3.7577,-3.7577,-3.7041,-3.6649,-3.656,-3.5882,-3.5382,-3.5204,-3.5382,-3.5007,-3.5202,-3.4722,-3.3812,-3.1813,-3.0101,-2.9494,-2.8592,-2.8217,-2.8182,-2.8182,-2.8182,-2.8182,-2.8182,-2.82,-2.8449,-2.8948,-2.9423,-2.9458,-2.944,-3.0172,-3.1581,-3.2938,-3.4097,-3.5168,-3.6381,-3.7077,-3.7452,-3.7577,-3.7577,-3.7577,-3.7577,-3.7577,-3.7577,-3.7577,-3.7577,-3.7844,-3.8968,-3.9771,-4.0253,-4.1413,-4.2002,-4.2287,-4.2287,-4.2287,-4.2287,-4.2287,-4.2287,-4.2287,-4.2287,-4.2205,-4.2121,-4.2037,-4.197,-4.1866,-4.178,-4.1692,-4.1604,-4.1604,-4.1604,-4.1604,-4.1604,-4.1604,-4.1604,-4.1604,-4.113,-4.033,-3.9603,-3.8901,-3.8444,-3.7865,-3.7426,-3.697,-3.697,-3.697,-3.697,-3.697,-3.697,-3.8183,-3.7577,-3.7577,-3.7577,-3.7577,-3.7577,-3.7577,-3.7577,-3.7577,-3.7577,-3.7577,-3.7577,-3.7577,-3.7577,-3.7577,-3.7577,-3.7577,-3.7577,-3.7577,-3.7577,-3.7577,-3.7577,-3.7577,-3.7577,-3.7577,-3.7577,-3.7577,-3.7577,-3.7523,-3.7327,-3.722,-3.6667,-3.5721,-3.5846,-3.6399,-3.606,-3.6613,-3.7041,-3.7131,-3.6221,-3.4062,-3.1938,-3.0493,-3.0475,-2.9287,-2.8859,-2.9476,-2.9565,-2.953,-2.9494,-2.9405,-2.9298,-2.9387,-3.0332,-3.11,-3.1332,-3.1171,-3.2206,-3.3491,-3.4597,-3.5221,-3.6078,-3.7059,-3.747,-3.7559,-3.7577,-3.7577,-3.7577,-3.7577,-3.7577,-3.7577,-3.7577,-3.7577,-3.7898,-3.8879,-3.9985,-4.0324,-4.1109,-4.2055,-4.2269,-4.2287,-4.2246,-4.2246,-4.2181,-4.2181,-4.2181,-4.2139,-4.2079,-4.2012,-4.197,-4.1884,-4.178,-4.1692,-4.1648,-4.1604,-4.1604,-4.1604,-4.1604,-4.1604,-4.1604,-4.1604,-4.1604,-4.1007,-4.0428,-3.9743,-3.9076,-3.869,-3.8146,-3.7426,-3.697,-3.697,-3.697,-3.697,-3.697,-3.697,-3.7666,-3.7577,-3.7577,-3.7577,-3.7577,-3.7577,-3.7577,-3.7577,-3.7577,-3.7577,-3.7577,-3.7577,-3.7577,-3.7577,-3.7577,-3.7577,-3.7577,-3.7577,-3.7577,-3.7577,-3.7577,-3.7577,-3.7577,-3.7577,-3.7577,-3.7577,-3.7577,-3.7577,-3.7487,-3.6988,-3.6328,-3.5935,-3.6292,-3.6167,-3.6149,-3.6684,-3.7417,-3.7327,-3.6292,-3.4331,-3.2068,-3.1159,-3.0856,-3.0695,-3.0499,-3.0695,-3.1581,-3.1724,-3.1831,-3.1974,-3.2117,-3.2259,-3.2384,-3.2438,-3.3419,-3.3776,-3.3633,-3.3045,-3.424,-3.5096,-3.5757,-3.6524,-3.7184,-3.7505,-3.7577,-3.7577,-3.7577,-3.7577,-3.7577,-3.7577,-3.7577,-3.7577,-3.7577,-3.8076,-3.8933,-3.97,-4.0125,-4.1212,-4.2062,-4.2145,-4.2121,-4.2121,-4.2121,-4.2055,-4.2048,-4.203,-4.203,-4.197,-4.1884,-4.1841,-4.1815,-4.1692,-4.1648,-4.1604,-4.1604,-4.1604,-4.1604,-4.1604,-4.1604,-4.1587,-4.1552,-4.1464,-4.1113,-4.0516,-3.9719,-3.8923,-3.8303,-3.7691,-3.7158,-3.697,-3.6891,-3.693,-3.697,-3.697,-3.6891,-3.7577,-3.7577,-3.7577,-3.7577,-3.7577,-3.7577,-3.7577,-3.7577,-3.7577,-3.7577,-3.7577,-3.7577,-3.7577,-3.7577,-3.7577,-3.7577,-3.7577,-3.7577,-3.7577,-3.7577,-3.7577,-3.7577,-3.7577,-3.7577,-3.7577,-3.7577,-3.7577,-3.7577,-3.7434,-3.7273,-3.6827,-3.6649,-3.6827,-3.6988,-3.6399,-3.7184,-3.7451,-3.7325,-3.6718,-3.5758,-3.4462,-3.3468,-3.2953,-3.29,-3.2133,-3.2289,-3.2731,-3.2884,-3.2916,-3.2916,-3.2916,-3.2898,-3.3134,-3.3633,-3.4579,-3.4989,-3.556,-3.5739,-3.6131,-3.6345,-3.6649,-3.6916,-3.738,-3.7559,-3.7577,-3.7577,-3.7577,-3.7577,-3.7577,-3.7577,-3.754,-3.7577,-3.7577,-3.8023,-3.8963,-3.9551,-4.0228,-4.1345,-4.2163,-4.2079,-4.1995,-4.1995,-4.1952,-4.197,-4.1945,-4.1945,-4.1945,-4.1902,-4.1841,-4.1736,-4.1692,-4.1648,-4.1604,-4.1604,-4.1604,-4.1604,-4.1604,-4.1604,-4.1542,-4.1525,-4.1464,-4.1288,-4.0841,-4.0053,-3.9085,-3.8363,-3.7781,-3.7341,-3.6841,-3.6794,-3.6794,-3.6673,-3.6574,-3.6591,-3.6451,-3.7577,-3.7577,-3.7577,-3.7577,-3.7577,-3.7577,-3.7577,-3.7577,-3.7577,-3.7577,-3.7577,-3.7577,-3.7577,-3.7577,-3.7577,-3.7577,-3.7577,-3.7577,-3.7577,-3.7577,-3.7577,-3.7577,-3.7577,-3.7577,-3.7577,-3.7577,-3.7577,-3.754,-3.7449,-3.7395,-3.736,-3.7559,-3.7095,-3.7309,-3.7487,-3.736,-3.7177,-3.6392,-3.6412,-3.6022,-3.542,-3.4553,-3.4464,-3.434,-3.3984,-3.3468,-3.3857,-3.4153,-3.4255,-3.4072,-3.4178,-3.4234,-3.4217,-3.4834,-3.5328,-3.5735,-3.6339,-3.6948,-3.7074,-3.7217,-3.7559,-3.7577,-3.7577,-3.754,-3.7374,-3.7411,-3.7319,-3.715,-3.7167,-3.7167,-3.7261,-3.7206,-3.7421,-3.7934,-3.8862,-3.9487,-4.0197,-4.1333,-4.2019,-4.1952,-4.1866,-4.1823,-4.1841,-4.1841,-4.1858,-4.1858,-4.1858,-4.1858,-4.1754,-4.1648,-4.1648,-4.1604,-4.1604,-4.1604,-4.1604,-4.1604,-4.1604,-4.1498,-4.1453,-4.1373,-4.1196,-4.0833,-4.0291,-3.9444,-3.8442,-3.7826,-3.7298,-3.6938,-3.655,-3.6367,-3.6241,-3.6097,-3.6054,-3.6071,-3.6028,-3.7577,-3.7577,-3.7577,-3.7577,-3.7577,-3.7577,-3.7577,-3.7577,-3.7577,-3.7577,-3.7577,-3.7577,-3.7577,-3.7577,-3.7577,-3.7577,-3.7577,-3.7577,-3.7577,-3.7577,-3.7577,-3.7558,-3.7558,-3.7503,-3.754,-3.7503,-3.7466,-3.7299,-3.7185,-3.7147,-3.7299,-3.7487,-3.693,-3.7076,-3.7143,-3.7055,-3.6317,-3.5647,-3.5515,-3.4888,-3.4182,-3.3617,-3.3935,-3.4836,-3.5102,-3.5581,-3.6877,-3.6665,-3.6378,-3.6007,-3.5937,-3.5822,-3.554,-3.5757,-3.5948,-3.6185,-3.6484,-3.6939,-3.6978,-3.7281,-3.754,-3.7577,-3.7485,-3.7281,-3.6995,-3.6956,-3.6781,-3.6522,-3.6563,-3.6481,-3.644,-3.6409,-3.6946,-3.7677,-3.8558,-3.9376,-4.0194,-4.1304,-4.1881,-4.1823,-4.1797,-4.1754,-4.1692,-4.1754,-4.1754,-4.1754,-4.1754,-4.171,-4.171,-4.1604,-4.1604,-4.1604,-4.1604,-4.1604,-4.1604,-4.156,-4.1391,-4.1192,-4.1053,-4.0943,-4.0814,-4.035,-3.9696,-3.887,-3.7984,-3.7403,-3.6738,-3.609,-3.5677,-3.5661,-3.5661,-3.5705,-3.5554,-3.5464,-3.5464,-3.7577,-3.7577,-3.7577,-3.7577,-3.7577,-3.7577,-3.7577,-3.7577,-3.7577,-3.7577,-3.7577,-3.7577,-3.7577,-3.7577,-3.7577,-3.7577,-3.7577,-3.7485,-3.7503,-3.7484,-3.7447,-3.7372,-3.7279,-3.7241,-3.7164,-3.7069,-3.6974,-3.6895,-3.6678,-3.6736,-3.6719,-3.6641,-3.6414,-3.6536,-3.6609,-3.658,-3.6,-3.5775,-3.5635,-3.5427,-3.5287,-3.5025,-3.5364,-3.6066,-3.567,-3.6033,-3.6694,-3.6684,-3.662,-3.6539,-3.6481,-3.6316,-3.6172,-3.613,-3.613,-3.613,-3.634,-3.644,-3.6563,-3.686,-3.7034,-3.6781,-3.6741,-3.6684,-3.6481,-3.6481,-3.6381,-3.6256,-3.6165,-3.6191,-3.6207,-3.6249,-3.6554,-3.7312,-3.817,-3.9122,-4.0032,-4.1016,-4.1648,-4.1525,-4.1604,-4.1666,-4.1648,-4.1604,-4.1604,-4.1604,-4.1604,-4.1604,-4.1604,-4.1604,-4.1604,-4.1604,-4.1604,-4.1498,-4.1498,-4.1346,-4.1146,-4.0896,-4.0642,-4.0449,-4.0234,-3.9606,-3.8984,-3.8198,-3.7431,-3.6616,-3.5871,-3.5148,-3.4883,-3.5085,-3.5299,-3.5481,-3.5237,-3.4927,-3.4927,-3.7577,-3.7577,-3.7577,-3.7577,-3.7577,-3.7577,-3.7577,-3.7577,-3.7577,-3.7577,-3.7577,-3.7577,-3.7577,-3.7577,-3.7577,-3.7577,-3.754,-3.7411,-3.7411,-3.7337,-3.7203,-3.7087,-3.7027,-3.6948,-3.6851,-3.6615,-3.6516,-3.6474,-3.6291,-3.6326,-3.6139,-3.5994,-3.5933,-3.602,-3.6256,-3.6122,-3.6054,-3.5985,-3.6174,-3.6318,-3.6239,-3.6205,-3.6187,-3.647,-3.6069,-3.6061,-3.6316,-3.6308,-3.6165,-3.6079,-3.602,-3.5933,-3.5847,-3.5803,-3.5803,-3.5847,-3.5933,-3.602,-3.613,-3.634,-3.6522,-3.6399,-3.6298,-3.6232,-3.6062,-3.602,-3.5933,-3.5749,-3.5929,-3.611,-3.6127,-3.6271,-3.6627,-3.7336,-3.7963,-3.8843,-3.9496,-4.0377,-4.0913,-4.1255,-4.13,-4.13,-4.13,-4.1255,-4.1408,-4.1453,-4.1604,-4.1604,-4.1604,-4.1604,-4.1604,-4.1604,-4.1604,-4.1498,-4.1346,-4.11,-4.0802,-4.04,-4.0153,-3.9902,-3.9547,-3.8992,-3.8455,-3.7799,-3.6933,-3.586,-3.5202,-3.4759,-3.4611,-3.4561,-3.4738,-3.4975,-3.4785,-3.4513,-3.4366,-3.7577,-3.7577,-3.754,-3.754,-3.7503,-3.7577,-3.7577,-3.754,-3.754,-3.7503,-3.7449,-3.7466,-3.7503,-3.7449,-3.7356,-3.7356,-3.7337,-3.7185,-3.7147,-3.7223,-3.6913,-3.6834,-3.6834,-3.6713,-3.6509,-3.6533,-3.6367,-3.6139,-3.5924,-3.5898,-3.5605,-3.5333,-3.5316,-3.5543,-3.6105,-3.6122,-3.5837,-3.5543,-3.5749,-3.5881,-3.5924,-3.5924,-3.5924,-3.6011,-3.582,-3.5793,-3.5924,-3.5907,-3.5776,-3.5616,-3.5616,-3.5436,-3.5195,-3.5148,-3.5102,-3.5102,-3.5453,-3.5571,-3.5616,-3.5977,-3.6062,-3.602,-3.589,-3.5847,-3.5644,-3.5571,-3.5481,-3.5241,-3.5518,-3.5758,-3.6009,-3.634,-3.6751,-3.7079,-3.7597,-3.8215,-3.8874,-3.9409,-3.9928,-4.0651,-4.0802,-4.0802,-4.0802,-4.0866,-4.11,-4.1255,-4.1498,-4.1604,-4.156,-4.1453,-4.1391,-4.13,-4.1255,-4.1053,-4.0849,-4.0754,-4.0497,-4.0053,-3.9645,-3.9348,-3.9098,-3.8776,-3.8166,-3.7422,-3.671,-3.5866,-3.5194,-3.4605,-3.4462,-3.4333,-3.4234,-3.4284,-3.4151,-3.4151,-3.4101,-3.6939,-3.6684,-3.6684,-3.6684,-3.6741,-3.6995,-3.7111,-3.7111,-3.7111,-3.6978,-3.6701,-3.6643,-3.6684,-3.6684,-3.6724,-3.6724,-3.6701,-3.6696,-3.6713,-3.6696,-3.6451,-3.6385,-3.6385,-3.6301,-3.6131,-3.5958,-3.5844,-3.5756,-3.5487,-3.5487,-3.5304,-3.5041,-3.4994,-3.5071,-3.527,-3.5316,-3.5195,-3.5148,-3.5362,-3.5571,-3.5526,-3.5464,-3.5554,-3.5732,-3.5391,-3.527,-3.5543,-3.5464,-3.5299,-3.5195,-3.5195,-3.5071,-3.4947,-3.4899,-3.4899,-3.4899,-3.5165,-3.5102,-3.5148,-3.527,-3.5316,-3.5362,-3.5407,-3.5362,-3.5131,-3.5055,-3.493,-3.482,-3.5037,-3.5169,-3.5038,-3.5629,-3.6042,-3.609,-3.6602,-3.7251,-3.7898,-3.8303,-3.8857,-3.9831,-4.0252,-4.0235,-4.0252,-4.0252,-4.0449,-4.0754,-4.1007,-4.1346,-4.1408,-4.1146,-4.099,-4.0849,-4.0689,-4.0497,-4.0302,-4.0203,-3.9952,-3.9558,-3.9098,-3.8733,-3.8544,-3.8504,-3.7806,-3.6988,-3.6502,-3.5946,-3.5072,-3.4343,-3.423,-3.4101,-3.4101,-3.4101,-3.4101,-3.4101,-3.4101,-3.6457,-3.6232,-3.6215,-3.6105,-3.6062,-3.6481,-3.6643,-3.6643,-3.6643,-3.6464,-3.6256,-3.619,-3.619,-3.619,-3.6088,-3.6105,-3.6105,-3.6054,-3.6216,-3.6156,-3.6062,-3.6045,-3.6002,-3.5888,-3.58,-3.5594,-3.5475,-3.5383,-3.5228,-3.5198,-3.5041,-3.4947,-3.4899,-3.4947,-3.4977,-3.4977,-3.493,-3.4994,-3.5148,-3.5195,-3.5131,-3.5085,-3.5115,-3.5161,-3.4991,-3.4787,-3.4977,-3.4977,-3.4787,-3.4899,-3.4899,-3.4899,-3.4899,-3.4899,-3.4899,-3.4899,-3.4899,-3.4899,-3.4947,-3.4947,-3.5024,-3.4977,-3.4899,-3.4899,-3.4835,-3.4787,-3.4756,-3.4692,-3.4726,-3.4808,-3.4889,-3.5462,-3.5922,-3.6075,-3.6536,-3.7266,-3.7465,-3.7961,-3.8482,-3.9358,-3.9697,-3.9697,-3.9697,-3.9697,-3.9749,-4.0103,-4.0449,-4.0754,-4.1053,-4.0802,-4.0497,-4.04,-4.0235,-4.0053,-3.98,-3.9558,-3.9312,-3.9007,-3.8694,-3.8391,-3.8391,-3.8415,-3.7485,-3.6707,-3.6367,-3.5801,-3.4716,-3.4101,-3.4101,-3.4101,-3.4101,-3.4101,-3.4101,-3.4101,-3.4101,-3.6062,-3.613,-3.613,-3.5907,-3.5661,-3.5977,-3.6147,-3.6147,-3.619,-3.6147,-3.6105,-3.595,-3.5864,-3.5907,-3.5847,-3.5759,-3.5776,-3.5616,-3.5766,-3.5854,-3.5667,-3.5694,-3.5739,-3.5667,-3.5549,-3.5475,-3.5337,-3.5245,-3.5105,-3.5058,-3.4947,-3.4899,-3.4899,-3.4899,-3.4899,-3.4899,-3.4899,-3.4899,-3.4883,-3.4883,-3.4835,-3.4723,-3.4723,-3.4723,-3.4691,-3.4691,-3.4835,-3.4787,-3.4835,-3.4835,-3.4835,-3.4899,-3.4899,-3.4899,-3.4899,-3.4899,-3.4899,-3.4899,-3.4899,-3.4899,-3.4899,-3.4851,-3.4883,-3.4804,-3.4756,-3.4659,-3.4546,-3.4644,-3.4759,-3.4986,-3.5312,-3.5961,-3.6592,-3.6955,-3.727,-3.7552,-3.753,-3.7916,-3.8444,-3.8887,-3.9082,-3.9152,-3.9152,-3.9152,-3.9242,-3.9348,-3.9594,-3.9749,-4.0003,-4.0153,-3.9952,-3.9952,-3.9749,-3.9594,-3.9348,-3.9115,-3.8952,-3.8694,-3.86,-3.8391,-3.8391,-3.8311,-3.7679,-3.7048,-3.6481,-3.5671,-3.4554,-3.4117,-3.4101,-3.4101,-3.4101,-3.4101,-3.4101,-3.4101,-3.4101,-3.5266,-3.5021,-3.5085,-3.5085,-3.4991,-3.5178,-3.527,-3.5316,-3.5616,-3.5554,-3.5115,-3.5131,-3.5178,-3.4944,-3.4944,-3.4927,-3.4991,-3.5055,-3.5165,-3.5211,-3.5367,-3.5412,-3.5458,-3.5412,-3.5383,-3.5337,-3.5245,-3.5135,-3.5088,-3.4947,-3.4899,-3.4899,-3.4899,-3.4899,-3.4899,-3.4899,-3.4851,-3.4804,-3.4739,-3.4691,-3.4546,-3.4497,-3.4497,-3.4594,-3.4546,-3.4643,-3.4787,-3.4739,-3.4787,-3.4739,-3.4643,-3.4659,-3.4739,-3.4756,-3.4804,-3.4899,-3.4899,-3.4899,-3.4899,-3.4899,-3.4851,-3.4787,-3.4739,-3.4739,-3.4643,-3.4546,-3.4382,-3.4496,-3.4528,-3.4689,-3.4883,-3.55,-3.621,-3.6778,-3.7161,-3.7469,-3.7533,-3.7897,-3.8372,-3.8606,-3.875,-3.875,-3.875,-3.875,-3.8805,-3.8694,-3.8733,-3.8952,-3.9098,-3.9295,-3.9401,-3.9401,-3.9242,-3.9098,-3.8898,-3.8655,-3.8544,-3.8448,-3.8391,-3.8391,-3.8391,-3.823,-3.7857,-3.7226,-3.64,-3.5412,-3.4343,-3.4133,-3.4101,-3.4101,-3.4101,-3.4101,-3.4101,-3.4101,-3.4101,-3.3912,-3.3775,-3.4381,-3.4643,-3.4707,-3.4851,-3.4899,-3.4994,-3.5195,-3.5102,-3.4787,-3.4691,-3.4594,-3.4546,-3.4431,-3.4382,-3.4399,-3.4643,-3.4787,-3.4835,-3.5041,-3.5135,-3.5198,-3.5198,-3.5245,-3.5152,-3.5088,-3.5088,-3.5041,-3.4947,-3.4899,-3.4899,-3.4899,-3.4899,-3.4899,-3.4899,-3.4787,-3.4691,-3.4643,-3.4546,-3.4448,-3.4349,-3.4448,-3.4497,-3.4448,-3.4594,-3.4739,-3.4691,-3.4643,-3.4643,-3.4562,-3.4546,-3.4691,-3.4756,-3.4804,-3.4899,-3.4899,-3.4899,-3.4899,-3.4851,-3.4787,-3.4691,-3.4594,-3.4546,-3.4497,-3.4399,-3.43,-3.4299,-3.4183,-3.4182,-3.4424,-3.4764,-3.5525,-3.627,-3.6772,-3.7274,-3.7566,-3.7873,-3.8116,-3.8327,-3.8448,-3.8448,-3.8391,-3.8391,-3.8391,-3.8504,-3.8488,-3.8544,-3.8639,-3.8788,-3.8843,-3.886,-3.8694,-3.8544,-3.8391,-3.8391,-3.8391,-3.8391,-3.8391,-3.8391,-3.8391,-3.8262,-3.7987,-3.7145,-3.6125,-3.5283,-3.457,-3.4214,-3.4101,-3.4101,-3.4101,-3.4101,-3.4101,-3.4101,-3.4101,-3.2112,-3.2302,-3.3612,-3.3971,-3.4329,-3.4306,-3.4452,-3.4717,-3.4631,-3.4767,-3.4754,-3.4594,-3.4497,-3.4399,-3.425,-3.4151,-3.425,-3.4399,-3.4497,-3.4448,-3.4835,-3.4947,-3.4947,-3.5041,-3.4994,-3.4994,-3.4947,-3.4994,-3.4947,-3.4899,-3.4899,-3.4899,-3.4899,-3.4899,-3.4899,-3.4851,-3.4739,-3.4594,-3.4546,-3.4497,-3.4349,-3.43,-3.43,-3.43,-3.4349,-3.4382,-3.4611,-3.4611,-3.4546,-3.4611,-3.4562,-3.4497,-3.4643,-3.4804,-3.4835,-3.4899,-3.4899,-3.4899,-3.4899,-3.4804,-3.4707,-3.4594,-3.4448,-3.4349,-3.43,-3.43,-3.4201,-3.4151,-3.4101,-3.4101,-3.4295,-3.457,-3.5169,-3.5979,-3.6627,-3.7323,-3.7938,-3.8149,-3.8246,-3.8391,-3.8391,-3.8391,-3.8391,-3.8391,-3.8391,-3.8391,-3.8391,-3.8391,-3.8391,-3.8432,-3.8504,-3.8504,-3.8448,-3.8391,-3.8391,-3.8391,-3.8391,-3.8391,-3.8391,-3.8391,-3.8391,-3.8278,-3.8132,-3.7258,-3.6335,-3.5671,-3.504,-3.4554,-3.4133,-3.4101,-3.4101,-3.4101,-3.4101,-3.4101,-3.4101,-3.0465,-3.0526,-3.0957,-3.1281,-3.1429,-3.1457,-3.2221,-3.3176,-3.3226,-3.3713,-3.443,-3.4464,-3.4399,-3.425,-3.4151,-3.4068,-3.4021,-3.3991,-3.4301,-3.4105,-3.4249,-3.423,-3.4544,-3.4475,-3.4657,-3.4756,-3.4804,-3.4851,-3.4899,-3.4899,-3.4899,-3.4899,-3.4899,-3.4899,-3.4899,-3.4835,-3.4691,-3.4497,-3.4448,-3.4349,-3.4201,-3.4151,-3.4217,-3.425,-3.4284,-3.4333,-3.4448,-3.4399,-3.4399,-3.4349,-3.425,-3.4349,-3.4546,-3.4691,-3.4804,-3.4899,-3.4899,-3.4899,-3.4851,-3.4756,-3.4643,-3.4546,-3.4399,-3.4234,-3.4184,-3.4151,-3.4151,-3.4101,-3.4101,-3.4101,-3.4165,-3.4457,-3.4845,-3.5687,-3.6448,-3.7307,-3.8181,-3.8294,-3.8343,-3.8343,-3.8343,-3.8375,-3.8375,-3.8391,-3.8391,-3.8391,-3.8391,-3.8391,-3.8391,-3.8391,-3.8448,-3.8448,-3.8448,-3.8391,-3.8391,-3.8391,-3.8391,-3.8391,-3.8391,-3.8391,-3.8391,-3.8327,-3.8165,-3.7452,-3.6675,-3.593,-3.5202,-3.4538,-3.423,-3.4133,-3.4101,-3.4101,-3.4101,-3.4101,-3.4101,-2.8919,-2.9026,-2.9756,-3.0146,-3.0333,-3.0375,-3.0938,-3.1593,-3.1719,-3.1989,-3.2826,-3.3761,-3.4366,-3.4168,-3.4151,-3.3501,-3.3291,-3.3307,-3.2688,-3.2539,-3.2798,-3.2943,-3.3172,-3.358,-3.4152,-3.4348,-3.469,-3.4835,-3.4835,-3.4883,-3.4899,-3.4851,-3.4851,-3.4899,-3.4899,-3.4739,-3.4643,-3.4513,-3.4366,-3.425,-3.4101,-3.4101,-3.4151,-3.4201,-3.4234,-3.43,-3.43,-3.43,-3.425,-3.425,-3.425,-3.425,-3.4399,-3.4546,-3.4659,-3.4756,-3.4804,-3.4804,-3.4756,-3.4691,-3.4546,-3.4448,-3.43,-3.4151,-3.4151,-3.4101,-3.4101,-3.4101,-3.4101,-3.4101,-3.4101,-3.4311,-3.4716,-3.5396,-3.5833,-3.6416,-3.7242,-3.7776,-3.7792,-3.7792,-3.7906,-3.8149,-3.8181,-3.8278,-3.8311,-3.8391,-3.8391,-3.8391,-3.8391,-3.8246,-3.8294,-3.8311,-3.8262,-3.8343,-3.8391,-3.8391,-3.8391,-3.8391,-3.8391,-3.8391,-3.8391,-3.8375,-3.8165,-3.7533,-3.6821,-3.6027,-3.5299,-3.4635,-3.4246,-3.4117,-3.4101,-3.4101,-3.4101,-3.4101,-3.4101,-2.7446,-2.7624,-2.8835,-2.9456,-2.9632,-2.9708,-2.9865,-3.0079,-3.0179,-3.0201,-3.0593,-3.2812,-3.3729,-3.3763,-3.3551,-3.2724,-3.2107,-3.1895,-3.114,-3.068,-3.0479,-3.1169,-3.1723,-3.2079,-3.2861,-3.3643,-3.4131,-3.446,-3.4739,-3.4787,-3.4804,-3.4756,-3.4804,-3.4899,-3.4851,-3.4739,-3.4594,-3.4497,-3.4349,-3.4201,-3.4151,-3.4101,-3.4101,-3.4101,-3.4101,-3.4151,-3.4201,-3.4201,-3.4217,-3.4201,-3.425,-3.425,-3.43,-3.4448,-3.4546,-3.4659,-3.4707,-3.4707,-3.4707,-3.4546,-3.4448,-3.43,-3.4201,-3.4101,-3.4101,-3.4101,-3.4101,-3.4101,-3.4101,-3.4101,-3.4101,-3.4182,-3.4603,-3.5072,-3.5396,-3.572,-3.6513,-3.7226,-3.7258,-3.7274,-3.7566,-3.7841,-3.8051,-3.8149,-3.8262,-3.8359,-3.8391,-3.8391,-3.8327,-3.8051,-3.7922,-3.7954,-3.7938,-3.8068,-3.8327,-3.8391,-3.8391,-3.8391,-3.8391,-3.8391,-3.8391,-3.8391,-3.8181,-3.7711,-3.6967,-3.6173,-3.5428,-3.4748,-3.4424,-3.4117,-3.4101,-3.4101,-3.4101,-3.4101,-3.4101,-2.6021,-2.6037,-2.6328,-2.6519,-2.6618,-2.6657,-2.73,-2.8411,-2.8582,-2.9075,-2.9842,-3.0304,-3.0847,-3.0758,-3.0729,-3.0453,-3.0425,-3.0352,-3.0324,-3.0027,-2.942,-2.9865,-3.0482,-3.1075,-3.1499,-3.2373,-3.3299,-3.3641,-3.4462,-3.4691,-3.4787,-3.4835,-3.4851,-3.4851,-3.4851,-3.4691,-3.4497,-3.4399,-3.425,-3.4034,-3.405,-3.405,-3.4101,-3.4101,-3.4101,-3.4101,-3.4151,-3.4101,-3.4101,-3.4151,-3.4151,-3.4201,-3.425,-3.4349,-3.4448,-3.4594,-3.4611,-3.4594,-3.4546,-3.4448,-3.4349,-3.43,-3.4151,-3.4101,-3.4101,-3.4101,-3.4101,-3.4101,-3.4101,-3.4101,-3.4101,-3.4101,-3.4408,-3.4991,-3.5428,-3.5768,-3.6319,-3.661,-3.674,-3.6967,-3.729,-3.763,-3.8003,-3.8116,-3.8246,-3.8343,-3.8391,-3.8391,-3.8343,-3.8003,-3.7647,-3.7614,-3.7647,-3.7954,-3.8246,-3.8375,-3.8391,-3.8391,-3.8391,-3.8391,-3.8391,-3.8391,-3.8132,-3.7679,-3.7096,-3.6351,-3.5623,-3.4862,-3.4457,-3.4165,-3.4117,-3.4101,-3.4101,-3.4101,-3.4101]}]]